[[{"header":{"parameterUnit":"m.s-1","parameterCategory":1,"la1":31.0,"la2":29.5877,"lo1":-88.7671,"lo2":-86.6584,"dy":0.0162,"dx":0.0185,"nx":115,"ny":88,"refTime":"2023-09-13T12:00:00:Z","depth":0,"parameterNumber":2,"parameterNumberName":"U-component_of_WINDS"},"data":[0.0,0.0,0.0,0.0,0.0,0.0,0.0,0.0,0.0,0.0,0.0,0.0,0.0,0.0,0.0,0.0,0.0,0.0,0.0,0.0,0.0,0.0,0.0,0.0,0.0,0.0,0.0,0.0,0.0,0.0,0.0,0.0,0.0,0.0,0.0,0.0,0.0,0.0,0.0,0.0,0.0,0.0,0.0,0.0,0.0,0.0,0.0,0.0,0.0,0.0,0.0,0.0,0.0,0.0,0.0,0.0,0.0,0.0,0.0,0.0,0.0,0.0,0.0,0.0,0.0,0.0,0.0,0.0,0.0,0.0,0.0,0.0,0.0,0.0,0.0,0.0,0.0,0.0,0.0,0.0,0.0,0.0,0.0,0.0,0.0,0.0,0.0,0.0,0.0,0.0,0.0,0.0,0.0,0.0,0.0,0.0,0.0,0.0,0.0,0.0,0.0,0.0,0.0,0.0,0.0,0.0,0.0,0.0,0.0,0.0,0.0,0.0,0.0,0.0,0.0,0.0,0.0,0.0,0.0,0.0,0.0,0.0,0.0,0.0,0.0,0.0,0.0,0.0,0.0,0.0,0.0,0.0,0.0,0.0,0.0,0.0,0.0,0.0,0.0,0.0,0.0,0.0,0.0,0.0,0.0,0.0,0.0,0.0,0.0,0.0,0.0,0.0,0.0,0.0,0.0,0.0,0.0,0.0,0.0,0.0,0.0,0.0,0.0,0.0,0.0,0.0,0.0,0.0,0.0,0.0,0.0,0.0,0.0,0.0,0.0,0.0,0.0,0.0,0.0,0.0,0.0,0.0,0.0,0.0,0.0,0.0,0.0,0.0,0.0,0.0,0.0,0.0,0.0,0.0,0.0,0.0,0.0,0.0,0.0,0.0,0.0,0.0,0.0,0.0,0.0,0.0,0.0,0.0,0.0,0.0,0.0,0.0,0.0,0.0,0.0,0.0,0.0,0.0,0.0,0.0,0.0,0.0,0.0,0.0,0.0,0.0,0.0,0.0,0.0,0.0,0.0,0.0,0.0,0.0,0.0,0.0,0.0,0.0,0.0,0.0,0.0,0.0,0.0,0.0,0.0,0.0,0.0,0.0,0.0,0.0,0.0,0.0,0.0,0.0,0.0,0.0,0.0,0.0,0.0,0.0,0.0,0.0,0.0,0.0,0.0,0.0,0.0,0.0,0.0,0.0,0.0,0.0,0.0,0.0,0.0,0.0,0.0,0.0,0.0,0.0,0.0,0.0,0.0,0.0,0.0,0.0,0.0,0.0,0.0,0.0,0.0,0.0,0.0,0.0,0.0,0.0,0.0,0.0,0.0,0.0,0.0,0.0,0.0,0.0,0.0,0.0,0.0,0.0,0.0,0.0,0.0,0.0,0.0,0.0,0.0,0.0,0.0,0.0,0.0,0.0,0.0,0.0,0.0,0.0,0.0,0.0,0.0,0.0,0.0,0.0,0.0,0.0,0.0,0.0,0.0,0.0,0.0,0.0,0.0,0.0,0.0,0.0,0.0,0.0,0.0,0.0,0.0,0.0,0.0,0.0,0.0,0.0,0.0,0.0,0.0,0.0,0.0,0.0,0.0,0.0,0.0,0.0,0.0,0.0,0.0,0.0,0.0,0.0,0.0,0.0,0.0,0.0,0.0,0.0,0.0,0.0,0.0,0.0,0.0,0.0,0.0,0.0,0.0,0.0,0.0,0.0,0.0,0.0,0.0,0.0,0.0,0.0,0.0,0.0,0.0,0.0,0.0,0.0,0.0,0.0,0.0,0.0,0.0,0.0,0.0,0.0,0.0,0.0,0.0,0.0,0.0,0.0,0.0,0.0,0.0,0.0,0.0,0.0,0.0,0.0,0.0,0.0,0.0,0.0,0.0,0.0,0.0,0.0,0.0,0.0,0.0,0.0,0.0,0.0,0.0,0.0,0.0,0.0,0.0,0.0,0.0,0.0,0.0,0.0,0.0,0.0,0.0,0.0,0.0,0.0,0.0,0.0,0.0,0.0,0.0,0.0,0.0,0.0,0.0,0.0,0.0,0.0,0.0,0.0,0.0,0.0,0.0,0.0,0.0,0.0,0.0,0.0,0.0,0.0,0.0,0.0,0.0,0.0,0.0,0.0,0.0,0.0,0.0,0.0,0.0,0.0,0.0,0.0,0.0,0.0,0.0,0.0,0.0,0.0,0.0,0.0,0.0,0.0,0.0,0.0,0.0,0.0,0.0,0.0,0.0,0.0,0.0,0.0,0.0,0.0,0.0,0.0,0.0,0.0,0.0,0.0,0.0,0.0,0.0,0.0,0.0,0.0,0.0,0.0,0.0,0.0,0.0,0.0,0.0,0.0,0.0,0.0,0.0,0.0,0.0,0.0,0.0,0.0,0.0,0.0,0.0,0.0,0.0,0.0,0.0,0.0,0.0,0.0,0.0,0.0,0.0,0.0,0.0,0.0,0.0,0.0,0.0,0.0,0.0,0.0,0.0,0.0,0.0,0.0,0.0,0.0,0.0,0.0,0.0,0.0,0.0,0.0,0.0,0.0,0.0,0.0,0.0,0.0,0.0,0.0,0.0,0.0,0.0,0.0,0.0,0.0,0.0,0.0,0.0,0.0,0.0,0.0,0.0,0.0,0.0,0.0,0.0,0.0,0.0,0.0,0.0,0.0,0.0,0.0,0.0,0.0,0.0,0.0,0.0,0.0,0.0,0.0,0.0,0.0,0.0,0.0,0.0,0.0,0.0,0.0,0.0,0.0,0.0,0.0,0.0,0.0,0.0,0.0,0.0,0.0,0.0,0.0,0.0,0.0,0.0,0.0,0.0,0.0,0.0,0.0,0.0,0.0,0.0,0.0,0.0,0.0,0.0,0.0,0.0,0.0,0.0,0.0,0.0,0.0,0.0,0.0,0.0,0.0,0.0,0.0,0.0,0.0,0.0,0.0,0.0,0.0,0.0,0.0,0.0,0.0,0.0,0.0,0.0,0.0,0.0,0.0,0.0,0.0,0.0,0.0,0.0,0.0,0.0,0.0,0.0,0.0,0.0,0.0,0.0,0.0,0.0,0.0,0.0,0.0,0.0,0.0,0.0,0.0,0.0,0.0,0.0,0.0,0.0,0.0,0.0,0.0,0.0,0.0,0.0,0.0,0.0,0.0,0.0,0.0,0.0,0.0,0.0,0.0,0.0,0.0,0.0,0.0,0.0,0.0,0.0,0.0,0.0,0.0,0.0,0.0,0.0,0.0,0.0,0.0,0.0,0.0,0.0,0.0,0.0,0.0,0.0,0.0,0.0,0.0,0.0,0.0,0.0,0.0,0.0,0.0,0.0,0.0,0.0,0.0,0.0,0.0,0.0,0.0,0.0,0.0,0.0,0.0,0.0,0.0,0.0,0.0,0.0,0.0,0.0,0.0,0.0,0.0,0.0,0.0,0.0,0.0,0.0,0.0,0.0,0.0,0.0,0.0,0.0,0.0,0.0,0.0,0.0,0.0,0.0,0.0,0.0,0.0,0.0,0.0,0.0,0.0,0.0,0.0,0.0,0.0,0.0,0.0,0.0,0.0,0.0,0.0,0.0,0.0,0.0,0.0,0.0,0.0,0.0,0.0,0.0,0.0,0.0,0.0,0.0,0.0,0.0,0.0,0.0,0.0,0.0,0.0,0.0,0.0,0.0,0.0,0.0,0.0,0.0,0.0,0.0,0.0,0.0,0.0,0.0,0.0,0.0,0.0,0.0,0.0,0.0,0.0,0.0,0.0,0.0,0.0,0.0,0.0,0.0,0.0,0.0,0.0,0.0,0.0,0.0,0.0,0.0,0.0,0.0,0.0,0.0,0.0,0.0,0.0,0.0,0.0,0.0,0.0,0.0,0.0,0.0,0.0,0.0,0.0,0.0,0.0,0.0,0.0,0.0,0.0,0.0,0.0,0.0,0.0,0.0,0.0,0.0,0.0,0.0,0.0,0.0,0.0,0.0,0.0,0.0,0.0,0.0,0.0,0.0,0.0,0.0,0.0,0.0,0.0,0.0,0.0,0.0,0.0,0.0,0.0,0.0,0.0,0.0,0.0,0.0,0.0,0.0,0.0,0.0,0.0,0.0,0.0,0.0,0.0,0.0,0.0,0.0,0.0,0.0,0.0,0.0,0.0,0.0,0.0,0.0,0.0,0.0,0.0,0.0,0.0,0.0,0.0,0.0,0.0,0.0,0.0,0.0,0.0,0.0,0.0,0.0,0.0,0.0,0.0,0.0,0.0,0.0,0.0,0.0,0.0,0.0,0.0,0.6491,0.0,0.0,0.0,0.0,0.0,0.0,0.0,0.0,0.0,0.0,0.0,0.0,0.0,0.0,0.0,0.0,0.0,0.0,0.0,0.0,0.0,0.0,0.0,0.0,0.0,0.0,0.0,0.0,0.0,0.0,0.0,0.0,0.0,0.0,0.0,0.0,0.0,0.0,0.0,0.0,0.0,0.0,0.0,0.0,0.0,0.0,0.0,0.0,0.0,0.0,0.0,0.0,0.0,0.0,0.0,0.0,0.0,0.0,0.0,0.0,0.0,0.0,0.0,0.0,0.0,0.0,0.0,0.0,0.0,0.0,0.0,0.0,0.0,0.0,0.0,0.0,0.0,0.0,0.0,0.0,0.0,0.0,0.0,0.0,0.0,0.0,0.0,0.0,0.0,0.0,0.0,0.0,0.0,0.0,0.0,0.0,0.0,0.0,0.0,0.0,0.0,0.0,0.0,0.0,0.0,0.0,0.0,0.0,0.0,0.0,0.7304,0.6655,0.6798,0.6745,0.6416,0.0,0.0,0.0,0.0,0.0,0.0,0.0,0.0,0.0,0.0,0.0,0.0,0.0,0.0,0.0,0.0,0.0,0.0,0.0,0.0,0.0,0.0,0.0,0.0,0.0,0.0,0.0,0.0,0.0,0.0,0.0,0.0,0.0,0.0,0.0,0.0,0.0,0.0,0.0,0.0,0.0,0.0,0.0,0.0,0.0,0.0,0.0,0.0,0.0,0.0,0.0,0.0,0.0,0.0,0.0,0.0,0.0,0.0,0.0,0.0,0.0,0.0,0.0,0.0,0.0,0.0,0.0,0.0,0.0,0.0,0.0,0.0,0.0,0.0,0.0,0.0,0.0,0.0,0.0,0.0,0.0,0.0,0.0,0.0,0.0,0.0,0.0,0.0,0.0,0.0,0.0,0.0,0.0,0.0,0.0,0.0,0.0,0.0,0.0,0.0,0.0,0.0,0.0,0.0,0.0,0.0,0.0,0.0,0.0,0.0,0.0,0.0,0.6676,0.6666,0.6427,0.0,0.0,0.0,0.0,0.0,0.0,0.0,0.0,0.0,0.0,0.0,0.0,0.0,0.0,0.0,0.0,0.0,0.0,0.0,0.0,0.0,0.0,0.0,0.0,0.0,0.0,0.0,0.0,0.0,0.0,0.0,0.0,0.0,0.0,0.0,0.0,0.0,0.0,0.0,0.0,0.0,0.0,0.0,0.0,0.0,0.0,0.0,0.0,0.0,0.0,0.0,0.0,0.0,0.0,0.0,0.0,0.0,0.0,0.0,0.0,0.0,0.0,0.0,0.0,0.0,0.0,0.0,0.0,0.0,0.0,0.0,0.0,0.0,0.0,0.0,0.0,0.0,0.0,0.0,0.0,0.0,0.0,0.0,0.0,0.0,0.0,0.0,0.0,0.0,0.0,0.0,0.0,0.0,0.0,0.0,0.0,0.0,0.0,0.0,0.0,0.0,0.0,0.0,0.0,0.0,0.0,0.0,0.0,0.0,0.0,0.6883,0.6763,0.6566,0.0,0.641,0.0,0.0,0.0,0.0,0.0,0.0,0.0,0.0,0.0,0.0,0.0,0.0,0.0,0.0,0.0,0.0,0.0,0.0,0.0,0.0,0.0,0.0,0.0,0.0,0.0,0.0,0.0,0.0,0.0,0.0,0.0,0.0,0.0,0.0,0.0,0.0,0.0,0.0,0.0,0.0,0.0,0.0,0.0,0.0,0.0,0.0,0.0,0.0,0.0,0.0,0.0,0.0,0.0,0.0,0.0,0.0,0.0,0.0,0.0,0.0,0.0,0.0,0.0,0.0,0.0,0.0,0.0,0.0,0.0,0.0,0.0,0.0,0.0,0.0,0.0,0.0,0.0,0.0,0.0,0.0,0.0,0.0,0.0,0.0,0.0,0.0,0.0,0.0,0.0,0.0,0.0,0.0,0.0,0.0,0.0,0.0,0.0,0.0,0.0,0.0,0.0,0.0,0.0,0.0,0.0,0.0,0.0,0.0,0.0,0.0,0.7053,0.7054,0.6921,0.68,0.0,0.0,0.0,0.0,0.0,0.0,0.0,0.0,0.0,0.0,0.0,0.0,0.0,0.0,0.0,0.0,0.0,0.0,0.0,0.0,0.0,0.0,0.0,0.0,0.0,0.0,0.0,0.0,0.0,0.0,0.0,0.0,0.0,0.0,0.0,0.0,0.0,0.0,0.0,0.0,0.0,0.0,0.0,0.0,0.0,0.0,0.0,0.0,0.0,0.0,0.0,0.0,0.0,0.0,0.0,0.0,0.0,0.0,0.0,0.0,0.0,0.0,0.0,0.0,0.0,0.0,0.0,0.0,0.0,0.0,0.0,0.0,0.0,0.0,0.0,0.0,0.0,0.0,0.0,0.0,0.0,0.0,0.0,0.0,0.0,0.0,0.0,0.0,0.0,0.0,0.0,0.0,0.0,0.0,0.0,0.0,0.0,0.0,0.0,0.0,0.0,0.0,0.0,0.0,0.0,0.0,0.0,0.0,0.0,0.0,0.7357,0.72,0.72,0.72,0.7097,0.6915,0.0,0.0,0.0,0.0,0.0,0.0,0.0,0.0,0.0,0.0,0.0,0.0,0.0,0.0,0.0,0.0,0.0,0.0,0.0,0.0,0.0,0.0,0.0,0.0,0.0,0.0,0.0,0.0,0.0,0.0,0.0,0.0,0.0,0.0,0.0,0.0,0.0,0.0,0.0,0.0,0.0,0.0,0.0,0.0,0.0,0.0,0.0,0.0,0.0,0.0,0.0,0.0,0.0,0.0,0.0,0.0,0.0,0.0,0.0,0.0,0.0,0.0,0.0,0.0,0.0,0.0,0.0,0.0,0.0,0.0,0.0,0.0,0.0,0.0,0.0,0.0,0.0,0.0,0.0,0.0,0.0,0.0,0.0,0.0,0.0,0.0,0.0,0.0,0.0,0.0,0.0,0.0,0.0,0.0,0.0,0.0,0.0,0.0,0.0,0.0,0.0,0.0,0.0,0.0,0.0,0.0,0.0,0.0,0.7596,0.734,0.7206,0.7182,0.7194,0.7188,0.0,0.0,0.0,0.0,0.0,0.0,0.0,0.0,0.0,0.0,0.0,0.0,0.0,0.0,0.0,0.0,0.0,0.0,0.0,0.0,0.0,0.0,0.0,0.0,0.0,0.0,0.0,0.0,0.0,0.0,0.0,0.0,0.0,0.0,0.0,0.0,0.0,0.0,0.0,0.0,0.0,0.0,0.0,0.0,0.0,0.0,0.0,0.0,0.0,0.0,0.0,0.0,0.0,0.0,0.0,0.0,0.0,0.0,0.0,0.0,0.0,0.0,0.0,0.0,0.0,0.0,0.0,0.0,0.0,0.0,0.0,0.0,0.0,0.0,0.0,0.0,0.0,0.0,0.0,0.0,0.0,0.0,0.0,0.0,0.0,0.0,0.0,0.0,0.0,0.0,0.0,0.0,0.0,0.0,0.0,0.0,0.0,0.0,0.0,0.0,0.0,0.0,0.0,0.0,0.0,0.0,0.0,0.0,0.0,0.7759,0.7363,0.6956,0.6574,0.6548,0.6648,0.0,0.0,0.0,0.0,0.0,0.0,0.0,0.0,0.0,0.0,0.0,0.0,0.0,0.0,0.0,0.0,0.0,0.0,0.0,0.0,0.0,0.0,0.0,0.0,0.0,0.0,0.0,0.0,0.0,0.0,0.0,0.0,0.0,0.0,0.0,0.0,0.0,0.0,0.0,0.0,0.0,0.0,0.0,0.0,0.0,0.0,0.0,0.0,0.0,0.0,0.0,0.0,0.0,0.0,0.0,0.0,0.0,0.0,0.0,0.0,0.0,0.0,0.0,0.0,0.0,0.0,0.0,0.0,0.0,0.0,0.0,0.0,0.0,0.0,0.0,0.0,0.0,0.0,0.0,0.0,0.0,0.0,0.0,0.0,0.0,0.0,0.0,0.0,0.0,0.0,0.0,0.0,0.0,0.0,0.0,0.0,0.0,0.0,0.0,0.0,0.0,0.0,0.0,0.0,0.0,0.0,0.0,0.0,0.0,0.7354,0.0,0.6512,0.6222,0.615,0.6277,0.0,0.0,0.0,0.0,0.0,0.0,0.0,0.0,0.0,0.0,0.0,0.0,0.0,0.0,0.0,0.0,0.0,0.0,0.0,0.0,0.0,0.0,0.0,0.0,0.0,0.0,0.0,0.0,0.0,0.0,0.0,0.0,0.0,0.0,0.0,0.0,0.0,0.0,0.0,0.0,0.0,0.0,0.0,0.0,0.0,0.0,0.0,0.0,0.0,0.0,0.0,0.0,0.0,0.0,0.0,0.0,0.0,0.0,0.0,0.0,0.0,0.0,0.0,0.0,0.0,0.0,0.0,0.0,0.0,0.0,0.0,0.0,0.0,0.0,0.0,0.0,0.0,0.0,0.0,0.0,0.0,0.0,0.0,0.0,0.0,0.0,0.0,0.0,0.0,0.0,0.0,0.0,0.0,0.0,0.0,0.0,0.0,0.0,0.0,0.0,0.0,0.0,0.0,0.0,0.0,0.0,0.0,0.0,0.6777,0.6218,0.595,0.5909,0.6154,0.5996,0.6009,0.0,0.0,0.0,0.0,0.0,0.0,0.0,0.0,0.0,0.0,0.0,0.0,0.0,0.0,0.0,0.0,0.0,0.0,0.0,0.0,0.0,0.0,0.0,0.0,0.0,0.0,0.0,0.0,0.0,0.0,0.0,0.0,0.0,0.0,0.0,0.0,0.0,0.0,0.0,0.0,0.0,0.0,0.0,0.0,0.0,0.0,0.0,0.0,0.0,0.0,0.0,0.0,0.0,0.0,0.0,0.0,0.0,0.0,0.0,0.0,0.0,0.0,0.0,0.0,0.0,0.0,0.0,0.0,0.0,0.0,0.0,0.0,0.0,0.0,0.0,0.0,0.0,0.0,0.0,0.0,0.0,0.0,0.0,0.0,0.0,0.0,0.0,0.0,0.0,0.0,0.0,0.0,0.0,0.0,0.0,0.0,0.0,0.0,0.0,0.0,0.0,0.0,0.0,0.0,0.0,0.0,0.0,0.0,0.0,0.5582,0.5322,0.5062,0.4822,0.4694,0.4883,0.0,0.0,0.0,0.0,0.0,0.0,0.0,0.0,0.0,0.0,0.0,0.0,0.0,0.0,0.0,0.0,0.0,0.0,0.0,0.0,0.0,0.0,0.0,0.0,0.0,0.0,0.0,0.0,0.0,0.0,0.0,0.0,0.0,0.0,0.0,0.0,0.0,0.0,0.0,0.0,0.0,0.0,0.0,0.0,0.0,0.0,0.0,0.0,0.0,0.0,0.0,0.0,0.0,0.0,0.0,0.0,0.0,0.0,0.0,0.0,0.0,0.0,0.0,0.0,0.0,0.0,0.0,0.0,0.0,0.0,0.0,0.0,0.0,0.0,0.0,0.0,0.0,0.0,0.0,0.0,0.0,0.0,0.0,0.0,0.0,0.0,0.0,0.0,0.0,0.0,0.0,0.0,0.0,0.0,0.0,0.0,0.0,0.0,0.0,0.0,0.0,0.0,0.0,0.0,0.0,0.0,0.0,0.0,0.0,0.4878,0.4626,0.4404,0.4213,0.4069,0.421,0.4677,0.0,0.0,0.0,0.0,0.0,0.0,0.0,0.0,0.0,0.0,0.0,0.0,0.0,0.0,0.0,0.0,0.0,0.0,0.0,0.0,0.0,0.0,0.0,0.0,0.0,0.0,0.0,0.0,0.0,0.0,0.0,0.0,0.0,0.0,0.0,0.0,0.0,0.0,0.0,0.0,0.0,0.0,0.0,0.0,0.0,0.0,0.0,0.0,0.0,0.0,0.0,0.0,0.0,0.0,0.0,0.0,0.0,0.0,0.0,0.0,0.0,0.0,0.0,0.0,0.0,0.0,0.0,0.0,0.0,0.0,0.0,0.0,0.0,0.0,0.0,0.0,0.0,0.0,0.0,0.0,0.0,0.0,0.0,0.0,0.0,0.0,0.0,0.0,0.0,0.0,0.0,0.0,0.0,0.0,0.0,0.0,0.0,0.0,0.0,0.0,0.0,0.0,0.0,0.0,0.0,0.0,0.0,0.0,0.4136,0.389,0.3905,0.4194,0.4054,0.3992,0.0,0.0,0.0,0.0,0.0,0.0,0.0,0.0,0.0,0.0,0.0,0.0,0.0,0.0,0.0,0.0,0.0,0.0,0.0,0.0,0.0,0.0,0.0,0.0,0.0,0.0,0.0,0.0,0.0,0.0,0.0,0.0,0.0,0.0,0.0,0.0,0.0,0.0,0.0,0.0,0.0,0.0,0.0,0.0,0.0,0.0,0.0,0.0,0.0,0.0,0.0,0.0,0.0,0.0,0.0,0.0,0.0,0.0,0.0,0.0,0.0,0.0,0.0,0.0,0.0,0.0,0.0,0.0,0.0,0.0,0.0,0.0,0.0,0.0,0.0,0.0,0.0,0.0,0.0,0.0,0.0,0.0,0.0,0.0,0.0,0.0,0.0,0.0,0.0,0.0,0.0,0.0,0.0,0.0,0.0,0.0,0.0,0.0,0.0,0.0,0.0,0.0,0.0,0.0,0.0,0.0,0.0,0.0,0.0,0.3313,0.3246,0.3529,0.4167,0.3965,0.39,0.0,0.0,0.0,0.0,0.0,0.0,0.0,0.0,0.0,0.0,0.0,0.0,0.0,0.0,0.0,0.0,0.0,0.0,0.0,0.0,0.0,0.0,0.0,0.0,0.0,0.0,0.0,0.0,0.0,0.0,0.0,0.0,0.0,0.0,0.0,0.0,0.0,0.0,0.0,0.0,0.0,0.0,0.0,0.0,0.0,0.0,0.0,0.0,0.0,0.0,0.0,0.0,0.0,0.0,0.0,0.0,0.0,0.0,0.0,0.0,0.0,0.0,0.0,0.0,0.0,0.0,0.0,0.0,0.0,0.0,0.0,0.0,0.0,0.0,0.0,0.0,0.0,0.0,0.0,0.0,0.0,0.0,0.0,0.0,0.0,0.0,0.0,0.0,0.0,0.0,0.0,0.0,0.0,0.0,0.0,0.0,0.0,0.0,0.0,0.0,0.0,0.0,0.0,0.0,0.0,0.0,0.0,0.0,0.3282,0.3,0.3063,0.33,0.3755,0.3585,0.3466,0.0,0.0,0.0,0.0,0.0,0.0,0.0,0.0,0.0,0.0,0.0,0.0,0.0,0.0,0.0,0.0,0.0,0.0,0.0,0.0,0.0,0.0,0.0,0.0,0.0,0.0,0.0,0.0,0.0,0.0,0.0,0.0,0.0,0.0,0.0,0.0,0.0,0.0,0.0,0.0,0.0,0.0,0.0,0.0,0.0,0.0,0.0,0.0,0.0,0.0,0.0,0.0,0.0,0.0,0.0,0.0,0.0,0.0,0.0,0.0,0.0,0.0,0.0,0.0,0.0,0.0,0.0,0.0,0.0,0.0,0.0,0.0,0.0,0.0,0.0,0.0,0.0,0.0,0.0,0.0,0.0,0.0,0.0,0.0,0.0,0.0,0.0,0.0,0.0,0.0,0.0,0.0,0.0,0.0,0.0,0.0,0.0,0.0,0.0,0.0,0.0,0.0,0.0,0.0,0.0,0.0,0.0,0.0,0.3197,0.2919,0.3049,0.3102,0.3096,0.3044,0.2952,0.0,0.0,0.0,0.0,0.0,0.0,0.0,0.0,0.0,0.0,0.0,0.0,0.0,0.0,0.0,0.0,0.0,0.0,0.0,0.0,0.0,0.0,0.0,0.0,0.0,0.0,0.0,0.0,0.0,0.0,0.0,0.0,0.0,0.0,0.0,0.0,0.0,0.0,0.0,0.0,0.0,0.0,0.0,0.0,0.0,0.0,0.0,0.0,0.0,0.0,0.0,0.0,0.0,0.0,0.0,0.0,0.0,0.0,0.0,0.0,0.0,0.0,0.0,0.0,0.0,0.0,0.0,0.0,0.0,0.0,0.0,0.0,0.0,0.0,0.0,0.0,0.0,0.0,0.0,0.0,0.0,0.0,0.0,0.0,0.0,0.0,0.0,0.0,0.0,0.0,0.0,0.0,0.0,0.0,0.0,0.0,0.0,0.0,0.0,0.0,0.0,0.0,0.0,0.0,0.0,0.0,0.0,0.0,0.258,0.2388,0.2451,0.2493,0.2493,0.2832,0.2994,0.0,0.0,0.0,0.0,0.0,0.0,0.0,0.0,0.0,0.0,0.0,0.0,0.0,0.0,0.0,0.0,0.0,0.0,0.0,0.0,0.0,0.0,0.0,0.0,0.0,0.0,0.0,0.0,0.0,0.0,0.0,0.0,0.0,0.0,0.0,0.0,0.0,0.0,0.0,0.0,0.0,0.0,0.0,0.0,0.0,0.0,0.0,0.0,1.2102,0.0,0.0,0.0,0.0,0.0,0.0,0.0,0.0,0.0,0.0,0.0,0.0,0.0,0.0,0.0,0.0,0.0,0.0,0.0,0.0,0.0,0.0,0.0,0.0,0.0,0.0,0.0,0.0,0.0,0.0,0.0,0.0,0.0,0.0,0.0,0.0,0.0,0.0,0.0,0.0,0.0,0.0,0.0,0.0,0.0,0.0,0.0,0.0,0.0,0.0,0.0,0.0,0.0,0.0,0.0,0.0,0.0,0.0,0.0,0.2435,0.2208,0.225,0.2279,0.2293,0.2504,0.2641,0.0,0.0,0.0,0.0,0.0,0.0,0.0,0.0,0.0,0.0,0.0,0.0,0.0,0.0,0.0,0.0,0.0,0.0,0.0,0.0,0.0,0.0,0.0,0.0,0.0,0.0,0.0,0.0,0.0,0.0,0.0,0.0,0.0,0.0,0.0,0.0,0.0,0.0,0.0,0.0,0.0,0.0,0.0,0.0,0.0,0.0,0.0,0.0,0.0,0.0,0.0,0.0,0.0,0.0,0.0,0.0,0.0,0.0,0.0,0.0,0.0,0.0,0.0,0.0,0.0,0.0,0.0,0.0,0.0,0.0,0.0,0.0,0.0,0.0,0.0,0.0,0.0,0.0,0.0,0.0,0.0,0.0,0.0,0.0,0.0,0.0,0.0,0.0,0.0,0.0,0.0,0.0,0.0,0.0,0.0,0.0,0.0,0.0,0.0,0.0,0.0,0.0,0.0,0.0,0.0,0.0,0.0,0.2656,0.2445,0.2266,0.2299,0.2326,0.2324,0.2268,0.2244,0.2217,0.0,0.0,0.0,0.0,0.0,0.0,0.0,0.0,0.0,0.0,0.0,0.0,0.0,0.0,0.0,0.0,0.0,0.0,0.0,0.0,0.0,0.0,0.0,0.0,0.0,0.0,0.0,0.0,0.0,0.0,0.0,0.0,0.0,0.0,0.0,0.0,0.0,0.0,1.3468,1.277,0.0,0.0,0.0,0.0,0.0,0.0,0.0,0.0,1.0293,0.0,0.0,0.0,0.0,0.0,0.0,0.0,0.0,0.0,0.0,0.0,0.0,0.0,0.0,0.0,0.0,0.0,0.0,0.0,0.0,0.0,0.0,0.0,0.0,0.0,0.0,0.0,0.0,0.0,0.0,0.0,0.0,0.0,0.0,0.0,0.0,0.0,0.0,0.0,0.0,0.0,0.0,0.0,0.0,0.0,0.0,0.0,0.0,0.0,0.0,0.0,0.0,0.0,0.0,0.0,0.0,0.2351,0.2293,0.2323,0.2444,0.2456,0.2462,0.2462,0.2404,0.2327,0.2304,0.0,0.0,0.0,0.0,0.0,0.0,0.0,0.0,0.0,0.0,0.0,0.0,0.0,0.0,0.0,0.0,0.0,0.0,0.0,0.0,0.0,0.0,0.0,0.0,0.0,0.0,0.0,0.0,0.0,0.0,0.0,0.0,0.0,0.0,0.0,0.0,0.0,0.0,0.0,1.3039,1.2852,0.0,0.0,0.0,0.0,0.0,0.0,0.0,0.0,1.1394,0.0,0.0,0.0,0.0,0.0,0.0,0.0,0.0,0.0,0.0,0.0,0.0,0.0,0.0,0.0,0.0,0.0,0.0,0.0,0.0,0.0,0.0,0.0,0.0,0.0,0.0,0.0,0.0,0.0,0.0,0.0,0.0,0.0,0.0,0.0,0.0,0.0,0.0,0.0,0.0,0.0,0.0,0.0,0.0,0.0,0.0,0.0,0.0,0.0,0.0,0.0,0.0,0.0,0.0,0.0,0.2407,0.2249,0.2171,0.2176,0.2179,0.2179,0.2178,0.2224,0.2208,0.0,0.0,0.0,0.0,0.0,0.0,0.0,0.0,0.0,0.0,0.0,0.0,0.0,0.0,0.0,0.0,0.0,0.0,0.0,0.0,0.0,0.0,0.0,0.0,0.0,0.0,0.0,0.0,0.0,0.0,0.0,0.0,0.0,0.0,0.0,0.0,0.0,0.0,0.0,0.0,1.3368,1.3192,1.3583,0.0,0.0,0.0,0.0,0.0,0.0,1.124,1.1028,0.0,0.0,0.0,0.0,0.0,0.0,0.0,0.0,0.0,0.0,0.0,0.0,0.0,0.0,0.0,0.0,0.0,0.0,0.0,0.0,0.0,0.0,0.0,0.0,0.0,0.0,0.0,0.0,0.0,0.0,0.0,0.0,0.0,0.0,0.0,0.0,0.0,0.0,0.0,0.0,0.0,0.0,0.0,0.0,0.0,0.0,0.0,0.0,0.0,0.0,0.0,0.0,0.0,0.0,0.0,0.2217,0.1774,0.1494,0.1412,0.1571,0.1649,0.1649,0.189,0.2011,0.0,0.0,0.0,0.0,0.0,0.0,0.0,0.0,0.0,0.0,0.0,0.0,0.0,0.0,0.0,0.0,0.0,0.0,0.0,0.0,0.0,0.0,0.0,0.0,0.0,0.0,0.0,0.0,0.0,0.0,0.0,0.0,0.0,0.0,0.0,0.0,0.0,0.0,0.0,0.0,0.0,1.3611,1.4349,1.3291,0.0,0.0,0.0,0.0,1.1425,1.0966,0.0,0.0,0.0,0.0,0.0,0.0,0.0,0.0,0.0,0.0,0.0,0.0,0.0,0.0,0.0,0.0,0.0,0.0,0.0,0.0,0.0,0.0,0.0,0.0,0.0,0.0,0.0,0.0,0.0,0.0,0.0,0.0,0.0,0.0,0.0,0.0,0.0,0.0,0.0,0.0,0.0,0.0,0.0,0.0,0.0,0.0,0.0,0.0,0.0,0.0,0.0,0.0,0.0,0.0,0.0,0.0,0.0981,0.0093,-0.0363,-0.0274,0.0392,0.0744,0.0764,0.1389,0.1828,0.0,0.0,0.0,0.0,0.0,0.0,0.0,0.0,0.0,0.0,0.0,0.0,0.0,0.0,0.0,0.0,0.0,0.0,0.0,0.0,0.0,0.0,0.0,0.0,0.0,0.0,0.0,0.0,0.0,0.0,0.0,0.0,0.0,0.0,0.0,0.0,0.0,0.0,0.0,0.0,0.0,1.4121,1.4975,1.3742,1.255,0.0,0.0,1.1873,1.1468,1.1806,0.0,0.0,0.0,0.0,0.0,0.0,0.0,0.0,0.0,0.0,0.0,0.0,0.0,0.0,0.0,0.0,0.0,0.0,0.0,0.0,0.0,0.0,0.0,0.0,0.0,0.0,0.0,0.0,0.0,0.0,0.0,0.0,0.0,0.0,0.0,0.0,0.0,0.0,0.0,0.0,0.0,0.0,0.0,0.0,0.0,0.0,0.0,0.0,0.0,0.0,0.0,0.0,0.0,0.0,0.0,0.0844,0.06,-0.0321,-0.0892,-0.0998,-0.0666,-0.0235,0.0254,0.0728,0.1219,0.0,0.0,0.0,0.0,0.0,0.0,0.0,0.0,0.0,0.0,0.0,0.0,0.0,0.0,0.0,0.0,0.0,0.0,0.0,0.0,0.0,0.0,0.0,0.0,0.0,0.0,0.0,0.0,0.0,0.0,0.0,0.0,0.0,0.0,0.0,0.0,0.0,0.0,0.0,0.0,0.0,0.0,1.4214,1.3653,0.0,0.0,0.0,1.1513,1.1127,0.0,0.0,0.0,0.0,0.0,0.0,0.0,0.0,0.0,0.0,0.0,0.0,0.0,0.0,0.0,0.0,0.0,0.0,0.0,0.0,0.0,0.0,0.0,0.0,0.0,0.0,0.0,0.0,0.0,0.0,0.0,0.0,0.0,0.0,0.0,0.0,0.0,0.0,0.0,0.0,0.0,0.0,0.0,0.0,0.0,0.0,0.0,0.0,0.0,0.0,0.0,0.0,0.0,0.0,0.0,0.0,0.0,0.0164,-0.0898,-0.1606,-0.19,-0.1705,-0.1293,-0.0646,-0.0019,0.0,0.0,0.0,0.0,0.0,0.0,0.0,0.0,0.0,0.0,0.0,0.0,0.0,0.0,0.0,0.0,0.0,0.0,0.0,0.0,0.0,0.0,0.0,0.0,0.0,0.0,0.0,1.1351,0.0,0.0,0.0,0.0,0.0,0.0,0.0,0.0,0.0,0.0,0.0,0.0,0.0,0.0,1.44,1.3455,1.317,1.2654,0.0,0.0,1.0557,1.0274,0.973,0.9536,0.0,0.0,0.0,0.0,0.0,0.0,0.0,0.0,0.0,0.0,0.0,0.0,0.0,0.0,0.0,0.0,0.0,0.0,0.0,0.0,0.0,0.0,0.0,0.0,0.0,0.0,0.0,0.0,0.0,0.0,0.0,0.0,0.0,0.0,0.0,0.0,0.0,0.0,0.0,0.0,0.0,0.0,0.0,0.0,0.0,0.0,0.0,0.0,0.0,0.0,0.0,0.0,0.0,0.0,-0.0327,-0.0746,-0.218,-0.3137,-0.3585,-0.2842,-0.2392,-0.2293,-0.0803,0.0205,0.0,0.0,0.0,0.0,0.0,0.0,0.0,0.0,0.0,0.0,0.0,0.0,0.0,0.0,0.0,0.0,0.0,0.0,0.0,0.0,0.0,0.0,0.0,0.0,0.0,0.0,0.0,0.0,0.0,0.0,0.0,0.0,0.0,0.0,0.0,0.0,0.0,0.0,0.0,0.0,0.0,1.4245,1.3271,1.2222,1.13,0.0,0.972,0.9068,0.8801,0.8445,0.8379,0.8861,0.0,0.0,0.0,0.0,0.0,0.0,0.0,0.0,0.0,0.0,0.0,0.0,0.0,0.0,0.0,0.0,0.0,0.0,0.0,0.0,0.0,0.0,0.0,0.0,0.0,0.0,0.0,0.0,0.0,0.0,0.0,0.0,0.0,0.0,0.0,0.0,0.0,0.0,0.0,0.0,0.0,0.0,0.0,0.0,0.0,0.0,0.0,0.0,0.0,0.0,0.0,0.0,0.0,-0.04,-0.08,-0.2065,-0.3079,-0.3743,-0.3176,-0.2628,-0.2136,-0.1417,-0.0686,0.0,0.0,0.0,0.0,0.0,0.0,0.0,0.0,0.0,0.0,0.0,0.0,0.0,0.0,0.0,0.0,0.0,0.0,0.0,0.0,0.0,0.0,0.0,0.0,0.0,0.0,0.0,0.0,1.4065,1.4705,1.5194,0.0,0.0,0.0,0.0,0.0,0.0,0.0,0.0,0.0,0.0,1.2981,1.1571,1.1331,0.0,0.0,0.9274,0.8652,0.8185,0.7859,0.763,0.753,0.7864,0.0,0.0,0.0,0.0,0.0,0.0,0.0,0.0,0.0,0.0,0.0,0.0,0.0,0.0,0.0,0.0,0.0,0.0,0.0,0.0,0.0,0.0,0.0,0.0,0.0,0.0,0.0,0.0,0.0,0.0,0.0,0.0,0.0,0.0,0.0,0.0,0.0,0.0,0.0,0.0,0.0,0.0,0.0,0.0,0.0,0.0,0.0,0.0,0.0,0.0,0.0,0.0,-0.0472,-0.1054,-0.2122,-0.3059,-0.3782,-0.3471,-0.3039,-0.2487,-0.2022,-0.1385,0.0,0.0,0.0,0.0,0.0,0.0,0.0,0.0,0.0,0.0,0.0,0.0,0.0,0.0,0.0,0.0,0.0,0.0,0.0,0.0,0.0,0.0,0.0,0.0,0.0,0.0,0.0,0.0,1.4813,1.5448,1.5898,0.0,0.0,0.0,0.0,0.0,0.0,0.0,0.0,0.0,0.0,1.1768,1.0248,1.0361,1.0236,0.9225,0.8734,0.8275,0.7704,0.7262,0.6919,0.6759,0.0,0.0,0.0,0.0,0.0,0.0,0.0,0.0,0.0,0.0,0.0,0.0,0.0,0.0,0.0,0.0,0.0,0.0,0.0,0.0,0.0,0.0,0.0,0.0,0.0,0.0,0.0,-0.1793,0.0,0.0,-0.0855,0.0,0.0,0.0,0.0,0.0,0.0,0.0,0.0,0.0,0.0,0.0,0.0,0.0,0.0,0.0,0.0,0.0,0.0,0.0,0.0,0.0,0.0,-0.0654,-0.1564,-0.2544,-0.3315,-0.3782,-0.3782,-0.3743,-0.3684,-0.2546,-0.1819,-0.1621,0.0,0.0,0.0,0.0,0.0,0.0,0.0,0.0,0.0,0.0,0.0,0.0,0.0,0.0,0.0,0.0,0.0,0.0,0.0,0.0,0.0,0.0,0.0,0.0,0.0,0.0,1.3747,1.4754,1.5249,0.0,0.0,0.0,0.0,0.0,0.0,0.0,0.0,0.0,0.0,1.1474,1.0786,0.9601,0.9316,0.8988,0.8253,0.8011,0.7733,0.7252,0.6544,0.6187,0.0,0.0,0.0,0.0,0.0,0.0,0.0,0.0,0.0,0.0,0.0,0.0,0.0,0.0,0.0,0.0,0.0,0.0,0.0,0.0,0.0,0.0,0.0,0.0,0.0,0.0,0.0,-0.2647,-0.2294,0.0,0.0,0.0,0.0,0.0,0.0,0.0,0.0,0.0,0.0,0.0,0.1149,0.0807,0.0,0.0,0.0,0.0,0.0,0.0,0.0,0.0,0.0,0.0,0.0,0.0,-0.1001,-0.1603,-0.2334,-0.3059,-0.3763,-0.3489,-0.3335,-0.3315,-0.2924,-0.2249,-0.1265,0.0,0.0,0.0,0.0,0.0,0.0,0.0,0.0,0.0,0.0,0.0,0.0,0.0,0.0,0.0,0.0,0.0,0.0,0.0,0.0,0.0,0.0,0.0,0.0,0.0,1.2953,0.0,0.0,0.0,0.0,0.0,0.0,0.0,0.0,0.0,0.0,0.0,1.1802,1.1216,1.0244,0.9357,0.8629,0.8498,0.8292,0.0,0.0,0.0,0.0,0.0,0.0,0.0,0.0,0.0,0.0,0.0,0.0,0.0,0.0,0.522,0.5576,0.5924,0.6253,0.6479,0.0,0.0,0.0,0.0,0.0,0.0,0.0,0.0,0.0,0.0,0.0,0.0,0.0,0.0,-0.3384,-0.2968,-0.2271,0.0,0.0,0.0,0.0,0.0,0.0,0.0,0.0,-0.0018,0.0128,0.0534,-0.0018,0.0018,0.0,0.0548,0.0857,0.0,0.0,0.0,0.0,0.0,0.0,0.0,0.0,-0.1492,-0.2078,-0.2658,-0.3235,-0.3763,-0.3491,-0.3354,-0.3335,-0.318,-0.2608,-0.1569,-0.1359,-0.0641,0.0,0.0,0.0,0.0,0.0,0.0,0.0,0.0,0.0,0.0,0.0,0.0,0.0,0.0,0.0,0.0,0.0,0.0,0.0,0.0,0.0,0.0,0.0,1.2511,0.0,0.0,0.0,0.0,0.0,0.0,0.0,0.0,0.0,1.2375,1.1561,1.0734,1.0108,0.9225,0.8496,0.8063,0.0,0.0,0.0,0.0,0.0,0.0,0.0,0.5552,0.4806,0.5139,0.5356,0.4835,0.4791,0.4819,0.4819,0.0,0.0,0.488,0.5344,0.5764,0.5746,0.6151,0.6469,0.6451,0.6415,0.6393,0.0,0.0,0.0,0.0,0.0,0.0,0.0,0.0,-0.369,-0.3656,0.0,-0.2896,0.0,0.0,0.0,0.0,-0.0386,-0.0504,0.0,0.0,-0.113,-0.1241,-0.1176,-0.1194,-0.1194,-0.1192,-0.1166,-0.0914,-0.0402,0.0474,0.0,0.0,0.0,0.0,0.0,0.0,-0.2091,-0.2959,-0.3503,-0.3802,-0.3802,-0.3802,-0.3802,-0.3782,-0.3374,-0.2924,-0.2489,-0.1569,-0.0774,-0.0113,0.1081,0.0,0.0,0.0,0.0,0.0,0.0,0.0,0.0,0.0,0.0,0.0,0.0,0.0,0.0,0.0,0.0,0.0,0.0,0.0,0.0,1.1841,0.0,0.0,0.0,0.0,0.0,0.0,0.0,0.0,0.0,0.0,1.0507,1.0171,0.9659,0.8772,0.0,0.0,0.0,0.0,0.7503,0.6764,0.6774,0.6614,0.5942,0.5783,0.5658,0.54,0.0,0.0,0.4793,0.4741,0.4709,0.4706,0.4765,0.4784,0.4725,0.4857,0.4953,0.4953,0.4992,0.4944,0.4923,0.498,0.4862,-0.4568,0.0,0.0,0.0,0.0,-0.4509,-0.4742,-0.5097,-0.4967,-0.489,-0.4821,-0.4142,0.0,0.0,0.0,0.0,0.0,0.0,-0.0699,-0.0918,-0.0989,-0.1116,-0.1284,-0.1283,-0.1283,-0.1263,-0.1274,-0.1346,-0.1459,-0.1209,-0.0484,0.0595,0.0,0.0,0.0,0.0,-0.2773,-0.3072,-0.3552,-0.3821,-0.3821,-0.3821,-0.3821,-0.3821,-0.3667,-0.3256,-0.2529,-0.222,-0.1521,-0.036,0.0448,0.0,0.0,0.0,0.0,0.0,0.0,0.0,0.0,0.0,0.0,0.0,0.0,0.0,0.0,0.0,0.0,0.0,0.0,0.0,1.2335,1.1731,1.1422,0.0,0.0,0.0,0.0,0.0,0.0,0.0,0.0,0.0,1.0479,1.0155,0.971,0.0,0.0,0.7587,0.7084,0.7086,0.6817,0.592,0.5814,0.0,0.5189,0.5063,0.4985,0.4901,0.4825,0.4795,0.4795,0.4858,0.4912,0.489,0.4942,0.4933,0.4904,0.495,0.4969,0.4969,0.4972,0.4972,0.4969,0.4953,0.4909,-0.5514,-0.5165,-0.4811,-0.4818,-0.5053,-0.5056,-0.5246,-0.5515,-0.53,-0.5067,-0.4822,-0.4,-0.3425,-0.3058,-0.2406,0.0,0.0,0.0,-0.0844,-0.1057,-0.1057,-0.1142,-0.1296,-0.1317,-0.1394,-0.1551,-0.155,-0.1747,-0.2136,-0.2272,-0.1805,-0.0788,0.0,0.0,-0.1761,-0.2592,-0.3145,-0.3377,-0.3692,-0.3856,-0.3871,-0.3688,-0.3509,-0.3346,-0.3326,-0.3065,-0.2562,-0.2379,-0.1758,-0.0682,0.0096,0.0853,0.0,0.0,0.0,0.0,0.0,0.0,0.0,0.0,0.0,0.0,0.0,0.9838,1.038,0.0,0.0,0.0,1.1509,1.1819,1.1377,1.1055,0.0,0.0,0.0,0.0,0.0,0.0,0.0,1.1608,1.1158,1.0636,0.9973,0.9742,0.9428,0.8842,0.8233,0.763,0.6988,0.0,0.6243,0.529,0.4846,0.453,0.4285,0.4262,0.4278,0.4343,0.4381,0.4289,0.4041,0.4269,0.4426,0.425,0.4484,0.4759,0.4759,0.4879,0.4998,0.4998,0.4998,0.4998,0.4998,0.4998,0.4998,-0.628,-0.6229,-0.5366,-0.516,-0.5382,-0.537,-0.5479,-0.5615,-0.5079,-0.4668,-0.4293,-0.3264,-0.2491,-0.1925,-0.1123,0.0,-0.1025,-0.095,-0.1057,-0.1317,-0.1317,-0.1277,-0.1238,-0.1319,-0.1515,-0.1828,-0.193,-0.2169,-0.2582,-0.2897,-0.2911,-0.271,-0.2635,-0.2761,-0.2995,-0.3106,-0.3352,-0.3814,-0.3808,-0.3854,-0.3865,-0.3465,-0.3026,-0.2626,-0.2587,-0.2565,-0.2459,-0.206,-0.1547,-0.0955,0.0039,0.0858,0.1399,0.0,0.0,0.0,0.0,0.0,0.0,0.0,0.0,0.0,0.0,0.0,0.0,0.0,0.0,0.0,1.0297,0.0,0.9695,1.0224,0.0,0.0,0.0,1.2291,1.2788,1.2126,1.1597,1.1502,0.0,0.0,0.9187,0.9036,0.8837,0.8433,0.836,0.8047,0.7179,0.6456,0.5744,0.4802,0.3996,0.3479,0.3577,0.3638,0.3753,0.3871,0.3814,0.3612,0.307,0.3326,0.3446,0.3013,0.36,0.4304,0.4384,0.4681,0.492,0.4979,0.4998,0.4998,0.4998,0.4998,0.4998,-0.628,-0.6289,-0.6048,-0.5994,-0.6057,-0.6057,-0.6097,-0.6122,-0.5983,-0.5886,-0.5771,-0.5526,-0.4958,-0.4133,-0.2688,-0.207,-0.2101,-0.1498,-0.1231,-0.1297,-0.1317,-0.1042,-0.059,-0.1439,-0.1651,-0.1371,-0.2174,-0.2793,-0.3182,-0.3248,-0.3404,-0.3568,-0.3585,-0.3435,-0.3167,-0.3387,-0.3629,-0.3865,-0.3445,-0.3108,-0.294,-0.2818,-0.2712,-0.2608,-0.2587,-0.2187,-0.1345,-0.1212,-0.0938,-0.0458,0.0742,0.1182,0.0702,0.2045,0.0,0.0,0.0,0.0,0.0,0.0,0.0,0.0,0.0,0.8101,0.8312,0.0,0.9618,0.0,0.8756,0.965,1.1514,1.104,0.0,0.0,1.2463,1.2367,1.1795,1.1877,1.1593,1.0558,0.9881,0.9394,0.9132,0.8531,0.8132,0.8163,0.8038,0.7436,0.6086,0.5772,0.5281,0.4148,0.377,0.3722,0.3689,0.3798,0.3773,0.3875,0.3847,0.3643,0.2925,0.2935,0.2974,0.2838,0.2994,0.3462,0.4214,0.427,0.4353,0.484,0.4998,0.4998,0.4998,0.4998,0.4998,-0.6777,-0.6777,-0.6714,-0.6654,-0.6643,-0.6393,-0.628,-0.6277,-0.5886,-0.5712,-0.5712,-0.5356,-0.4693,-0.3839,-0.2951,-0.233,-0.1936,-0.1513,-0.1317,-0.1317,-0.154,-0.1337,-0.0811,-0.1847,-0.2165,-0.1856,-0.2674,-0.3257,-0.3632,-0.3465,-0.3587,-0.4022,-0.383,-0.3684,-0.3637,-0.3677,-0.3659,-0.3632,-0.3563,-0.3263,-0.2766,-0.2727,-0.251,-0.2022,-0.1787,-0.1353,-0.0694,-0.0464,-0.0221,0.002,0.0994,0.134,0.0895,0.1959,0.2636,0.0,0.0,0.0,0.0,0.0,0.0,0.0,0.0,0.0,0.0,0.0,0.9343,0.9575,0.9142,0.9585,1.1418,1.0867,1.0643,1.129,1.1627,1.1663,1.1259,1.1159,1.0834,1.0095,0.9437,0.9009,0.8916,0.8481,0.7991,0.7632,0.7467,0.6988,0.5885,0.5305,0.4604,0.3647,0.3371,0.3187,0.2923,0.2874,0.2761,0.246,0.2389,0.2152,0.1518,0.1615,0.1696,0.1494,0.1999,0.2705,0.331,0.3705,0.4005,0.4337,0.4501,0.4609,0.492,0.484,0.472,-0.7388,-0.7388,-0.7216,-0.7133,-0.7091,-0.6622,-0.6374,-0.6299,-0.5543,-0.5224,-0.5165,-0.4379,-0.3594,-0.2872,-0.2685,-0.2222,-0.1493,-0.1356,-0.1348,-0.1431,-0.1893,-0.183,-0.141,-0.2404,-0.2808,-0.2703,-0.3257,-0.3623,-0.3794,-0.3495,-0.3548,-0.3952,-0.3648,-0.3687,-0.4058,-0.3918,-0.3645,-0.3275,-0.3775,-0.364,-0.2811,-0.2774,-0.2284,-0.1345,-0.0814,-0.047,-0.0275,0.025,0.0532,0.0551,0.1192,0.1493,0.144,0.1937,0.2407,0.0,0.3436,0.0,0.0,0.0,0.0,0.0,0.0,0.0,0.0,0.8338,0.9383,1.111,1.0058,0.9607,1.0441,1.0236,0.9995,0.9803,1.0291,1.0718,1.0862,1.0281,0.9824,0.9736,0.9106,0.869,0.865,0.8601,0.8135,0.7125,0.6761,0.6384,0.5755,0.4828,0.3981,0.3317,0.295,0.2591,0.1942,0.1694,0.1485,0.0761,0.0675,0.0274,-0.0189,0.0105,0.0273,0.0063,0.1045,0.205,0.2265,0.3158,0.3735,0.3914,0.3861,0.3999,0.4575,0.4545,0.4326,-0.7388,-0.7388,-0.7347,-0.7347,-0.7319,-0.7068,-0.6818,-0.6617,-0.645,-0.6388,-0.6306,-0.5539,-0.5082,-0.4817,-0.3409,-0.269,-0.2462,-0.168,-0.1516,-0.1935,-0.2061,-0.1954,-0.1786,-0.2845,-0.3106,-0.2698,-0.3665,-0.3651,-0.2788,-0.3299,-0.3255,-0.2777,-0.3234,-0.3508,-0.3553,0.0,0.0,0.0,-0.3072,-0.2805,-0.2269,-0.2088,-0.1774,-0.1331,-0.1043,0.0,0.0373,0.0918,0.1227,0.1245,0.19,0.0,0.0,0.0,0.0,0.0,0.0,0.0,0.0,0.0,0.0,0.0,0.7739,0.7665,0.7787,0.793,0.8396,0.9276,0.8916,0.8983,0.9933,0.9968,1.0109,1.0527,1.0681,1.0524,0.9971,0.9735,0.9473,0.8908,0.872,0.8563,0.8388,0.8357,0.7896,0.675,0.6093,0.536,0.4512,0.4126,0.3674,0.2967,0.2737,0.2504,0.1813,0.1664,0.1338,0.0803,0.0582,0.0279,-0.0275,-0.0337,0.0,0.0252,0.0777,0.1492,0.2752,0.3014,0.3175,0.376,0.3616,0.3526,0.3935,0.3979,0.3919,-0.7973,-0.7994,-0.7841,-0.7798,0.0,-0.756,-0.7432,-0.7272,-0.7014,-0.6881,-0.6864,-0.6322,-0.561,-0.4715,-0.3817,-0.3092,-0.2436,-0.1945,-0.202,-0.2495,-0.2735,-0.2668,-0.2384,-0.3399,-0.3615,-0.3133,-0.3922,-0.3985,-0.3403,-0.3293,-0.3274,-0.3326,-0.3241,-0.3421,-0.3839,-0.4057,-0.3972,-0.3596,-0.3523,-0.3165,-0.2511,-0.2029,-0.1478,-0.0827,-0.0102,0.0,0.0,0.0,0.0,0.0,0.0,0.0,0.0,0.2283,0.0,0.3124,0.3604,0.4445,0.5668,0.6433,0.7234,0.8166,0.8391,0.8412,0.8259,0.8425,0.8868,0.9586,0.9179,0.9208,1.0064,0.9772,0.9601,0.9879,0.9796,0.9537,0.9188,0.9111,0.8967,0.8705,0.8616,0.8401,0.7811,0.7724,0.7079,0.5728,0.513,0.4533,0.3657,0.3433,0.3126,0.2389,0.2278,0.192,0.0905,0.0689,0.0492,-0.0199,-0.0397,-0.0527,-0.0848,-0.089,-0.0759,-0.0347,0.0195,0.1063,0.1798,0.2368,0.2887,0.3223,0.3155,0.3051,0.3239,0.34,0.349,-0.8616,-0.8568,-0.8362,-0.827,-0.8248,-0.8032,-0.7962,-0.7921,-0.7459,0.0,0.0,-0.6773,-0.5825,-0.45,-0.4172,-0.3446,-0.2494,-0.2358,-0.2578,-0.3045,-0.3406,-0.3428,-0.3181,-0.3918,-0.4099,-0.3765,-0.4099,-0.4186,-0.3963,-0.3315,-0.3336,-0.3851,-0.3179,-0.3114,-0.3738,-0.3782,-0.3752,-0.3651,-0.3722,-0.3328,-0.247,-0.179,-0.1017,-0.0104,0.0957,0.1591,0.1708,0.2215,0.251,0.251,0.251,0.2501,0.2521,0.2522,0.2811,0.3371,0.421,0.5092,0.5901,0.7234,0.8147,0.845,0.8981,0.9155,0.8782,0.9049,0.9521,1.0181,0.9582,0.944,1.008,0.944,0.8923,0.8882,0.8698,0.8563,0.8552,0.8544,0.8578,0.8579,0.8417,0.8047,0.7314,0.6982,0.6251,0.4763,0.4399,0.3965,0.3142,0.2956,0.2705,0.2012,0.19,0.1345,0.0045,-0.0314,-0.065,-0.1165,-0.1322,-0.1413,-0.1413,-0.1413,-0.1368,-0.1073,-0.0134,0.0649,0.0962,0.1989,0.2779,0.282,0.2783,0.2723,0.2741,0.2925,0.3123,-0.8616,-0.8616,-0.8568,-0.8546,-0.8524,-0.827,-0.8157,-0.8127,-0.7913,-0.7785,-0.772,-0.6655,-0.6286,-0.6292,-0.4488,-0.3809,-0.3924,-0.3176,-0.3048,-0.3496,-0.3563,-0.3764,-0.4099,-0.4253,-0.4275,-0.421,-0.4275,-0.3762,-0.291,-0.3248,-0.3248,-0.2776,-0.2439,-0.2148,-0.1835,-0.1812,-0.172,-0.1559,-0.1859,-0.1607,-0.0675,-0.0231,0.0246,0.0714,0.1081,0.1402,0.1685,0.2218,0.251,0.251,0.251,0.2557,0.2659,0.2688,0.3113,0.4053,0.4288,0.5102,0.6758,0.7131,0.7708,0.8718,0.9113,0.9203,0.8984,0.9009,0.9103,0.9205,0.8957,0.8739,0.8857,0.8773,0.8621,0.8452,0.8378,0.8354,0.8379,0.8357,0.8394,0.8511,0.7818,0.73,0.6941,0.6347,0.5519,0.4565,0.4166,0.3944,0.3165,0.2897,0.2604,0.1997,0.1795,0.1166,-0.0112,-0.0426,-0.0718,-0.1279,-0.1413,-0.1413,-0.1413,-0.1413,-0.1234,-0.0695,0.0045,0.0807,0.1412,0.2307,0.2767,0.2831,0.2861,0.2859,0.2856,0.2898,0.2865,-0.8616,-0.8616,-0.8616,-0.8616,-0.859,-0.8454,-0.841,-0.8406,-0.8318,-0.8208,-0.7959,-0.694,-0.6321,-0.5919,-0.4607,-0.3941,-0.3898,-0.3473,-0.3518,-0.3965,-0.3989,-0.4099,-0.4297,-0.4297,-0.4297,-0.4297,-0.4297,-0.3874,-0.3181,-0.3428,-0.3181,-0.2372,-0.1946,-0.1633,-0.1409,-0.1297,-0.094,-0.0313,-0.0997,-0.097,-0.0154,0.0433,0.0942,0.1373,0.1847,0.2199,0.2347,0.2602,0.2707,0.2707,0.2728,0.2754,0.2808,0.3289,0.3908,0.4648,0.5539,0.6514,0.7625,0.8069,0.853,0.9065,0.924,0.9278,0.916,0.9164,0.9159,0.9159,0.9036,0.8972,0.8972,0.8845,0.8717,0.8636,0.8534,0.8482,0.8465,0.8464,0.8275,0.7863,0.7386,0.6716,0.5677,0.5208,0.4587,0.3743,0.3544,0.3342,0.2963,0.2897,0.2492,0.148,0.1189,0.0583,-0.0628,-0.0942,-0.1076,-0.1391,-0.1413,-0.1413,-0.1413,-0.1413,-0.1256,-0.0987,-0.0359,0.0336,0.1076,0.1795,0.2357,0.2852,0.2897,0.2897,0.2892,0.2871,0.2824,-0.8645,-0.8616,-0.8616,-0.8616,-0.8616,-0.8616,-0.8616,-0.8616,-0.8594,-0.8498,-0.816,-0.7076,-0.6207,-0.5583,-0.4607,-0.3987,-0.3788,-0.3765,-0.3944,-0.4275,-0.4297,-0.4297,-0.4297,-0.4297,-0.4297,-0.4297,-0.4297,-0.4054,-0.3631,-0.3428,-0.2756,-0.17,-0.1254,-0.0962,-0.0671,-0.0515,-0.0022,0.0762,0.0112,0.0,0.056,0.1186,0.168,0.2064,0.2581,0.2897,0.2897,0.2897,0.2897,0.2897,0.2897,0.2897,0.2942,0.3831,0.4607,0.5208,0.6624,0.7731,0.8245,0.8819,0.913,0.9152,0.9196,0.9196,0.9152,0.9174,0.9218,0.9196,0.9139,0.9117,0.9069,0.8942,0.8823,0.8828,0.8696,0.8596,0.859,0.841,0.7984,0.7228,0.6764,0.583,0.4696,0.4097,0.3698,0.3142,0.2897,0.2897,0.2897,0.2897,0.2334,0.1368,0.0807,0.0269,-0.0942,-0.1301,-0.1368,-0.1413,-0.1413,-0.1413,-0.1413,-0.1413,-0.1391,-0.1279,-0.0807,-0.009,0.0583,0.1323,0.2064,0.2716,0.2897,0.2897,0.2897,0.2894,0.2871,-0.871,-0.8602,-0.8624,-0.8616,-0.8616,-0.8616,-0.8616,-0.8616,-0.8616,-0.8594,-0.8388,-0.6621,-0.6024,-0.603,-0.4476,-0.3898,-0.421,-0.4231,-0.4253,-0.4297,-0.4297,-0.4297,-0.4297,-0.4297,-0.4297,-0.4297,-0.4275,-0.4009,-0.354,-0.2868,-0.1679,-0.0067,-0.0045,0.0381,0.1323,0.148,0.1771,0.2289,0.22,0.2199,0.2266,0.2558,0.2761,0.2785,0.2852,0.2897,0.2897,0.2897,0.2897,0.2897,0.2897,0.2897,0.3008,0.3963,0.4894,0.5608,0.6823,0.7801,0.8472,0.863,0.8696,0.8678,0.885,0.8867,0.8718,0.8823,0.8955,0.8911,0.8784,0.8718,0.8656,0.8656,0.8656,0.8656,0.8612,0.8616,0.8458,0.7782,0.7187,0.7139,0.5653,0.4454,0.421,0.3587,0.3075,0.2942,0.2897,0.2897,0.2897,0.2897,0.2672,0.1817,0.1189,0.0448,-0.0381,-0.1031,-0.1301,-0.1368,-0.1413,-0.1413,-0.1413,-0.1413,-0.1413,-0.1346,-0.0919,-0.0247,0.0561,0.1301,0.1974,0.2672,0.2897,0.2897,0.2897,0.2897,0.2882,-0.8946,-0.8891,-0.8763,-0.8658,-0.8598,-0.8616,-0.8616,-0.8616,-0.8616,-0.8616,-0.8388,-0.6845,-0.6223,-0.6296,-0.4721,-0.4121,-0.4297,-0.4297,-0.4297,-0.4297,-0.4297,-0.4297,-0.4297,-0.4297,-0.4297,-0.4277,-0.4032,-0.3654,-0.3024,-0.1747,-0.0605,0.0157,0.0583,0.1166,0.1773,0.1974,0.2177,0.2492,0.2649,0.2739,0.2739,0.2852,0.2897,0.2897,0.2897,0.2897,0.2897,0.2897,0.2897,0.2897,0.2897,0.2897,0.292,0.4387,0.5383,0.5764,0.7356,0.8402,0.8586,0.8872,0.8959,0.8784,0.8845,0.8845,0.8784,0.874,0.874,0.8718,0.863,0.8616,0.8616,0.8616,0.8616,0.8616,0.8616,0.8366,0.7764,0.7341,0.6741,0.563,0.4788,0.4054,0.3564,0.3142,0.292,0.2897,0.2897,0.2897,0.2897,0.2897,0.2785,0.2446,0.1817,0.0897,-0.0112,-0.0605,-0.0964,-0.1279,-0.1413,-0.1413,-0.1413,-0.1413,-0.1413,-0.1413,-0.1144,-0.0493,0.0516,0.0897,0.1436,0.2357,0.2897,0.2897,0.2897,0.2897,0.2897,-0.9343,-0.9289,-0.8996,-0.8796,-0.8659,-0.8659,-0.8631,-0.8616,-0.8616,-0.8498,-0.816,-0.6962,-0.6273,-0.5966,-0.4832,-0.4297,-0.4297,-0.4297,-0.4297,-0.4297,-0.4297,-0.4297,-0.4297,-0.4297,-0.4297,-0.4231,-0.3833,-0.3115,-0.2151,-0.056,0.0359,0.0583,0.1189,0.1637,0.1907,0.2155,0.2401,0.2604,0.2807,0.2897,0.2897,0.2897,0.2897,0.2897,0.2897,0.2897,0.2897,0.2897,0.2897,0.2897,0.2897,0.3008,0.332,0.4899,0.603,0.6628,0.7959,0.8762,0.8608,0.8915,0.9021,0.885,0.8867,0.8867,0.8828,0.874,0.8652,0.8612,0.8616,0.8616,0.8616,0.8616,0.8502,0.8256,0.8186,0.7786,0.6871,0.6542,0.5786,0.4543,0.4076,0.3698,0.3075,0.2897,0.2897,0.2897,0.2897,0.2897,0.2897,0.2897,0.2897,0.2875,0.2424,0.1548,0.0224,-0.0336,-0.0673,-0.1144,-0.1413,-0.1413,-0.1413,-0.1413,-0.1413,-0.1413,-0.1413,-0.0897,0.0336,0.0785,0.1211,0.2357,0.2897,0.2897,0.2897,0.2897,0.2897,-0.9972,-0.9781,-0.9298,-0.8978,-0.8789,-0.8789,-0.8714,-0.8611,-0.8602,-0.8212,-0.7558,-0.6764,-0.6055,-0.5438,-0.4656,-0.4297,-0.4297,-0.4297,-0.4297,-0.4297,-0.4297,-0.4297,-0.4297,-0.4297,-0.4297,-0.4253,-0.3765,-0.2555,-0.0627,0.0493,0.1301,0.1682,0.1728,0.1907,0.2177,0.2357,0.2627,0.283,0.2875,0.2897,0.2897,0.2897,0.2897,0.2897,0.2897,0.2897,0.2897,0.2897,0.2897,0.2897,0.2942,0.332,0.4188,0.5383,0.6842,0.8376,0.8626,0.863,0.8608,0.8678,0.8674,0.8678,0.8802,0.8823,0.8696,0.8762,0.8718,0.859,0.848,0.848,0.8388,0.837,0.8076,0.7297,0.7161,0.6719,0.5852,0.5119,0.452,0.4143,0.3544,0.312,0.292,0.2897,0.2897,0.2897,0.2897,0.2897,0.2897,0.2897,0.2897,0.2897,0.2739,0.2312,0.0942,0.0179,-0.0516,-0.1166,-0.1413,-0.1413,-0.1413,-0.1413,-0.1413,-0.1413,-0.1413,-0.0897,0.0224,0.1031,0.1592,0.2334,0.2807,0.2897,0.2897,0.2897,0.2897,-1.0501,-0.9994,-0.9496,-0.9185,-0.9007,-0.8999,-0.8897,-0.8735,-0.8731,-0.828,-0.7455,-0.6716,-0.6033,-0.5349,-0.4634,-0.4297,-0.4297,-0.4297,-0.4297,-0.4297,-0.4297,-0.4297,-0.4297,-0.4297,-0.4297,-0.4188,-0.3516,-0.2128,-0.0247,0.0718,0.1323,0.1728,0.1795,0.1997,0.2334,0.2446,0.2627,0.2875,0.2897,0.2897,0.2897,0.2897,0.2897,0.2897,0.2897,0.2897,0.2897,0.2897,0.2897,0.2897,0.3454,0.3942,0.4387,0.5849,0.7294,0.8516,0.8762,0.874,0.8652,0.8872,0.8955,0.8828,0.8845,0.8872,0.8806,0.8718,0.8428,0.7852,0.7654,0.743,0.7007,0.7275,0.7231,0.6406,0.6188,0.5852,0.503,0.4476,0.4099,0.3521,0.3075,0.292,0.2897,0.2897,0.2897,0.2897,0.2897,0.2897,0.2897,0.2897,0.2897,0.2897,0.2875,0.256,0.1615,0.0785,0.0022,-0.0919,-0.1413,-0.1413,-0.1413,-0.1458,-0.148,-0.1503,-0.148,-0.0852,0.0269,0.1615,0.2155,0.247,0.2897,0.2897,0.2897,0.2897,0.2897,-1.0967,-1.0195,-0.9848,-0.9507,-0.9162,-0.8918,-0.8703,-0.8494,-0.8208,-0.7618,-0.6853,-0.6294,-0.57,-0.506,-0.45,-0.4297,-0.4297,-0.4297,-0.4297,-0.4297,-0.4297,-0.4297,-0.4297,-0.4297,-0.4297,-0.4074,-0.291,-0.1478,-0.0045,0.0897,0.1436,0.166,0.184,0.2064,0.2379,0.2537,0.2739,0.2875,0.2897,0.2897,0.2897,0.2897,0.2897,0.2897,0.2897,0.2897,0.2897,0.2897,0.3075,0.3387,0.3965,0.4587,0.5275,0.6716,0.7874,0.852,0.8718,0.874,0.8656,0.8889,0.8977,0.8823,0.8802,0.8802,0.878,0.8384,0.7782,0.725,0.676,0.6273,0.563,0.5808,0.5919,0.5364,0.5255,0.4875,0.3987,0.3853,0.3542,0.3097,0.2942,0.2897,0.2897,0.2897,0.2897,0.2897,0.2897,0.2897,0.2897,0.2897,0.2897,0.2897,0.2897,0.256,0.193,0.1256,0.0448,-0.0471,-0.1166,-0.1256,-0.148,-0.1525,-0.157,-0.1592,-0.1211,-0.0583,0.0471,0.1907,0.256,0.283,0.2897,0.2897,0.2897,0.2897,0.2897,-1.1389,-1.0542,-1.0384,-0.9998,-0.9388,-0.8631,-0.8108,-0.7888,-0.7109,-0.6451,-0.5819,-0.55,-0.5131,-0.4464,-0.4338,-0.4306,-0.4297,-0.4297,-0.4297,-0.4297,-0.4297,-0.4297,-0.4297,-0.4297,-0.4255,-0.4119,-0.2148,-0.0806,-0.0045,0.1099,0.166,0.157,0.1952,0.22,0.2244,0.2649,0.2875,0.2897,0.2897,0.2897,0.2897,0.2897,0.2897,0.2897,0.29,0.2949,0.2991,0.2988,0.3387,0.4121,0.4409,0.5255,0.6855,0.794,0.8568,0.859,0.8612,0.8608,0.8612,0.8634,0.8678,0.8634,0.8608,0.8634,0.8524,0.7896,0.7275,0.6874,0.6251,0.5408,0.4543,0.4389,0.4411,0.43,0.4297,0.392,0.3253,0.2941,0.292,0.2897,0.2897,0.2897,0.2897,0.2897,0.2897,0.2852,0.2852,0.2852,0.283,0.283,0.2875,0.2852,0.2807,0.2537,0.2132,0.1683,0.0852,0.0022,-0.0561,-0.0964,-0.1436,-0.1637,-0.1728,-0.1705,-0.0964,-0.0314,0.0448,0.1795,0.2604,0.2897,0.2897,0.2897,0.2897,0.2897,0.2897,-1.181,-1.1419,-1.0679,-1.0284,-0.993,-0.8849,-0.8268,-0.803,-0.7233,-0.6407,-0.5673,-0.5541,-0.5117,-0.4493,-0.4371,-0.4359,-0.4302,-0.4297,-0.43,-0.4304,-0.43,-0.4297,-0.4297,-0.4297,-0.4121,-0.3561,-0.1969,-0.0896,-0.0247,0.1076,0.1728,0.1773,0.2019,0.2267,0.2401,0.2716,0.2897,0.2897,0.2897,0.2897,0.2897,0.2897,0.2897,0.2901,0.2956,0.3273,0.3998,0.3927,0.4011,0.4371,0.5542,0.6805,0.7922,0.8432,0.8594,0.8616,0.8616,0.8616,0.8616,0.8594,0.8598,0.8616,0.8616,0.8616,0.8616,0.8278,0.7477,0.6432,0.583,0.5099,0.3743,0.3342,0.3387,0.3344,0.3342,0.3297,0.2985,0.2897,0.2897,0.2897,0.2897,0.2897,0.2897,0.2897,0.2807,0.2672,0.2627,0.2627,0.2627,0.2627,0.2627,0.2627,0.2582,0.256,0.22,0.1952,0.1458,0.0718,0.009,-0.065,-0.1189,-0.1503,-0.1637,-0.1368,-0.0628,0.0067,0.083,0.1637,0.256,0.2897,0.2897,0.2897,0.2897,0.2897,0.2897,-1.2175,-1.1907,-1.1071,-1.0379,-0.9813,-0.8528,-0.7733,-0.7275,-0.6493,-0.5804,-0.5312,-0.522,-0.4962,-0.4563,-0.4462,-0.4455,-0.4404,-0.4424,-0.4422,-0.4406,-0.4318,-0.43,-0.4297,-0.4297,-0.3829,-0.3001,-0.1812,-0.085,-0.0135,0.0987,0.166,0.1705,0.193,0.2155,0.2379,0.2627,0.2785,0.2875,0.2897,0.2897,0.2901,0.2916,0.2951,0.2936,0.3007,0.3568,0.4494,0.4812,0.5147,0.5713,0.7053,0.8125,0.8718,0.8771,0.8786,0.879,0.8767,0.8794,0.8782,0.8737,0.8684,0.868,0.8627,0.8616,0.8524,0.8366,0.7272,0.6055,0.5344,0.4545,0.3253,0.2897,0.2897,0.2897,0.2942,0.2897,0.2897,0.2897,0.2897,0.2897,0.2897,0.2897,0.2897,0.2785,0.2716,0.2537,0.2446,0.2379,0.2379,0.2401,0.2379,0.2379,0.2379,0.2334,0.2244,0.2109,0.1997,0.1413,0.0762,-0.009,-0.0807,-0.0919,-0.1031,-0.0471,0.0202,0.0762,0.148,0.2155,0.2897,0.2897,0.2897,0.2897,0.2897,0.2897,0.292,-1.2492,-1.2005,-1.1468,-1.0522,-0.9291,-0.7928,-0.6958,-0.6044,-0.5199,-0.4843,-0.4744,-0.4763,-0.4667,-0.4607,-0.4579,-0.4567,-0.4591,-0.4596,-0.459,-0.4529,-0.4435,-0.4332,-0.4302,-0.4297,-0.3649,-0.2484,-0.17,-0.0717,0.0404,0.1099,0.1413,0.1458,0.1705,0.193,0.2155,0.2379,0.2604,0.2807,0.2858,0.2863,0.291,0.2982,0.301,0.3035,0.3232,0.3788,0.4804,0.5873,0.6814,0.7701,0.8466,0.8923,0.9076,0.9096,0.906,0.9047,0.9084,0.9064,0.9043,0.8922,0.884,0.8828,0.872,0.8602,0.8539,0.7959,0.7051,0.5855,0.5053,0.4121,0.3232,0.2897,0.2897,0.2897,0.2897,0.2897,0.2897,0.2897,0.2897,0.2897,0.2897,0.2875,0.2852,0.2649,0.2515,0.2379,0.2267,0.2177,0.2177,0.2177,0.2177,0.2177,0.2155,0.2064,0.1952,0.1885,0.1795,0.157,0.1076,0.0471,-0.0336,-0.0493,-0.0471,0.0157,0.083,0.1436,0.1952,0.247,0.283,0.2897,0.2897,0.2897,0.2897,0.2897,0.292,-1.2716,-1.2546,-1.2005,-1.1135,-0.9948,-0.8442,-0.7204,-0.6234,-0.5186,-0.4771,-0.4767,-0.4752,-0.4724,-0.4677,-0.4673,-0.4663,-0.4619,-0.4603,-0.4619,-0.4591,-0.4556,-0.4418,-0.4322,-0.43,-0.3721,-0.2669,-0.1775,-0.0851,0.0179,0.1056,0.1391,0.1413,0.1637,0.1817,0.193,0.2156,0.2379,0.2588,0.2646,0.2777,0.2946,0.3018,0.307,0.3148,0.3826,0.4756,0.5927,0.7681,0.862,0.8691,0.8933,0.9096,0.9116,0.9116,0.9129,0.9129,0.9116,0.9104,0.9096,0.9056,0.9023,0.9011,0.8834,0.8759,0.8751,0.8434,0.7377,0.6163,0.5408,0.4632,0.332,0.2897,0.2897,0.2897,0.2897,0.2897,0.2897,0.2897,0.2897,0.2897,0.2897,0.283,0.2672,0.2537,0.2357,0.2109,0.1974,0.1907,0.1907,0.1907,0.1907,0.1907,0.1885,0.1773,0.166,0.1615,0.157,0.1525,0.1256,0.0987,0.0269,-0.0202,-0.009,0.0224,0.1076,0.1728,0.2019,0.2401,0.2627,0.2897,0.2897,0.2897,0.2897,0.2897,0.2897,-1.254,-1.2141,-1.2024,-1.1179,-0.9817,-0.8538,-0.7204,-0.5937,-0.5135,-0.4782,-0.4782,-0.4782,-0.4783,-0.4763,-0.4736,-0.4734,-0.4687,-0.4681,-0.4685,-0.4677,-0.4669,-0.4549,-0.4444,-0.4414,-0.37,-0.2344,-0.1745,-0.0686,0.0501,0.1204,0.1403,0.1438,0.1548,0.1683,0.1819,0.1948,0.2137,0.2351,0.2412,0.2508,0.2651,0.2745,0.3082,0.3411,0.4242,0.5243,0.6953,0.8678,0.9494,0.934,0.9328,0.9324,0.9319,0.9296,0.9319,0.9319,0.9324,0.93,0.9303,0.9254,0.9229,0.9197,0.9039,0.8909,0.8828,0.87,0.7853,0.6038,0.5744,0.4743,0.3365,0.2897,0.2897,0.2897,0.2897,0.2897,0.2897,0.2897,0.2897,0.2897,0.2897,0.2807,0.2537,0.2424,0.2177,0.1907,0.1728,0.166,0.1637,0.1637,0.166,0.1682,0.1682,0.1592,0.1548,0.1503,0.1503,0.1436,0.1391,0.1166,0.0874,0.0336,0.0673,0.0987,0.1525,0.193,0.2222,0.247,0.2716,0.2897,0.2897,0.2897,0.2875,0.2897,0.2897,-1.2014,-1.1072,-1.1551,-1.0739,-0.9103,-0.8266,-0.698,-0.5489,-0.5037,-0.486,-0.4834,-0.4834,-0.4803,-0.4782,-0.4768,-0.4776,-0.4799,-0.4781,-0.4791,-0.4767,-0.4724,-0.4669,-0.463,-0.4572,-0.3451,-0.1891,-0.1521,-0.0353,0.0884,0.1462,0.1472,0.1437,0.1429,0.1538,0.1686,0.1774,0.1924,0.212,0.2202,0.2248,0.2304,0.2409,0.2775,0.3448,0.435,0.5807,0.7604,0.9002,0.9509,0.955,0.9575,0.9567,0.96,0.9587,0.9583,0.9567,0.9547,0.9555,0.9592,0.9474,0.9404,0.938,0.9246,0.9064,0.8942,0.8811,0.7926,0.5944,0.573,0.4766,0.3342,0.2897,0.2897,0.2897,0.2875,0.2852,0.2875,0.2875,0.2897,0.2875,0.2852,0.2716,0.2492,0.2267,0.2064,0.1728,0.157,0.1525,0.1503,0.1503,0.1503,0.148,0.1458,0.1436,0.1413,0.1413,0.1413,0.1413,0.1413,0.1323,0.1346,0.1189,0.1592,0.193,0.1952,0.2132,0.2446,0.2694,0.2807,0.2763,0.2694,0.2761,0.2852,0.2875,0.2897,-1.093,-0.9953,-1.0076,-0.9382,-0.8319,-0.7851,-0.6983,-0.5817,-0.5315,-0.5112,-0.5062,-0.491,-0.4809,-0.4782,-0.4782,-0.4782,-0.4782,-0.4782,-0.4782,-0.478,-0.4795,-0.4775,-0.4718,-0.46,-0.341,-0.1932,-0.15,-0.0404,0.1042,0.1492,0.149,0.1482,0.1474,0.1506,0.1552,0.1603,0.1706,0.1926,0.2005,0.2122,0.2201,0.228,0.2527,0.3103,0.4564,0.6445,0.8177,0.9055,0.9282,0.9335,0.9459,0.955,0.9603,0.9599,0.9599,0.9599,0.9599,0.9599,0.9591,0.9559,0.9563,0.951,0.9348,0.9307,0.9258,0.8943,0.7894,0.6382,0.5776,0.4857,0.3209,0.2897,0.2852,0.2807,0.2694,0.2582,0.2627,0.2761,0.2761,0.2627,0.2582,0.2446,0.2042,0.1974,0.1795,0.1548,0.1458,0.1413,0.1413,0.1413,0.1413,0.1413,0.1413,0.1413,0.1413,0.1413,0.1413,0.1413,0.1413,0.1413,0.1436,0.148,0.1683,0.1885,0.2042,0.2289,0.247,0.2537,0.2582,0.2515,0.2515,0.2627,0.2739,0.2807,0.3142,-0.9801,-0.8941,-0.9386,-0.8991,-0.8049,-0.7677,-0.6986,-0.6064,-0.5589,-0.5315,-0.519,-0.5037,-0.491,-0.4782,-0.4782,-0.4782,-0.4782,-0.4782,-0.4782,-0.4782,-0.4782,-0.4782,-0.4624,-0.4134,-0.3056,-0.1711,-0.1542,-0.039,0.1042,0.1545,0.1515,0.1503,0.1504,0.1498,0.1506,0.154,0.1644,0.1723,0.1799,0.1867,0.1945,0.2007,0.2823,0.3875,0.5724,0.7599,0.8676,0.8903,0.9006,0.9055,0.9154,0.9352,0.9554,0.9599,0.9599,0.9599,0.9599,0.9599,0.9603,0.9484,0.9402,0.941,0.9233,0.9199,0.914,0.8929,0.7897,0.6498,0.566,0.4921,0.3029,0.2716,0.2672,0.256,0.2446,0.2357,0.2379,0.2492,0.2537,0.2379,0.2357,0.2177,0.1952,0.1795,0.166,0.148,0.1458,0.1413,0.1413,0.1413,0.1413,0.1413,0.1413,0.1413,0.1413,0.1413,0.1413,0.1413,0.1413,0.1413,0.1413,0.1458,0.1525,0.1728,0.193,0.2086,0.2244,0.2289,0.2379,0.2446,0.2492,0.256,0.2694,0.2896,0.3387,-0.8743,-0.7826,-0.874,-0.8591,-0.7798,-0.7478,-0.6886,-0.6117,-0.5787,-0.5566,-0.5315,-0.5265,-0.5062,-0.491,-0.4809,-0.4809,-0.4782,-0.4782,-0.4782,-0.4782,-0.4782,-0.4782,-0.4576,-0.3789,-0.2757,-0.1688,-0.1305,-0.01,0.1137,0.1577,0.1568,0.1522,0.1518,0.1526,0.1526,0.1563,0.1603,0.1631,0.1625,0.1638,0.1638,0.1716,0.2748,0.4801,0.6531,0.7879,0.8453,0.8676,0.8726,0.8751,0.8775,0.9051,0.9327,0.9476,0.9476,0.9476,0.9426,0.9377,0.9352,0.9257,0.9158,0.9137,0.8973,0.8937,0.897,0.8744,0.775,0.6405,0.53,0.4206,0.2693,0.247,0.2401,0.2267,0.22,0.2155,0.2132,0.2132,0.2064,0.2132,0.2109,0.1974,0.1817,0.1682,0.1548,0.1458,0.1436,0.1413,0.1413,0.1413,0.1413,0.1413,0.1413,0.1413,0.1413,0.1413,0.1413,0.1413,0.1413,0.1413,0.1413,0.1436,0.148,0.1615,0.1795,0.193,0.1997,0.2042,0.2155,0.2334,0.2469,0.2536,0.2738,0.3008,0.3788,-0.7624,-0.6684,-0.6858,-0.6808,-0.6684,-0.6634,-0.6537,-0.6337,-0.6039,-0.5917,-0.5792,-0.5416,-0.5215,-0.5087,-0.4885,-0.4809,-0.4809,-0.4782,-0.4782,-0.4782,-0.4782,-0.4782,-0.4406,-0.35,-0.2519,-0.1588,-0.0731,0.0453,0.1307,0.1584,0.1598,0.1599,0.1571,0.1571,0.1571,0.1582,0.1579,0.1578,0.1588,0.1591,0.1592,0.1969,0.2773,0.4876,0.6381,0.7385,0.8059,0.8357,0.8482,0.8482,0.8676,0.8825,0.8903,0.8928,0.8952,0.9002,0.8998,0.9027,0.9002,0.8928,0.8878,0.8853,0.8779,0.8903,0.8975,0.8748,0.7695,0.595,0.4135,0.269,0.2333,0.2244,0.2244,0.2132,0.1974,0.1885,0.184,0.175,0.1705,0.184,0.184,0.1817,0.166,0.157,0.1503,0.1436,0.1413,0.1413,0.1413,0.1413,0.1413,0.1413,0.1413,0.1413,0.1413,0.1413,0.1413,0.1413,0.1413,0.1413,0.1413,0.1413,0.1458,0.1548,0.1615,0.1728,0.1773,0.1795,0.184,0.1952,0.2199,0.2557,0.3093,0.3697,0.4899,-0.688,-0.6412,-0.6412,-0.6412,-0.6412,-0.6412,-0.6412,-0.6387,-0.6262,-0.6117,-0.5969,-0.5719,-0.5443,-0.524,-0.5087,-0.496,-0.4834,-0.4782,-0.4782,-0.4782,-0.4782,-0.4431,-0.3929,-0.2897,-0.1813,-0.0731,0.0303,0.1009,0.1566,0.1591,0.1592,0.1591,0.1592,0.1592,0.1592,0.159,0.1592,0.1592,0.1592,0.1592,0.1768,0.2472,0.3925,0.4801,0.6306,0.7409,0.7836,0.8088,0.8187,0.8212,0.8311,0.8382,0.8407,0.8432,0.8531,0.8726,0.8775,0.8775,0.8751,0.8676,0.8577,0.8581,0.8506,0.8531,0.8647,0.838,0.745,0.5624,0.3663,0.2132,0.1997,0.1997,0.193,0.1795,0.166,0.1637,0.157,0.1458,0.1503,0.1592,0.1592,0.157,0.1503,0.1436,0.1413,0.1413,0.1413,0.1413,0.1413,0.1413,0.1413,0.1413,0.1413,0.1413,0.1413,0.1413,0.1413,0.1413,0.1413,0.1413,0.1413,0.1413,0.1413,0.1436,0.1503,0.157,0.1548,0.157,0.157,0.1705,0.2443,0.3112,0.3714,0.4516,0.5697,-0.6412,-0.6412,-0.6412,-0.6412,-0.6412,-0.6412,-0.6412,-0.6412,-0.6412,-0.6264,-0.6092,-0.5992,-0.5741,-0.5416,-0.524,-0.5062,-0.4809,-0.4782,-0.4782,-0.4734,-0.4456,-0.3929,-0.3123,-0.189,-0.0857,-0.0176,0.0934,0.1566,0.1592,0.1592,0.1592,0.1592,0.1592,0.1592,0.1592,0.1592,0.1592,0.1592,0.1592,0.1592,0.2095,0.3599,0.4799,0.4999,0.6858,0.7963,0.7988,0.8013,0.8038,0.8013,0.8038,0.8013,0.8013,0.7988,0.8212,0.8556,0.8655,0.8651,0.8581,0.8457,0.8308,0.8308,0.8141,0.8187,0.8054,0.7733,0.6756,0.5141,0.3222,0.1953,0.175,0.1728,0.1615,0.1503,0.1436,0.1413,0.1436,0.1413,0.1413,0.1436,0.1413,0.1413,0.1413,0.1413,0.1413,0.1413,0.1413,0.1413,0.1413,0.1413,0.1413,0.1413,0.1413,0.1413,0.1413,0.1413,0.1413,0.1413,0.1413,0.1413,0.1413,0.1413,0.1413,0.1413,0.1413,0.1458,0.1413,0.1413,0.1458,0.1883,0.2865,0.3667,0.4247,0.5225,0.6406,-0.6412,-0.6412,-0.6412,-0.6412,-0.6412,-0.6412,-0.6412,-0.6412,-0.6412,-0.6387,-0.6312,-0.6117,-0.5967,-0.5792,-0.5365,-0.5062,-0.4885,-0.4834,-0.4734,-0.4533,-0.3904,-0.3348,-0.2795,-0.1058,-0.0302,0.0302,0.1161,0.1516,0.1592,0.1592,0.1592,0.1592,0.1592,0.1592,0.1592,0.1592,0.1592,0.1592,0.1592,0.1592,0.1943,0.3673,0.4624,0.5352,0.6731,0.7988,0.7988,0.7988,0.7988,0.7988,0.7988,0.7988,0.7988,0.7988,0.8013,0.8088,0.8113,0.8084,0.8137,0.8137,0.8088,0.8088,0.8013,0.8137,0.7879,0.6668,0.5498,0.4838,0.2796,0.1662,0.1525,0.148,0.1436,0.1413,0.1413,0.1413,0.1413,0.1413,0.1413,0.1413,0.1413,0.1413,0.1413,0.1413,0.1413,0.1413,0.1413,0.1413,0.1413,0.1413,0.1413,0.1413,0.1413,0.1413,0.1413,0.1413,0.1413,0.1413,0.1413,0.1413,0.1413,0.1413,0.1413,0.1413,0.1458,0.1592,0.1726,0.1704,0.1525,0.2173,0.3309,0.4109,0.4754,0.5888,0.7161,-0.6412,-0.6412,-0.6412,-0.6412,-0.6412,-0.6412,-0.6412,-0.6412,-0.6412,-0.6412,-0.6387,-0.6287,-0.6139,-0.5939,-0.5589,-0.5288,-0.5062,-0.4987,-0.4531,-0.3977,-0.3324,-0.2518,-0.1385,-0.0453,0.0176,0.0908,0.1287,0.1541,0.1592,0.1592,0.1592,0.1592,0.1592,0.1592,0.1592,0.1592,0.1592,0.1592,0.1592,0.1592,0.212,0.3524,0.4799,0.4874,0.6905,0.7786,0.7988,0.7988,0.7988,0.7988,0.7988,0.7988,0.7988,0.7988,0.8013,0.8013,0.8013,0.8013,0.8013,0.7988,0.7988,0.7988,0.7982,0.8025,0.7623,0.6208,0.4814,0.4597,0.2643,0.1573,0.1413,0.1413,0.1413,0.1413,0.1413,0.1413,0.1413,0.1413,0.1413,0.1413,0.1413,0.1413,0.1413,0.1413,0.1413,0.1413,0.1413,0.1413,0.1413,0.1413,0.1413,0.1413,0.1413,0.1413,0.1413,0.1413,0.1413,0.1413,0.1413,0.1413,0.1413,0.1413,0.1548,0.1793,0.2017,0.2128,0.2173,0.2285,0.2352,0.3065,0.3842,0.4685,0.5551,0.6707,0.7757,-0.6412,-0.6412,-0.6412,-0.6412,-0.6412,-0.6412,-0.6412,-0.6412,-0.6412,-0.6412,-0.6412,-0.6387,-0.6237,-0.6014,-0.5789,-0.5536,-0.5263,-0.4964,-0.4257,-0.3475,-0.2543,-0.1461,-0.0479,0.0227,0.0858,0.1592,0.1515,0.1592,0.1592,0.1592,0.1592,0.1592,0.1592,0.1592,0.1592,0.1592,0.1592,0.1592,0.1592,0.1592,0.1969,0.3699,0.4549,0.5425,0.6653,0.7988,0.7988,0.7988,0.7988,0.7988,0.7914,0.7889,0.7963,0.7811,0.7789,0.7789,0.7789,0.7789,0.7867,0.7942,0.7988,0.7988,0.7925,0.7829,0.7194,0.5714,0.4432,0.412,0.2519,0.1596,0.1413,0.1413,0.1413,0.1413,0.1413,0.1413,0.1413,0.1413,0.1413,0.1413,0.1413,0.1413,0.1413,0.1413,0.1413,0.1413,0.1413,0.1436,0.1503,0.1569,0.1569,0.1614,0.1883,0.1749,0.1413,0.1413,0.1413,0.1436,0.1436,0.148,0.1547,0.1771,0.204,0.2286,0.2643,0.2977,0.3221,0.3245,0.329,0.3844,0.4487,0.5506,0.6483,0.7529,0.8113,-0.6412,-0.6412,-0.6412,-0.6412,-0.6412,-0.6412,-0.6412,-0.6412,-0.6412,-0.6412,-0.6412,-0.6387,-0.6237,-0.6014,-0.5842,-0.5664,-0.5459,-0.428,-0.3602,-0.2694,-0.146,-0.0479,0.0302,0.0883,0.1389,0.1566,0.1592,0.1592,0.1592,0.1592,0.1592,0.1592,0.1592,0.1592,0.1592,0.1592,0.1592,0.1592,0.1592,0.1592,0.2144,0.3425,0.4626,0.5225,0.6706,0.7988,0.7988,0.7939,0.7889,0.7889,0.7739,0.7718,0.7764,0.7537,0.7487,0.7565,0.7462,0.749,0.7615,0.7817,0.7988,0.7988,0.7723,0.7291,0.6716,0.5468,0.4334,0.3367,0.2125,0.155,0.1413,0.1413,0.1413,0.1413,0.1413,0.1413,0.1413,0.1413,0.1413,0.1413,0.1413,0.1413,0.1413,0.1413,0.1413,0.1413,0.1771,0.1816,0.1882,0.1949,0.1882,0.1994,0.242,0.2241,0.1525,0.1436,0.1502,0.1569,0.1592,0.1681,0.177,0.2084,0.2465,0.3089,0.3513,0.389,0.4289,0.4467,0.4579,0.4576,0.5132,0.6179,0.6801,0.7492,0.7937,-0.6412,-0.6412,-0.6412,-0.6412,-0.6412,-0.6412,-0.6412,-0.6412,-0.6412,-0.6412,-0.6412,-0.6387,-0.6337,-0.6089,-0.5463,-0.511,-0.4732,-0.3651,-0.2796,-0.1915,-0.0857,-0.005,0.0555,0.106,0.1415,0.1541,0.1566,0.1592,0.1592,0.1541,0.1592,0.1592,0.1541,0.1592,0.1592,0.1592,0.1592,0.1592,0.1592,0.1592,0.1893,0.2923,0.4124,0.4949,0.5877,0.711,0.7565,0.7562,0.7537,0.7487,0.7416,0.7466,0.7515,0.7263,0.7238,0.7338,0.721,0.7238,0.7366,0.7618,0.7817,0.7637,0.6921,0.6103,0.6019,0.4743,0.3736,0.2815,0.2028,0.1436,0.1413,0.1413,0.1413,0.1413,0.1413,0.1413,0.1413,0.1413,0.1413,0.1413,0.1413,0.1413,0.1413,0.1413,0.1413,0.1436,0.1861,0.224,0.2396,0.2618,0.2685,0.2597,0.2977,0.2732,0.2016,0.1793,0.1681,0.1816,0.1927,0.2194,0.2484,0.2486,0.2934,0.3647,0.4427,0.4892,0.5336,0.5736,0.578,0.5514,0.5983,0.6877,0.7323,0.7518,0.7764,-0.6412,-0.6412,-0.6412,-0.6412,-0.6412,-0.6412,-0.6412,-0.6412,-0.6412,-0.6412,-0.6412,-0.6412,-0.6412,-0.6112,-0.5311,-0.4782,-0.4203,-0.3071,-0.1914,-0.1109,-0.0454,0.0202,0.0808,0.1162,0.1263,0.1389,0.1465,0.1465,0.1313,0.1364,0.1313,0.1288,0.1364,0.1389,0.1592,0.1592,0.1592,0.1592,0.1516,0.1491,0.1616,0.2822,0.3699,0.4724,0.5804,0.6758,0.7313,0.7363,0.7285,0.7238,0.7163,0.7138,0.7113,0.7089,0.7036,0.7036,0.7011,0.7014,0.7116,0.7341,0.7568,0.7462,0.6254,0.5638,0.5069,0.4009,0.2992,0.2372,0.1749,0.1391,0.1391,0.1413,0.1413,0.1413,0.1413,0.1413,0.1413,0.1413,0.1413,0.1413,0.1413,0.1413,0.1413,0.1458,0.1749,0.1861,0.2285,0.2798,0.3242,0.351,0.3844,0.3688,0.36,0.3154,0.2575,0.273,0.2886,0.2998,0.3132,0.3264,0.342,0.3444,0.3736,0.4561,0.5317,0.5897,0.6229,0.6448,0.6384,0.6229,0.6745,0.719,0.7279,0.7411,0.7591,-0.6412,-0.6412,-0.6412,-0.6412,-0.6412,-0.6412,-0.6412,-0.6412,-0.6412,-0.6412,-0.6387,-0.6337,-0.6262,-0.5959,-0.4883,-0.423,-0.3775,-0.2191,-0.1109,-0.0782,-0.0101,0.0581,0.0808,0.096,0.101,0.0934,0.1061,0.1111,0.0909,0.096,0.0909,0.0909,0.0985,0.1111,0.1541,0.1592,0.1592,0.1541,0.1313,0.1237,0.1565,0.2797,0.3624,0.4475,0.5732,0.6689,0.7089,0.7113,0.7036,0.7014,0.6892,0.6889,0.7011,0.6711,0.6639,0.6767,0.6589,0.6564,0.6742,0.7014,0.7039,0.6861,0.5575,0.4821,0.4229,0.3269,0.2274,0.1657,0.1371,0.1346,0.1368,0.1391,0.1368,0.1413,0.1413,0.1413,0.1413,0.1413,0.1413,0.1368,0.1368,0.1413,0.1413,0.1525,0.1995,0.2353,0.2732,0.3223,0.371,0.4532,0.4934,0.4401,0.4158,0.4002,0.3667,0.3911,0.4089,0.42,0.4223,0.4221,0.451,0.4759,0.5139,0.5653,0.6052,0.6542,0.6808,0.7051,0.6852,0.6675,0.683,0.7143,0.7209,0.7301,0.7459,-0.6412,-0.6412,-0.6412,-0.6412,-0.6412,-0.6412,-0.6412,-0.6412,-0.6412,-0.6387,-0.6237,-0.5709,-0.5334,-0.4832,-0.3649,-0.2796,-0.2444,-0.1412,-0.0404,0.0,0.0,0.0328,0.053,0.0657,0.0732,0.0808,0.0909,0.0909,0.0808,0.0732,0.0783,0.0783,0.0732,0.0884,0.101,0.1086,0.1061,0.1061,0.0985,0.096,0.1111,0.2244,0.3274,0.3924,0.5231,0.6214,0.6789,0.6714,0.6764,0.6739,0.6592,0.6639,0.6711,0.6412,0.6464,0.6539,0.6362,0.6062,0.5739,0.5586,0.5782,0.5427,0.4616,0.3553,0.2965,0.2035,0.1362,0.1079,0.1016,0.1057,0.1144,0.1189,0.1211,0.1368,0.1413,0.1413,0.1413,0.1413,0.1391,0.1301,0.1279,0.1346,0.1368,0.1637,0.2085,0.282,0.3267,0.3267,0.3645,0.5201,0.609,0.5114,0.4625,0.4692,0.4759,0.489,0.5068,0.5181,0.5048,0.489,0.527,0.5805,0.6071,0.6318,0.6719,0.7117,0.7117,0.7117,0.7117,0.7095,0.7117,0.7117,0.7165,0.7209,0.7279,-0.6412,-0.6412,-0.6412,-0.6412,-0.6412,-0.6412,-0.6412,-0.6337,-0.6034,-0.5859,-0.5609,-0.4707,-0.4255,-0.3726,-0.2544,-0.1588,-0.1462,-0.0505,0.0,0.0,0.0,0.0,0.0252,0.0353,0.0429,0.0556,0.0606,0.0606,0.048,0.0505,0.048,0.0455,0.0,0.048,0.0581,0.0657,0.0833,0.0833,0.0758,0.0682,0.0959,0.1639,0.2469,0.3247,0.4304,0.5413,0.5937,0.6237,0.6412,0.6412,0.6412,0.6412,0.6412,0.6412,0.6412,0.6387,0.5912,0.5534,0.506,0.4358,0.4377,0.3946,0.2744,0.2271,0.2036,0.1372,0.0969,0.0741,0.0681,0.0788,0.0919,0.0964,0.1031,0.1189,0.1189,0.1189,0.1166,0.1166,0.1144,0.1076,0.1054,0.1166,0.1391,0.1816,0.2196,0.2999,0.3777,0.3734,0.3825,0.5425,0.6782,0.6049,0.5514,0.5692,0.5736,0.5711,0.5913,0.6141,0.596,0.5692,0.6049,0.6542,0.6764,0.6896,0.7029,0.7117,0.7117,0.7117,0.7117,0.7117,0.7117,0.7117,0.7117,0.7143,0.7209,-0.6412,-0.6412,-0.6412,-0.6412,-0.6412,-0.6287,-0.6262,-0.6237,-0.5258,-0.4834,-0.4684,-0.3626,-0.3173,-0.2946,-0.1965,-0.1437,-0.1261,-0.0353,0.0,0.0,0.0,0.0,0.0,0.0252,0.0227,0.0202,0.0227,0.0303,0.0,0.0,0.0,0.0,0.0,0.0,0.0,0.0429,0.0631,0.0581,0.048,0.0404,0.0606,0.1236,0.1765,0.2569,0.3726,0.4732,0.5386,0.5837,0.6262,0.6412,0.6412,0.6412,0.6412,0.6412,0.6412,0.6062,0.5309,0.4958,0.4205,0.3426,0.2696,0.2191,0.1713,0.167,0.1501,0.0895,0.0569,0.0511,0.0525,0.061,0.0695,0.0718,0.074,0.0785,0.0807,0.0785,0.0785,0.0785,0.0762,0.074,0.074,0.0874,0.1256,0.1681,0.2374,0.2731,0.3554,0.4423,0.4714,0.5805,0.6871,0.6962,0.665,0.6852,0.6782,0.6448,0.6492,0.6628,0.6764,0.6628,0.7007,0.7032,0.7007,0.7007,0.7073,0.7117,0.7117,0.7117,0.7117,0.7117,0.7117,0.7117,0.7117,0.7117,0.7139,-0.6412,-0.6412,-0.6412,-0.6412,-0.6287,-0.5586,-0.5261,-0.5211,-0.486,-0.4431,-0.3575,-0.2519,-0.2067,-0.194,-0.0933,0.0,0.0,0.0,0.0,0.0,0.0,0.0,0.0,0.0,0.0,0.0,0.0,0.0,0.0,0.0,0.0,0.0,0.0,0.0,0.0,0.0,0.0,0.0,0.0,0.0,0.0,0.1009,0.1336,0.2016,0.3399,0.4305,0.4757,0.5609,0.6084,0.6312,0.6362,0.6387,0.6412,0.6362,0.6237,0.5336,0.4784,0.4255,0.2846,0.2242,0.1664,0.0,0.0,0.0,0.0447,0.0,0.0,0.0,0.0,0.0362,0.0427,0.0471,0.0516,0.0561,0.0561,0.0583,0.0583,0.0561,0.0561,0.0494,0.0493,0.0718,0.1099,0.2015,0.2642,0.273,0.3331,0.4512,0.5425,0.6428,0.694,0.7073,0.7117,0.7117,0.7117,0.6849,0.6962,0.7073,0.7117,0.7117,0.7095,0.7073,0.7095,0.7117,0.7117,0.7117,0.7117,0.7117,0.7117,0.7117,0.7117,0.7117,0.7117,0.7117,0.7117,-0.6412,-0.6337,-0.5937,-0.5534,-0.5056,-0.4431,-0.3952,-0.3602,-0.3525,-0.3123,-0.2494,-0.1438,-0.0984,-0.0883,0.0,0.0,0.0,0.0,0.0,0.0,0.0,0.0,0.0,0.0,0.0,0.0,0.0,0.0,0.0,0.0,0.0,0.0,0.0,0.0,0.0,0.0,0.0,0.0,0.0,0.0,0.0,0.0,0.0,0.1361,0.2871,0.3426,0.3753,0.4703,0.5281,0.5659,0.5759,0.6037,0.6187,0.6387,0.5912,0.5035,0.4255,0.3651,0.262,0.1438,0.0757,0.0,0.0,0.0,0.0,0.0,0.0,0.0,0.0,0.0068,0.0158,0.0247,0.0314,0.0381,0.0381,0.0404,0.0404,0.0404,0.0359,0.0292,0.0381,0.0605,0.1233,0.2216,0.313,0.3599,0.4378,0.5539,0.6138,0.6605,0.6985,0.7095,0.7117,0.7117,0.7117,0.7117,0.7117,0.7117,0.7117,0.7117,0.7117,0.7117,0.7117,0.7117,0.7117,0.7117,0.7117,0.7117,0.7117,0.7117,0.7117,0.7117,0.7117,0.7117,0.7117,-0.6337,-0.6137,-0.511,-0.4079,-0.3148,-0.3073,-0.2495,-0.1538,-0.1563,-0.1487,-0.1286,-0.0454,0.0,0.0,0.0,0.0,0.0,0.0,0.0,0.0,0.0,0.0,0.0,0.0,0.0,0.0,0.0,0.0,0.0,0.0,0.0,0.0,0.0,0.0,0.0,0.0,0.0,0.0,0.0,0.0,0.0,0.0,0.0,0.0,0.111,0.1815,0.2041,0.2695,0.3627,0.4331,0.4782,0.5158,0.5534,0.6062,0.5486,0.4504,0.345,0.2821,0.2016,0.0984,0.0,0.0,0.0,0.0,0.0,0.0,0.0,0.0,0.0,0.0,0.0,0.0,0.0,0.0,0.0,0.0,0.0,0.0,0.0,0.0,0.0202,0.0449,0.0852,0.1791,0.273,0.3864,0.5092,0.6185,0.6631,0.6808,0.7007,0.7117,0.7117,0.7117,0.7117,0.7117,0.7117,0.7117,0.7117,0.7117,0.7117,0.7117,0.7117,0.7117,0.7117,0.7117,0.7117,0.7117,0.7117,0.7117,0.7117,0.7117,0.7117,0.7117,0.7117,-0.5909,-0.5085,-0.4028,-0.2972,-0.2042,-0.1965,-0.1387,-0.0404,-0.0379,0.0,0.0,0.0,0.0,0.0,0.0,0.0,0.0,0.0,0.0,0.0,0.0,0.0,0.0,0.0,0.0,0.0,0.0,0.0,0.0,0.0,0.0,0.0,0.0,0.0,0.0,0.0,0.0,0.0,0.0,0.0,0.0,0.0,0.0,0.0,0.0908,0.1387,0.1789,0.2494,0.3123,0.3577,0.3575,0.3751,0.3927,0.4732,0.4128,0.2746,0.2267,0.1865,0.1261,0.0,0.0,0.0,0.0,0.0,0.0,0.0,0.0,0.0,0.0,0.0,0.0,0.0,0.0,0.0,0.0,0.0,0.0,0.0,0.0,0.0,0.0,0.0359,0.0718,0.1478,0.2304,0.351,0.4892,0.5919,0.6318,0.6605,0.6985,0.7117,0.7117,0.7117,0.7117,0.7117,0.7117,0.7117,0.7117,0.7117,0.7117,0.7117,0.7117,0.7117,0.7117,0.7117,0.7117,0.7117,0.7117,0.7117,0.7117,0.7117,0.7117,0.7117,0.7117,-0.463,-0.3979,-0.2922,-0.1891,-0.1009,-0.0883,-0.053,0.0,0.0,0.0,0.0,0.0,0.0,0.0,0.0,0.0,0.0,0.0,0.0,0.0,0.0,0.0,0.0,0.0,0.0,0.0,0.0,0.0,0.0,0.0,0.0,0.0,0.0,0.0,0.0,0.0,0.0,0.0,0.0,0.0,0.0,0.0,0.0,0.0,0.0,0.0,0.1034,0.1563,0.1965,0.2544,0.2947,0.2771,0.2997,0.3525,0.3173,0.2217,0.1613,0.1336,0.0732,0.0,0.0,0.0,0.0,0.0,0.0,0.0,0.0,0.0,0.0,0.0,0.0,0.0,0.0,0.0,0.0,0.0,0.0,0.0,0.0,0.0,0.0,0.0247,0.0896,0.2168,0.3016,0.3909,0.5206,0.6163,0.6473,0.6539,0.6896,0.7117,0.7117,0.7117,0.7117,0.7117,0.7117,0.7117,0.7117,0.7117,0.7117,0.7117,0.7117,0.7117,0.7117,0.7117,0.7117,0.7117,0.7117,0.7117,0.7117,0.7117,0.7117,0.7117,0.7117,-0.3173,-0.2846,-0.184,-0.0883,0.0,0.0,0.0,0.0,0.0,0.0,0.0,0.0,0.0,0.0,0.0,0.0,0.0,0.0,0.0,0.0,0.0,0.0,0.0,0.0,0.0,0.0,0.0,0.0,0.0,0.0,0.0,0.0,0.0,0.0,0.0,0.0,0.0,0.0,0.0,0.0,0.0,0.0,0.0,0.0,0.0,0.0,0.0,0.0,0.0,0.1336,0.2192,0.2042,0.2016,0.2343,0.2091,0.1487,0.1135,0.111,0.0958,0.0,0.0,0.0,0.0,0.0,0.0,0.0,0.0,0.0,0.0,0.0,0.0,0.0,0.0,0.0,0.0,0.0,0.0,0.0,0.0,0.0,0.0,0.0,0.1143,0.246,0.3528,0.4443,0.5425,0.6381,0.7007,0.6896,0.7007,0.7117,0.7117,0.7117,0.7117,0.7117,0.7117,0.7117,0.7117,0.7117,0.7117,0.7117,0.7117,0.7117,0.7117,0.7117,0.7117,0.7117,0.7117,0.7117,0.7117,0.7117,0.7117,0.7117,0.7117,-0.267,-0.1815,-0.0732,0.0,0.0,0.0,0.0,0.0,0.0,0.0,0.0,0.0,0.0,0.0,0.0,0.0,0.0,0.0,0.0,0.0,0.0,0.0,0.0,0.0,0.0,0.0,0.0,0.0,0.0,0.0,0.0,0.0,0.0,0.0,0.0,0.0,0.0,0.0,0.0,0.0,0.0,0.0,0.0,0.0,0.0,0.0,0.0,0.0,0.0,0.0555,0.121,0.116,0.116,0.1286,0.1211,0.0,0.0,0.0,0.0,0.0,0.0,0.0,0.0,0.0,0.0,0.0,0.0,0.0,0.0,0.0,0.0,0.0,0.0,0.0,0.0,0.0,0.0,0.0,0.0,0.0,0.0,0.0383,0.0788,0.2063,0.3285,0.4267,0.5381,0.6318,0.7051,0.7095,0.7117,0.7117,0.7117,0.7117,0.7117,0.7117,0.7117,0.7117,0.7117,0.7117,0.7117,0.7117,0.7117,0.7117,0.7117,0.7117,0.7117,0.7117,0.7117,0.7117,0.7117,0.7117,0.7117,0.7117,0.7117]},{"header":{"parameterUnit":"m.s-1","parameterCategory":1,"la1":31.0,"la2":29.5877,"lo1":-88.7671,"lo2":-86.6584,"dy":0.0162,"dx":0.0185,"nx":115,"ny":88,"refTime":"2023-09-13T12:00:00:Z","depth":0,"parameterNumber":3,"parameterNumberName":"V-component_of_WINDS"},"data":[0.0,0.0,0.0,0.0,0.0,0.0,0.0,0.0,0.0,0.0,0.0,0.0,0.0,0.0,0.0,0.0,0.0,0.0,0.0,0.0,0.0,0.0,0.0,0.0,0.0,0.0,0.0,0.0,0.0,0.0,0.0,0.0,0.0,0.0,0.0,0.0,0.0,0.0,0.0,0.0,0.0,0.0,0.0,0.0,0.0,0.0,0.0,0.0,0.0,0.0,0.0,0.0,0.0,0.0,0.0,0.0,0.0,0.0,0.0,0.0,0.0,0.0,0.0,0.0,0.0,0.0,0.0,0.0,0.0,0.0,0.0,0.0,0.0,0.0,0.0,0.0,0.0,0.0,0.0,0.0,0.0,0.0,0.0,0.0,0.0,0.0,0.0,0.0,0.0,0.0,0.0,0.0,0.0,0.0,0.0,0.0,0.0,0.0,0.0,0.0,0.0,0.0,0.0,0.0,0.0,0.0,0.0,0.0,0.0,0.0,0.0,0.0,0.0,0.0,0.0,0.0,0.0,0.0,0.0,0.0,0.0,0.0,0.0,0.0,0.0,0.0,0.0,0.0,0.0,0.0,0.0,0.0,0.0,0.0,0.0,0.0,0.0,0.0,0.0,0.0,0.0,0.0,0.0,0.0,0.0,0.0,0.0,0.0,0.0,0.0,0.0,0.0,0.0,0.0,0.0,0.0,0.0,0.0,0.0,0.0,0.0,0.0,0.0,0.0,0.0,0.0,0.0,0.0,0.0,0.0,0.0,0.0,0.0,0.0,0.0,0.0,0.0,0.0,0.0,0.0,0.0,0.0,0.0,0.0,0.0,0.0,0.0,0.0,0.0,0.0,0.0,0.0,0.0,0.0,0.0,0.0,0.0,0.0,0.0,0.0,0.0,0.0,0.0,0.0,0.0,0.0,0.0,0.0,0.0,0.0,0.0,0.0,0.0,0.0,0.0,0.0,0.0,0.0,0.0,0.0,0.0,0.0,0.0,0.0,0.0,0.0,0.0,0.0,0.0,0.0,0.0,0.0,0.0,0.0,0.0,0.0,0.0,0.0,0.0,0.0,0.0,0.0,0.0,0.0,0.0,0.0,0.0,0.0,0.0,0.0,0.0,0.0,0.0,0.0,0.0,0.0,0.0,0.0,0.0,0.0,0.0,0.0,0.0,0.0,0.0,0.0,0.0,0.0,0.0,0.0,0.0,0.0,0.0,0.0,0.0,0.0,0.0,0.0,0.0,0.0,0.0,0.0,0.0,0.0,0.0,0.0,0.0,0.0,0.0,0.0,0.0,0.0,0.0,0.0,0.0,0.0,0.0,0.0,0.0,0.0,0.0,0.0,0.0,0.0,0.0,0.0,0.0,0.0,0.0,0.0,0.0,0.0,0.0,0.0,0.0,0.0,0.0,0.0,0.0,0.0,0.0,0.0,0.0,0.0,0.0,0.0,0.0,0.0,0.0,0.0,0.0,0.0,0.0,0.0,0.0,0.0,0.0,0.0,0.0,0.0,0.0,0.0,0.0,0.0,0.0,0.0,0.0,0.0,0.0,0.0,0.0,0.0,0.0,0.0,0.0,0.0,0.0,0.0,0.0,0.0,0.0,0.0,0.0,0.0,0.0,0.0,0.0,0.0,0.0,0.0,0.0,0.0,0.0,0.0,0.0,0.0,0.0,0.0,0.0,0.0,0.0,0.0,0.0,0.0,0.0,0.0,0.0,0.0,0.0,0.0,0.0,0.0,0.0,0.0,0.0,0.0,0.0,0.0,0.0,0.0,0.0,0.0,0.0,0.0,0.0,0.0,0.0,0.0,0.0,0.0,0.0,0.0,0.0,0.0,0.0,0.0,0.0,0.0,0.0,0.0,0.0,0.0,0.0,0.0,0.0,0.0,0.0,0.0,0.0,0.0,0.0,0.0,0.0,0.0,0.0,0.0,0.0,0.0,0.0,0.0,0.0,0.0,0.0,0.0,0.0,0.0,0.0,0.0,0.0,0.0,0.0,0.0,0.0,0.0,0.0,0.0,0.0,0.0,0.0,0.0,0.0,0.0,0.0,0.0,0.0,0.0,0.0,0.0,0.0,0.0,0.0,0.0,0.0,0.0,0.0,0.0,0.0,0.0,0.0,0.0,0.0,0.0,0.0,0.0,0.0,0.0,0.0,0.0,0.0,0.0,0.0,0.0,0.0,0.0,0.0,0.0,0.0,0.0,0.0,0.0,0.0,0.0,0.0,0.0,0.0,0.0,0.0,0.0,0.0,0.0,0.0,0.0,0.0,0.0,0.0,0.0,0.0,0.0,0.0,0.0,0.0,0.0,0.0,0.0,0.0,0.0,0.0,0.0,0.0,0.0,0.0,0.0,0.0,0.0,0.0,0.0,0.0,0.0,0.0,0.0,0.0,0.0,0.0,0.0,0.0,0.0,0.0,0.0,0.0,0.0,0.0,0.0,0.0,0.0,0.0,0.0,0.0,0.0,0.0,0.0,0.0,0.0,0.0,0.0,0.0,0.0,0.0,0.0,0.0,0.0,0.0,0.0,0.0,0.0,0.0,0.0,0.0,0.0,0.0,0.0,0.0,0.0,0.0,0.0,0.0,0.0,0.0,0.0,0.0,0.0,0.0,0.0,0.0,0.0,0.0,0.0,0.0,0.0,0.0,0.0,0.0,0.0,0.0,0.0,0.0,0.0,0.0,0.0,0.0,0.0,0.0,0.0,0.0,0.0,0.0,0.0,0.0,0.0,0.0,0.0,0.0,0.0,0.0,0.0,0.0,0.0,0.0,0.0,0.0,0.0,0.0,0.0,0.0,0.0,0.0,0.0,0.0,0.0,0.0,0.0,0.0,0.0,0.0,0.0,0.0,0.0,0.0,0.0,0.0,0.0,0.0,0.0,0.0,0.0,0.0,0.0,0.0,0.0,0.0,0.0,0.0,0.0,0.0,0.0,0.0,0.0,0.0,0.0,0.0,0.0,0.0,0.0,0.0,0.0,0.0,0.0,0.0,0.0,0.0,0.0,0.0,0.0,0.0,0.0,0.0,0.0,0.0,0.0,0.0,0.0,0.0,0.0,0.0,0.0,0.0,0.0,0.0,0.0,0.0,0.0,0.0,0.0,0.0,0.0,0.0,0.0,0.0,0.0,0.0,0.0,0.0,0.0,0.0,0.0,0.0,0.0,0.0,0.0,0.0,0.0,0.0,0.0,0.0,0.0,0.0,0.0,0.0,0.0,0.0,0.0,0.0,0.0,0.0,0.0,0.0,0.0,0.0,0.0,0.0,0.0,0.0,0.0,0.0,0.0,0.0,0.0,0.0,0.0,0.0,0.0,0.0,0.0,0.0,0.0,0.0,0.0,0.0,0.0,0.0,0.0,0.0,0.0,0.0,0.0,0.0,0.0,0.0,0.0,0.0,0.0,0.0,0.0,0.0,0.0,0.0,0.0,0.0,0.0,0.0,0.0,0.0,0.0,0.0,0.0,0.0,0.0,0.0,0.0,0.0,0.0,0.0,0.0,0.0,0.0,0.0,0.0,0.0,0.0,0.0,0.0,0.0,0.0,0.0,0.0,0.0,0.0,0.0,0.0,0.0,0.0,0.0,0.0,0.0,0.0,0.0,0.0,0.0,0.0,0.0,0.0,0.0,0.0,0.0,0.0,0.0,0.0,0.0,0.0,0.0,0.0,0.0,0.0,0.0,0.0,0.0,0.0,0.0,0.0,0.0,0.0,0.0,0.0,0.0,0.0,0.0,0.0,0.0,0.0,0.0,0.0,0.0,0.0,0.0,0.0,0.0,0.0,0.0,0.0,0.0,0.0,0.0,0.0,0.0,0.0,0.0,0.0,0.0,0.0,0.0,0.0,0.0,0.0,0.0,0.0,0.0,0.0,0.0,0.0,0.0,0.0,0.0,0.0,0.0,0.0,0.0,0.0,0.0,0.0,0.0,0.0,0.0,0.0,0.0,0.0,0.0,0.0,0.0,0.0,0.0,0.0,0.0,0.0,0.0,0.0,0.0,0.0,0.0,0.0,0.0,0.0,0.0,0.0,0.0,0.0,0.0,0.0,0.0,0.0,0.0,0.0,0.0,0.0,0.0,0.0,0.0,0.0,0.0,0.0,0.0,0.0,0.0,0.0,0.0,0.0,0.0,0.0,0.0,0.0,0.0,0.0,0.0,0.0,0.0,0.0,0.0,0.0,0.0,0.0,0.0,0.0,0.0,0.0,0.0,0.0,0.0,0.0,0.0,0.0,0.0,0.0,0.0,0.0,0.0,0.0,0.0,0.0,1.9577,0.0,0.0,0.0,0.0,0.0,0.0,0.0,0.0,0.0,0.0,0.0,0.0,0.0,0.0,0.0,0.0,0.0,0.0,0.0,0.0,0.0,0.0,0.0,0.0,0.0,0.0,0.0,0.0,0.0,0.0,0.0,0.0,0.0,0.0,0.0,0.0,0.0,0.0,0.0,0.0,0.0,0.0,0.0,0.0,0.0,0.0,0.0,0.0,0.0,0.0,0.0,0.0,0.0,0.0,0.0,0.0,0.0,0.0,0.0,0.0,0.0,0.0,0.0,0.0,0.0,0.0,0.0,0.0,0.0,0.0,0.0,0.0,0.0,0.0,0.0,0.0,0.0,0.0,0.0,0.0,0.0,0.0,0.0,0.0,0.0,0.0,0.0,0.0,0.0,0.0,0.0,0.0,0.0,0.0,0.0,0.0,0.0,0.0,0.0,0.0,0.0,0.0,0.0,0.0,0.0,0.0,0.0,0.0,0.0,0.0,1.9247,1.9501,1.9431,1.945,1.9602,0.0,0.0,0.0,0.0,0.0,0.0,0.0,0.0,0.0,0.0,0.0,0.0,0.0,0.0,0.0,0.0,0.0,0.0,0.0,0.0,0.0,0.0,0.0,0.0,0.0,0.0,0.0,0.0,0.0,0.0,0.0,0.0,0.0,0.0,0.0,0.0,0.0,0.0,0.0,0.0,0.0,0.0,0.0,0.0,0.0,0.0,0.0,0.0,0.0,0.0,0.0,0.0,0.0,0.0,0.0,0.0,0.0,0.0,0.0,0.0,0.0,0.0,0.0,0.0,0.0,0.0,0.0,0.0,0.0,0.0,0.0,0.0,0.0,0.0,0.0,0.0,0.0,0.0,0.0,0.0,0.0,0.0,0.0,0.0,0.0,0.0,0.0,0.0,0.0,0.0,0.0,0.0,0.0,0.0,0.0,0.0,0.0,0.0,0.0,0.0,0.0,0.0,0.0,0.0,0.0,0.0,0.0,0.0,0.0,0.0,0.0,0.0,1.9597,1.9497,1.9598,0.0,0.0,0.0,0.0,0.0,0.0,0.0,0.0,0.0,0.0,0.0,0.0,0.0,0.0,0.0,0.0,0.0,0.0,0.0,0.0,0.0,0.0,0.0,0.0,0.0,0.0,0.0,0.0,0.0,0.0,0.0,0.0,0.0,0.0,0.0,0.0,0.0,0.0,0.0,0.0,0.0,0.0,0.0,0.0,0.0,0.0,0.0,0.0,0.0,0.0,0.0,0.0,0.0,0.0,0.0,0.0,0.0,0.0,0.0,0.0,0.0,0.0,0.0,0.0,0.0,0.0,0.0,0.0,0.0,0.0,0.0,0.0,0.0,0.0,0.0,0.0,0.0,0.0,0.0,0.0,0.0,0.0,0.0,0.0,0.0,0.0,0.0,0.0,0.0,0.0,0.0,0.0,0.0,0.0,0.0,0.0,0.0,0.0,0.0,0.0,0.0,0.0,0.0,0.0,0.0,0.0,0.0,0.0,0.0,0.0,1.9815,2.066,1.9984,0.0,1.9583,0.0,0.0,0.0,0.0,0.0,0.0,0.0,0.0,0.0,0.0,0.0,0.0,0.0,0.0,0.0,0.0,0.0,0.0,0.0,0.0,0.0,0.0,0.0,0.0,0.0,0.0,0.0,0.0,0.0,0.0,0.0,0.0,0.0,0.0,0.0,0.0,0.0,0.0,0.0,0.0,0.0,0.0,0.0,0.0,0.0,0.0,0.0,0.0,0.0,0.0,0.0,0.0,0.0,0.0,0.0,0.0,0.0,0.0,0.0,0.0,0.0,0.0,0.0,0.0,0.0,0.0,0.0,0.0,0.0,0.0,0.0,0.0,0.0,0.0,0.0,0.0,0.0,0.0,0.0,0.0,0.0,0.0,0.0,0.0,0.0,0.0,0.0,0.0,0.0,0.0,0.0,0.0,0.0,0.0,0.0,0.0,0.0,0.0,0.0,0.0,0.0,0.0,0.0,0.0,0.0,0.0,0.0,0.0,0.0,0.0,2.1119,2.151,2.1183,2.0812,0.0,0.0,0.0,0.0,0.0,0.0,0.0,0.0,0.0,0.0,0.0,0.0,0.0,0.0,0.0,0.0,0.0,0.0,0.0,0.0,0.0,0.0,0.0,0.0,0.0,0.0,0.0,0.0,0.0,0.0,0.0,0.0,0.0,0.0,0.0,0.0,0.0,0.0,0.0,0.0,0.0,0.0,0.0,0.0,0.0,0.0,0.0,0.0,0.0,0.0,0.0,0.0,0.0,0.0,0.0,0.0,0.0,0.0,0.0,0.0,0.0,0.0,0.0,0.0,0.0,0.0,0.0,0.0,0.0,0.0,0.0,0.0,0.0,0.0,0.0,0.0,0.0,0.0,0.0,0.0,0.0,0.0,0.0,0.0,0.0,0.0,0.0,0.0,0.0,0.0,0.0,0.0,0.0,0.0,0.0,0.0,0.0,0.0,0.0,0.0,0.0,0.0,0.0,0.0,0.0,0.0,0.0,0.0,0.0,0.0,2.2068,2.1996,2.1996,2.1996,2.1721,2.1165,0.0,0.0,0.0,0.0,0.0,0.0,0.0,0.0,0.0,0.0,0.0,0.0,0.0,0.0,0.0,0.0,0.0,0.0,0.0,0.0,0.0,0.0,0.0,0.0,0.0,0.0,0.0,0.0,0.0,0.0,0.0,0.0,0.0,0.0,0.0,0.0,0.0,0.0,0.0,0.0,0.0,0.0,0.0,0.0,0.0,0.0,0.0,0.0,0.0,0.0,0.0,0.0,0.0,0.0,0.0,0.0,0.0,0.0,0.0,0.0,0.0,0.0,0.0,0.0,0.0,0.0,0.0,0.0,0.0,0.0,0.0,0.0,0.0,0.0,0.0,0.0,0.0,0.0,0.0,0.0,0.0,0.0,0.0,0.0,0.0,0.0,0.0,0.0,0.0,0.0,0.0,0.0,0.0,0.0,0.0,0.0,0.0,0.0,0.0,0.0,0.0,0.0,0.0,0.0,0.0,0.0,0.0,0.0,2.312,2.2423,2.2015,2.2064,2.2019,2.2,0.0,0.0,0.0,0.0,0.0,0.0,0.0,0.0,0.0,0.0,0.0,0.0,0.0,0.0,0.0,0.0,0.0,0.0,0.0,0.0,0.0,0.0,0.0,0.0,0.0,0.0,0.0,0.0,0.0,0.0,0.0,0.0,0.0,0.0,0.0,0.0,0.0,0.0,0.0,0.0,0.0,0.0,0.0,0.0,0.0,0.0,0.0,0.0,0.0,0.0,0.0,0.0,0.0,0.0,0.0,0.0,0.0,0.0,0.0,0.0,0.0,0.0,0.0,0.0,0.0,0.0,0.0,0.0,0.0,0.0,0.0,0.0,0.0,0.0,0.0,0.0,0.0,0.0,0.0,0.0,0.0,0.0,0.0,0.0,0.0,0.0,0.0,0.0,0.0,0.0,0.0,0.0,0.0,0.0,0.0,0.0,0.0,0.0,0.0,0.0,0.0,0.0,0.0,0.0,0.0,0.0,0.0,0.0,0.0,2.4012,2.385,2.3769,2.3857,2.3864,2.3573,0.0,0.0,0.0,0.0,0.0,0.0,0.0,0.0,0.0,0.0,0.0,0.0,0.0,0.0,0.0,0.0,0.0,0.0,0.0,0.0,0.0,0.0,0.0,0.0,0.0,0.0,0.0,0.0,0.0,0.0,0.0,0.0,0.0,0.0,0.0,0.0,0.0,0.0,0.0,0.0,0.0,0.0,0.0,0.0,0.0,0.0,0.0,0.0,0.0,0.0,0.0,0.0,0.0,0.0,0.0,0.0,0.0,0.0,0.0,0.0,0.0,0.0,0.0,0.0,0.0,0.0,0.0,0.0,0.0,0.0,0.0,0.0,0.0,0.0,0.0,0.0,0.0,0.0,0.0,0.0,0.0,0.0,0.0,0.0,0.0,0.0,0.0,0.0,0.0,0.0,0.0,0.0,0.0,0.0,0.0,0.0,0.0,0.0,0.0,0.0,0.0,0.0,0.0,0.0,0.0,0.0,0.0,0.0,0.0,2.4629,0.0,2.4844,2.4898,2.4896,2.4602,0.0,0.0,0.0,0.0,0.0,0.0,0.0,0.0,0.0,0.0,0.0,0.0,0.0,0.0,0.0,0.0,0.0,0.0,0.0,0.0,0.0,0.0,0.0,0.0,0.0,0.0,0.0,0.0,0.0,0.0,0.0,0.0,0.0,0.0,0.0,0.0,0.0,0.0,0.0,0.0,0.0,0.0,0.0,0.0,0.0,0.0,0.0,0.0,0.0,0.0,0.0,0.0,0.0,0.0,0.0,0.0,0.0,0.0,0.0,0.0,0.0,0.0,0.0,0.0,0.0,0.0,0.0,0.0,0.0,0.0,0.0,0.0,0.0,0.0,0.0,0.0,0.0,0.0,0.0,0.0,0.0,0.0,0.0,0.0,0.0,0.0,0.0,0.0,0.0,0.0,0.0,0.0,0.0,0.0,0.0,0.0,0.0,0.0,0.0,0.0,0.0,0.0,0.0,0.0,0.0,0.0,0.0,0.0,2.4753,2.4879,2.4965,2.4974,2.4915,2.4914,2.491,0.0,0.0,0.0,0.0,0.0,0.0,0.0,0.0,0.0,0.0,0.0,0.0,0.0,0.0,0.0,0.0,0.0,0.0,0.0,0.0,0.0,0.0,0.0,0.0,0.0,0.0,0.0,0.0,0.0,0.0,0.0,0.0,0.0,0.0,0.0,0.0,0.0,0.0,0.0,0.0,0.0,0.0,0.0,0.0,0.0,0.0,0.0,0.0,0.0,0.0,0.0,0.0,0.0,0.0,0.0,0.0,0.0,0.0,0.0,0.0,0.0,0.0,0.0,0.0,0.0,0.0,0.0,0.0,0.0,0.0,0.0,0.0,0.0,0.0,0.0,0.0,0.0,0.0,0.0,0.0,0.0,0.0,0.0,0.0,0.0,0.0,0.0,0.0,0.0,0.0,0.0,0.0,0.0,0.0,0.0,0.0,0.0,0.0,0.0,0.0,0.0,0.0,0.0,0.0,0.0,0.0,0.0,0.0,0.0,2.505,2.5106,2.516,2.5247,2.5251,2.5195,0.0,0.0,0.0,0.0,0.0,0.0,0.0,0.0,0.0,0.0,0.0,0.0,0.0,0.0,0.0,0.0,0.0,0.0,0.0,0.0,0.0,0.0,0.0,0.0,0.0,0.0,0.0,0.0,0.0,0.0,0.0,0.0,0.0,0.0,0.0,0.0,0.0,0.0,0.0,0.0,0.0,0.0,0.0,0.0,0.0,0.0,0.0,0.0,0.0,0.0,0.0,0.0,0.0,0.0,0.0,0.0,0.0,0.0,0.0,0.0,0.0,0.0,0.0,0.0,0.0,0.0,0.0,0.0,0.0,0.0,0.0,0.0,0.0,0.0,0.0,0.0,0.0,0.0,0.0,0.0,0.0,0.0,0.0,0.0,0.0,0.0,0.0,0.0,0.0,0.0,0.0,0.0,0.0,0.0,0.0,0.0,0.0,0.0,0.0,0.0,0.0,0.0,0.0,0.0,0.0,0.0,0.0,0.0,0.0,2.5693,2.574,2.5799,2.587,2.5873,2.5673,2.5234,0.0,0.0,0.0,0.0,0.0,0.0,0.0,0.0,0.0,0.0,0.0,0.0,0.0,0.0,0.0,0.0,0.0,0.0,0.0,0.0,0.0,0.0,0.0,0.0,0.0,0.0,0.0,0.0,0.0,0.0,0.0,0.0,0.0,0.0,0.0,0.0,0.0,0.0,0.0,0.0,0.0,0.0,0.0,0.0,0.0,0.0,0.0,0.0,0.0,0.0,0.0,0.0,0.0,0.0,0.0,0.0,0.0,0.0,0.0,0.0,0.0,0.0,0.0,0.0,0.0,0.0,0.0,0.0,0.0,0.0,0.0,0.0,0.0,0.0,0.0,0.0,0.0,0.0,0.0,0.0,0.0,0.0,0.0,0.0,0.0,0.0,0.0,0.0,0.0,0.0,0.0,0.0,0.0,0.0,0.0,0.0,0.0,0.0,0.0,0.0,0.0,0.0,0.0,0.0,0.0,0.0,0.0,0.0,2.6772,2.6829,2.6827,2.6763,2.6725,2.632,0.0,0.0,0.0,0.0,0.0,0.0,0.0,0.0,0.0,0.0,0.0,0.0,0.0,0.0,0.0,0.0,0.0,0.0,0.0,0.0,0.0,0.0,0.0,0.0,0.0,0.0,0.0,0.0,0.0,0.0,0.0,0.0,0.0,0.0,0.0,0.0,0.0,0.0,0.0,0.0,0.0,0.0,0.0,0.0,0.0,0.0,0.0,0.0,0.0,0.0,0.0,0.0,0.0,0.0,0.0,0.0,0.0,0.0,0.0,0.0,0.0,0.0,0.0,0.0,0.0,0.0,0.0,0.0,0.0,0.0,0.0,0.0,0.0,0.0,0.0,0.0,0.0,0.0,0.0,0.0,0.0,0.0,0.0,0.0,0.0,0.0,0.0,0.0,0.0,0.0,0.0,0.0,0.0,0.0,0.0,0.0,0.0,0.0,0.0,0.0,0.0,0.0,0.0,0.0,0.0,0.0,0.0,0.0,0.0,2.7732,2.835,2.8355,2.7676,2.7035,2.659,0.0,0.0,0.0,0.0,0.0,0.0,0.0,0.0,0.0,0.0,0.0,0.0,0.0,0.0,0.0,0.0,0.0,0.0,0.0,0.0,0.0,0.0,0.0,0.0,0.0,0.0,0.0,0.0,0.0,0.0,0.0,0.0,0.0,0.0,0.0,0.0,0.0,0.0,0.0,0.0,0.0,0.0,0.0,0.0,0.0,0.0,0.0,0.0,0.0,0.0,0.0,0.0,0.0,0.0,0.0,0.0,0.0,0.0,0.0,0.0,0.0,0.0,0.0,0.0,0.0,0.0,0.0,0.0,0.0,0.0,0.0,0.0,0.0,0.0,0.0,0.0,0.0,0.0,0.0,0.0,0.0,0.0,0.0,0.0,0.0,0.0,0.0,0.0,0.0,0.0,0.0,0.0,0.0,0.0,0.0,0.0,0.0,0.0,0.0,0.0,0.0,0.0,0.0,0.0,0.0,0.0,0.0,0.0,2.7598,2.8102,2.9293,2.968,2.9134,2.7935,2.7123,0.0,0.0,0.0,0.0,0.0,0.0,0.0,0.0,0.0,0.0,0.0,0.0,0.0,0.0,0.0,0.0,0.0,0.0,0.0,0.0,0.0,0.0,0.0,0.0,0.0,0.0,0.0,0.0,0.0,0.0,0.0,0.0,0.0,0.0,0.0,0.0,0.0,0.0,0.0,0.0,0.0,0.0,0.0,0.0,0.0,0.0,0.0,0.0,0.0,0.0,0.0,0.0,0.0,0.0,0.0,0.0,0.0,0.0,0.0,0.0,0.0,0.0,0.0,0.0,0.0,0.0,0.0,0.0,0.0,0.0,0.0,0.0,0.0,0.0,0.0,0.0,0.0,0.0,0.0,0.0,0.0,0.0,0.0,0.0,0.0,0.0,0.0,0.0,0.0,0.0,0.0,0.0,0.0,0.0,0.0,0.0,0.0,0.0,0.0,0.0,0.0,0.0,0.0,0.0,0.0,0.0,0.0,0.0,2.8336,2.8523,3.0119,3.0978,3.0919,2.9119,2.7793,0.0,0.0,0.0,0.0,0.0,0.0,0.0,0.0,0.0,0.0,0.0,0.0,0.0,0.0,0.0,0.0,0.0,0.0,0.0,0.0,0.0,0.0,0.0,0.0,0.0,0.0,0.0,0.0,0.0,0.0,0.0,0.0,0.0,0.0,0.0,0.0,0.0,0.0,0.0,0.0,0.0,0.0,0.0,0.0,0.0,0.0,0.0,0.0,0.0,0.0,0.0,0.0,0.0,0.0,0.0,0.0,0.0,0.0,0.0,0.0,0.0,0.0,0.0,0.0,0.0,0.0,0.0,0.0,0.0,0.0,0.0,0.0,0.0,0.0,0.0,0.0,0.0,0.0,0.0,0.0,0.0,0.0,0.0,0.0,0.0,0.0,0.0,0.0,0.0,0.0,0.0,0.0,0.0,0.0,0.0,0.0,0.0,0.0,0.0,0.0,0.0,0.0,0.0,0.0,0.0,0.0,0.0,0.0,2.9869,3.1217,3.227,3.2816,3.2816,2.9748,2.8338,0.0,0.0,0.0,0.0,0.0,0.0,0.0,0.0,0.0,0.0,0.0,0.0,0.0,0.0,0.0,0.0,0.0,0.0,0.0,0.0,0.0,0.0,0.0,0.0,0.0,0.0,0.0,0.0,0.0,0.0,0.0,0.0,0.0,0.0,0.0,0.0,0.0,0.0,0.0,0.0,0.0,0.0,0.0,0.0,0.0,0.0,0.0,0.0,2.0752,0.0,0.0,0.0,0.0,0.0,0.0,0.0,0.0,0.0,0.0,0.0,0.0,0.0,0.0,0.0,0.0,0.0,0.0,0.0,0.0,0.0,0.0,0.0,0.0,0.0,0.0,0.0,0.0,0.0,0.0,0.0,0.0,0.0,0.0,0.0,0.0,0.0,0.0,0.0,0.0,0.0,0.0,0.0,0.0,0.0,0.0,0.0,0.0,0.0,0.0,0.0,0.0,0.0,0.0,0.0,0.0,0.0,0.0,0.0,3.0724,3.2072,3.2951,3.3379,3.332,3.1169,3.0001,0.0,0.0,0.0,0.0,0.0,0.0,0.0,0.0,0.0,0.0,0.0,0.0,0.0,0.0,0.0,0.0,0.0,0.0,0.0,0.0,0.0,0.0,0.0,0.0,0.0,0.0,0.0,0.0,0.0,0.0,0.0,0.0,0.0,0.0,0.0,0.0,0.0,0.0,0.0,0.0,0.0,0.0,0.0,0.0,0.0,0.0,0.0,0.0,0.0,0.0,0.0,0.0,0.0,0.0,0.0,0.0,0.0,0.0,0.0,0.0,0.0,0.0,0.0,0.0,0.0,0.0,0.0,0.0,0.0,0.0,0.0,0.0,0.0,0.0,0.0,0.0,0.0,0.0,0.0,0.0,0.0,0.0,0.0,0.0,0.0,0.0,0.0,0.0,0.0,0.0,0.0,0.0,0.0,0.0,0.0,0.0,0.0,0.0,0.0,0.0,0.0,0.0,0.0,0.0,0.0,0.0,0.0,3.0549,3.1507,3.2656,3.3397,3.3787,3.3768,3.2949,3.209,3.121,0.0,0.0,0.0,0.0,0.0,0.0,0.0,0.0,0.0,0.0,0.0,0.0,0.0,0.0,0.0,0.0,0.0,0.0,0.0,0.0,0.0,0.0,0.0,0.0,0.0,0.0,0.0,0.0,0.0,0.0,0.0,0.0,0.0,0.0,0.0,0.0,0.0,0.0,1.6158,1.6419,0.0,0.0,0.0,0.0,0.0,0.0,0.0,0.0,2.073,0.0,0.0,0.0,0.0,0.0,0.0,0.0,0.0,0.0,0.0,0.0,0.0,0.0,0.0,0.0,0.0,0.0,0.0,0.0,0.0,0.0,0.0,0.0,0.0,0.0,0.0,0.0,0.0,0.0,0.0,0.0,0.0,0.0,0.0,0.0,0.0,0.0,0.0,0.0,0.0,0.0,0.0,0.0,0.0,0.0,0.0,0.0,0.0,0.0,0.0,0.0,0.0,0.0,0.0,0.0,0.0,3.1631,3.1792,3.2965,3.5228,3.5403,3.5481,3.5481,3.4643,3.3807,3.2947,0.0,0.0,0.0,0.0,0.0,0.0,0.0,0.0,0.0,0.0,0.0,0.0,0.0,0.0,0.0,0.0,0.0,0.0,0.0,0.0,0.0,0.0,0.0,0.0,0.0,0.0,0.0,0.0,0.0,0.0,0.0,0.0,0.0,0.0,0.0,0.0,0.0,0.0,0.0,1.7783,1.8206,0.0,0.0,0.0,0.0,0.0,0.0,0.0,0.0,2.4124,0.0,0.0,0.0,0.0,0.0,0.0,0.0,0.0,0.0,0.0,0.0,0.0,0.0,0.0,0.0,0.0,0.0,0.0,0.0,0.0,0.0,0.0,0.0,0.0,0.0,0.0,0.0,0.0,0.0,0.0,0.0,0.0,0.0,0.0,0.0,0.0,0.0,0.0,0.0,0.0,0.0,0.0,0.0,0.0,0.0,0.0,0.0,0.0,0.0,0.0,0.0,0.0,0.0,0.0,0.0,3.2626,3.3205,3.4267,3.5891,3.595,3.595,3.593,3.5105,3.4265,0.0,0.0,0.0,0.0,0.0,0.0,0.0,0.0,0.0,0.0,0.0,0.0,0.0,0.0,0.0,0.0,0.0,0.0,0.0,0.0,0.0,0.0,0.0,0.0,0.0,0.0,0.0,0.0,0.0,0.0,0.0,0.0,0.0,0.0,0.0,0.0,0.0,0.0,0.0,0.0,1.996,2.0682,2.3031,0.0,0.0,0.0,0.0,0.0,0.0,2.5098,2.5064,0.0,0.0,0.0,0.0,0.0,0.0,0.0,0.0,0.0,0.0,0.0,0.0,0.0,0.0,0.0,0.0,0.0,0.0,0.0,0.0,0.0,0.0,0.0,0.0,0.0,0.0,0.0,0.0,0.0,0.0,0.0,0.0,0.0,0.0,0.0,0.0,0.0,0.0,0.0,0.0,0.0,0.0,0.0,0.0,0.0,0.0,0.0,0.0,0.0,0.0,0.0,0.0,0.0,0.0,0.0,3.3266,3.4212,3.5105,3.5929,3.5981,3.5978,3.5958,3.4968,3.4101,0.0,0.0,0.0,0.0,0.0,0.0,0.0,0.0,0.0,0.0,0.0,0.0,0.0,0.0,0.0,0.0,0.0,0.0,0.0,0.0,0.0,0.0,0.0,0.0,0.0,0.0,0.0,0.0,0.0,0.0,0.0,0.0,0.0,0.0,0.0,0.0,0.0,0.0,0.0,0.0,0.0,2.3309,2.5654,2.5162,0.0,0.0,0.0,0.0,2.6553,2.6555,0.0,0.0,0.0,0.0,0.0,0.0,0.0,0.0,0.0,0.0,0.0,0.0,0.0,0.0,0.0,0.0,0.0,0.0,0.0,0.0,0.0,0.0,0.0,0.0,0.0,0.0,0.0,0.0,0.0,0.0,0.0,0.0,0.0,0.0,0.0,0.0,0.0,0.0,0.0,0.0,0.0,0.0,0.0,0.0,0.0,0.0,0.0,0.0,0.0,0.0,0.0,0.0,0.0,0.0,0.0,0.0,3.3286,3.4179,3.5018,3.5858,3.5916,3.591,3.589,3.4386,3.3485,0.0,0.0,0.0,0.0,0.0,0.0,0.0,0.0,0.0,0.0,0.0,0.0,0.0,0.0,0.0,0.0,0.0,0.0,0.0,0.0,0.0,0.0,0.0,0.0,0.0,0.0,0.0,0.0,0.0,0.0,0.0,0.0,0.0,0.0,0.0,0.0,0.0,0.0,0.0,0.0,0.0,2.4864,2.6468,2.6469,2.6386,0.0,0.0,2.9202,2.9489,3.0657,0.0,0.0,0.0,0.0,0.0,0.0,0.0,0.0,0.0,0.0,0.0,0.0,0.0,0.0,0.0,0.0,0.0,0.0,0.0,0.0,0.0,0.0,0.0,0.0,0.0,0.0,0.0,0.0,0.0,0.0,0.0,0.0,0.0,0.0,0.0,0.0,0.0,0.0,0.0,0.0,0.0,0.0,0.0,0.0,0.0,0.0,0.0,0.0,0.0,0.0,0.0,0.0,0.0,0.0,0.0,3.2919,3.3334,3.4647,3.5536,3.5884,3.5892,3.5898,3.5878,3.423,3.3357,0.0,0.0,0.0,0.0,0.0,0.0,0.0,0.0,0.0,0.0,0.0,0.0,0.0,0.0,0.0,0.0,0.0,0.0,0.0,0.0,0.0,0.0,0.0,0.0,0.0,0.0,0.0,0.0,0.0,0.0,0.0,0.0,0.0,0.0,0.0,0.0,0.0,0.0,0.0,0.0,0.0,0.0,2.8705,2.8868,0.0,0.0,0.0,3.0539,3.0161,0.0,0.0,0.0,0.0,0.0,0.0,0.0,0.0,0.0,0.0,0.0,0.0,0.0,0.0,0.0,0.0,0.0,0.0,0.0,0.0,0.0,0.0,0.0,0.0,0.0,0.0,0.0,0.0,0.0,0.0,0.0,0.0,0.0,0.0,0.0,0.0,0.0,0.0,0.0,0.0,0.0,0.0,0.0,0.0,0.0,0.0,0.0,0.0,0.0,0.0,0.0,0.0,0.0,0.0,0.0,0.0,0.0,3.332,3.5008,3.5882,3.5887,3.5897,3.5895,3.5873,3.4434,0.0,0.0,0.0,0.0,0.0,0.0,0.0,0.0,0.0,0.0,0.0,0.0,0.0,0.0,0.0,0.0,0.0,0.0,0.0,0.0,0.0,0.0,0.0,0.0,0.0,0.0,0.0,1.9223,0.0,0.0,0.0,0.0,0.0,0.0,0.0,0.0,0.0,0.0,0.0,0.0,0.0,0.0,2.9201,3.0355,3.0607,3.093,0.0,0.0,3.1439,3.1101,3.2521,3.2985,0.0,0.0,0.0,0.0,0.0,0.0,0.0,0.0,0.0,0.0,0.0,0.0,0.0,0.0,0.0,0.0,0.0,0.0,0.0,0.0,0.0,0.0,0.0,0.0,0.0,0.0,0.0,0.0,0.0,0.0,0.0,0.0,0.0,0.0,0.0,0.0,0.0,0.0,0.0,0.0,0.0,0.0,0.0,0.0,0.0,0.0,0.0,0.0,0.0,0.0,0.0,0.0,0.0,0.0,3.3299,3.3351,3.501,3.5859,3.5797,3.5864,3.5897,3.5884,3.5049,3.4179,0.0,0.0,0.0,0.0,0.0,0.0,0.0,0.0,0.0,0.0,0.0,0.0,0.0,0.0,0.0,0.0,0.0,0.0,0.0,0.0,0.0,0.0,0.0,0.0,0.0,0.0,0.0,0.0,0.0,0.0,0.0,0.0,0.0,0.0,0.0,0.0,0.0,0.0,0.0,0.0,0.0,2.9992,3.0521,3.0977,3.1636,0.0,3.2361,3.2286,3.3209,3.4187,3.4244,3.2363,0.0,0.0,0.0,0.0,0.0,0.0,0.0,0.0,0.0,0.0,0.0,0.0,0.0,0.0,0.0,0.0,0.0,0.0,0.0,0.0,0.0,0.0,0.0,0.0,0.0,0.0,0.0,0.0,0.0,0.0,0.0,0.0,0.0,0.0,0.0,0.0,0.0,0.0,0.0,0.0,0.0,0.0,0.0,0.0,0.0,0.0,0.0,0.0,0.0,0.0,0.0,0.0,0.0,3.3298,3.3311,3.5017,3.5864,3.5801,3.5856,3.59,3.5893,3.5089,3.3997,0.0,0.0,0.0,0.0,0.0,0.0,0.0,0.0,0.0,0.0,0.0,0.0,0.0,0.0,0.0,0.0,0.0,0.0,0.0,0.0,0.0,0.0,0.0,0.0,0.0,0.0,0.0,0.0,2.5276,2.5406,2.5163,0.0,0.0,0.0,0.0,0.0,0.0,0.0,0.0,0.0,0.0,3.0815,3.1954,3.2164,0.0,0.0,3.3019,3.2864,3.2903,3.3705,3.3718,3.1977,3.1615,0.0,0.0,0.0,0.0,0.0,0.0,0.0,0.0,0.0,0.0,0.0,0.0,0.0,0.0,0.0,0.0,0.0,0.0,0.0,0.0,0.0,0.0,0.0,0.0,0.0,0.0,0.0,0.0,0.0,0.0,0.0,0.0,0.0,0.0,0.0,0.0,0.0,0.0,0.0,0.0,0.0,0.0,0.0,0.0,0.0,0.0,0.0,0.0,0.0,0.0,0.0,0.0,3.3297,3.3304,3.5014,3.5866,3.5797,3.5848,3.5867,3.5851,3.5274,3.4308,0.0,0.0,0.0,0.0,0.0,0.0,0.0,0.0,0.0,0.0,0.0,0.0,0.0,0.0,0.0,0.0,0.0,0.0,0.0,0.0,0.0,0.0,0.0,0.0,0.0,0.0,0.0,0.0,2.6827,2.6556,2.6038,0.0,0.0,0.0,0.0,0.0,0.0,0.0,0.0,0.0,0.0,3.1632,3.2627,3.2612,3.2652,3.3053,3.2883,3.2659,3.2558,3.3099,3.3173,3.1969,0.0,0.0,0.0,0.0,0.0,0.0,0.0,0.0,0.0,0.0,0.0,0.0,0.0,0.0,0.0,0.0,0.0,0.0,0.0,0.0,0.0,0.0,0.0,0.0,0.0,0.0,0.0,2.6913,0.0,0.0,2.7018,0.0,0.0,0.0,0.0,0.0,0.0,0.0,0.0,0.0,0.0,0.0,0.0,0.0,0.0,0.0,0.0,0.0,0.0,0.0,0.0,0.0,0.0,3.3294,3.3323,3.5005,3.5863,3.5797,3.5797,3.5801,3.5807,3.5847,3.5442,3.4532,0.0,0.0,0.0,0.0,0.0,0.0,0.0,0.0,0.0,0.0,0.0,0.0,0.0,0.0,0.0,0.0,0.0,0.0,0.0,0.0,0.0,0.0,0.0,0.0,0.0,0.0,2.6268,2.648,2.6378,0.0,0.0,0.0,0.0,0.0,0.0,0.0,0.0,0.0,0.0,3.0741,3.2413,3.2091,3.2093,3.2207,3.2423,3.1759,3.1526,3.2461,3.2711,3.2781,0.0,0.0,0.0,0.0,0.0,0.0,0.0,0.0,0.0,0.0,0.0,0.0,0.0,0.0,0.0,0.0,0.0,0.0,0.0,0.0,0.0,0.0,0.0,0.0,0.0,0.0,0.0,2.8471,2.7796,0.0,0.0,0.0,0.0,0.0,0.0,0.0,0.0,0.0,0.0,0.0,3.289,3.2861,0.0,0.0,0.0,0.0,0.0,0.0,0.0,0.0,0.0,0.0,0.0,0.0,3.3344,3.3379,3.502,3.5866,3.5799,3.5827,3.5861,3.5863,3.5897,3.5495,3.4606,0.0,0.0,0.0,0.0,0.0,0.0,0.0,0.0,0.0,0.0,0.0,0.0,0.0,0.0,0.0,0.0,0.0,0.0,0.0,0.0,0.0,0.0,0.0,0.0,0.0,2.7621,0.0,0.0,0.0,0.0,0.0,0.0,0.0,0.0,0.0,0.0,0.0,2.8492,2.9314,3.0617,3.1654,3.2204,3.2279,3.2574,0.0,0.0,0.0,0.0,0.0,0.0,0.0,0.0,0.0,0.0,0.0,0.0,0.0,0.0,3.194,3.1324,3.1578,3.1893,3.1847,0.0,0.0,0.0,0.0,0.0,0.0,0.0,0.0,0.0,0.0,0.0,0.0,0.0,0.0,2.9848,2.8694,3.011,0.0,0.0,0.0,0.0,0.0,0.0,0.0,0.0,3.3184,3.3574,3.3785,3.3789,3.3789,0.0,3.3472,3.2743,0.0,0.0,0.0,0.0,0.0,0.0,0.0,0.0,3.3345,3.3373,3.4997,3.585,3.5799,3.5846,3.5859,3.5861,3.5895,3.5627,3.5062,3.3664,3.265,0.0,0.0,0.0,0.0,0.0,0.0,0.0,0.0,0.0,0.0,0.0,0.0,0.0,0.0,0.0,0.0,0.0,0.0,0.0,0.0,0.0,0.0,0.0,2.8017,0.0,0.0,0.0,0.0,0.0,0.0,0.0,0.0,0.0,2.6727,2.8084,2.939,3.0209,3.1204,3.1916,3.1967,0.0,0.0,0.0,0.0,0.0,0.0,0.0,3.1487,3.1451,3.1557,3.1897,3.2593,3.2915,3.3108,3.3108,0.0,0.0,3.2408,3.2592,3.2897,3.29,3.2787,3.2706,3.271,3.2717,3.2701,0.0,0.0,0.0,0.0,0.0,0.0,0.0,0.0,3.3194,3.1782,0.0,3.2096,0.0,0.0,0.0,0.0,3.2205,3.2984,0.0,0.0,3.5099,3.5525,3.4765,3.4745,3.4745,3.4686,3.3925,3.3503,3.3474,3.3395,0.0,0.0,0.0,0.0,0.0,0.0,3.3294,3.3404,3.4981,3.5795,3.5795,3.5795,3.5795,3.5797,3.5857,3.5897,3.5871,3.5062,3.462,3.457,3.301,0.0,0.0,0.0,0.0,0.0,0.0,0.0,0.0,0.0,0.0,0.0,0.0,0.0,0.0,0.0,0.0,0.0,0.0,0.0,0.0,2.8899,0.0,0.0,0.0,0.0,0.0,0.0,0.0,0.0,0.0,0.0,2.787,2.928,3.052,3.0847,0.0,0.0,0.0,0.0,3.1943,3.0509,3.0167,3.0222,3.0481,3.1108,3.1885,3.282,0.0,0.0,3.4374,3.3731,3.3242,3.3223,3.3905,3.4178,3.3358,3.3241,3.3266,3.3266,3.328,3.3208,3.3191,3.3321,3.3279,3.0914,0.0,0.0,0.0,0.0,3.11,3.2211,3.3975,3.3994,3.3216,3.2022,3.3436,0.0,0.0,0.0,0.0,0.0,0.0,3.3743,3.4343,3.4849,3.5256,3.5641,3.5621,3.5621,3.5603,3.5368,3.5248,3.5185,3.5174,3.4118,3.2084,0.0,0.0,0.0,0.0,3.3597,3.4257,3.5271,3.5793,3.5793,3.5793,3.5793,3.5793,3.5828,3.5868,3.5887,3.5654,3.528,3.4705,3.4196,0.0,0.0,0.0,0.0,0.0,0.0,0.0,0.0,0.0,0.0,0.0,0.0,0.0,0.0,0.0,0.0,0.0,0.0,0.0,2.8755,2.9217,2.8857,0.0,0.0,0.0,0.0,0.0,0.0,0.0,0.0,0.0,3.0434,3.0461,3.0565,0.0,0.0,3.0858,3.0456,3.1157,3.1817,3.2135,3.2154,0.0,3.3111,3.2894,3.2748,3.3037,3.3798,3.4394,3.4394,3.4701,3.4949,3.4933,3.5162,3.5242,3.5029,3.4944,3.4941,3.4941,3.4961,3.4961,3.4941,3.4963,3.493,3.3395,3.2384,3.1035,3.1192,3.2243,3.2262,3.3241,3.482,3.4814,3.4157,3.3127,3.4436,3.3831,3.1944,3.2861,0.0,0.0,0.0,3.4384,3.5218,3.5218,3.5489,3.5992,3.6011,3.5989,3.5963,3.5943,3.5954,3.5893,3.5552,3.4797,3.3604,0.0,0.0,3.2589,3.3396,3.4231,3.5072,3.5885,3.6496,3.6828,3.6827,3.6865,3.686,3.6862,3.6885,3.6923,3.6602,3.6188,3.5716,3.5058,3.3974,0.0,0.0,0.0,0.0,0.0,0.0,0.0,0.0,0.0,0.0,0.0,3.0278,2.9517,0.0,0.0,0.0,3.0477,3.0149,2.9734,2.9667,0.0,0.0,0.0,0.0,0.0,0.0,0.0,2.8867,2.9942,3.0999,3.1752,3.1435,3.1327,3.1883,3.1621,3.133,3.1119,0.0,3.2591,3.2937,3.3045,3.3287,3.3831,3.3795,3.3773,3.4139,3.4587,3.4933,3.4962,3.5408,3.5723,3.5744,3.5716,3.57,3.57,3.5703,3.5706,3.5706,3.5706,3.5706,3.5706,3.5706,3.5706,3.5503,3.5215,3.2173,3.1791,3.316,3.3201,3.4113,3.5575,3.5577,3.4727,3.3456,3.5102,3.4539,3.2345,3.3204,0.0,3.479,3.4811,3.5238,3.6011,3.6011,3.6012,3.6014,3.607,3.6062,3.6008,3.6081,3.6107,3.608,3.5331,3.5271,3.5933,3.5194,3.4362,3.3597,3.4215,3.5016,3.5911,3.6619,3.7458,3.838,3.8399,3.8455,3.8465,3.8507,3.8489,3.8476,3.7737,3.7292,3.7253,3.582,3.4931,3.464,0.0,0.0,0.0,0.0,0.0,0.0,0.0,0.0,0.0,0.0,0.0,0.0,0.0,0.0,0.0,3.1689,0.0,3.2022,3.0335,0.0,0.0,0.0,2.9177,3.0684,3.1182,3.1383,3.1335,0.0,0.0,3.2171,3.2173,3.2552,3.3667,3.3685,3.3359,3.2718,3.3405,3.3872,3.3249,3.3296,3.3452,3.3854,3.4437,3.5152,3.5709,3.5911,3.5873,3.5767,3.5764,3.5791,3.5791,3.5757,3.5698,3.5708,3.571,3.5717,3.5709,3.5706,3.5706,3.5706,3.5706,3.5706,3.5503,3.5442,3.4632,3.4542,3.4908,3.4908,3.5139,3.5511,3.5515,3.5294,3.4956,3.5391,3.5278,3.4755,3.5132,3.5428,3.5622,3.5652,3.5799,3.6012,3.6011,3.602,3.603,3.6632,3.6897,3.6947,3.7554,3.7866,3.7796,3.7594,3.7267,3.6839,3.6602,3.6087,3.5307,3.4777,3.5263,3.677,3.64,3.692,3.8423,3.8491,3.8479,3.8505,3.8507,3.8512,3.8512,3.8301,3.8192,3.82,3.7805,3.6719,3.4778,3.3434,0.0,0.0,0.0,0.0,0.0,0.0,0.0,0.0,0.0,2.9777,2.9049,0.0,3.0389,0.0,3.2048,3.2972,3.2348,3.212,0.0,0.0,3.0607,3.0561,3.1184,3.182,3.207,3.1727,3.1883,3.2294,3.2998,3.2694,3.2997,3.4497,3.3643,3.278,3.2839,3.359,3.4184,3.4242,3.4777,3.541,3.6042,3.6914,3.727,3.6867,3.6792,3.6577,3.5916,3.5798,3.5795,3.5806,3.5793,3.5751,3.5768,3.5742,3.5771,3.5709,3.5706,3.5706,3.5706,3.5706,3.5706,3.6565,3.6565,3.6557,3.6567,3.651,3.5801,3.5503,3.5484,3.5531,3.556,3.556,3.5575,3.5649,3.5771,3.6228,3.6469,3.655,3.6961,3.7145,3.7145,3.7136,3.7124,3.7179,3.7591,3.777,3.7786,3.8246,3.8436,3.8383,3.8399,3.8348,3.8266,3.8246,3.8045,3.7559,3.5926,3.5751,3.7088,3.7428,3.8259,3.9552,3.9613,3.9275,3.858,3.8513,3.816,3.7415,3.7009,3.6816,3.6797,3.6432,3.558,3.4187,3.291,3.1727,0.0,0.0,0.0,0.0,0.0,0.0,0.0,0.0,0.0,0.0,0.0,3.0679,3.0485,3.2346,3.3154,3.2133,3.2303,3.2336,3.1992,3.1892,3.2045,3.2582,3.3111,3.3343,3.3084,3.3602,3.4144,3.4632,3.4741,3.5138,3.6196,3.5512,3.4833,3.47,3.5366,3.6035,3.6223,3.6681,3.7129,3.766,3.8114,3.8279,3.785,3.7717,3.7536,3.7078,3.6996,3.6992,3.7001,3.6977,3.6952,3.6903,3.659,3.6382,3.6304,3.6009,3.5759,3.5717,3.5709,3.5705,3.79,3.79,3.7893,3.7909,3.7798,3.6395,3.5804,3.5837,3.5883,3.5891,3.59,3.5985,3.6091,3.6234,3.6953,3.7336,3.749,3.8238,3.8609,3.8567,3.8528,3.8531,3.8568,3.8617,3.8648,3.8656,3.8691,3.8737,3.874,3.8729,3.9077,3.9686,3.9696,3.9653,3.944,3.7275,3.64,3.6965,3.8762,4.0089,4.0841,4.0628,3.9837,3.8512,3.8253,3.7497,3.6073,3.5253,3.484,3.482,3.4139,3.3776,3.3836,3.2246,3.1686,0.0,3.0903,0.0,0.0,0.0,0.0,0.0,0.0,0.0,0.0,3.1048,3.1116,3.1538,3.2707,3.3026,3.2074,3.2099,3.2502,3.3294,3.3269,3.3483,3.4318,3.4639,3.4833,3.4959,3.5854,3.6459,3.6469,3.7162,3.7667,3.7751,3.7858,3.7646,3.7253,3.7621,3.8074,3.8392,3.8559,3.8565,3.8662,3.8791,3.8878,3.8742,3.8666,3.8632,3.8417,3.8418,3.8456,3.8437,3.8325,3.8324,3.841,3.7759,3.7294,3.7236,3.6731,3.6147,3.5803,3.5728,3.5715,3.79,3.79,3.7908,3.7908,3.7873,3.7563,3.7471,3.7526,3.7536,3.7546,3.756,3.7622,3.7647,3.7701,3.8011,3.8167,3.8202,3.8479,3.8583,3.8526,3.8519,3.8486,3.8494,3.9154,3.9468,3.9517,4.0126,4.0461,4.051,4.051,4.024,3.9708,3.9712,3.9356,3.8665,0.0,0.0,0.0,3.8491,3.9804,3.9955,3.8635,3.779,3.7535,3.6782,0.0,3.6014,3.5789,3.5682,3.5662,3.5516,0.0,0.0,0.0,0.0,0.0,0.0,0.0,0.0,0.0,0.0,0.0,3.2469,3.1623,3.1231,3.1155,3.168,3.2958,3.3421,3.3747,3.4009,3.406,3.4059,3.4034,3.4006,3.4423,3.5501,3.5708,3.6062,3.6929,3.7215,3.7371,3.7451,3.7598,3.7757,3.8038,3.8604,3.9067,3.9037,3.8647,3.8379,3.8499,3.9143,3.953,3.9548,4.0122,4.0192,3.9777,3.9546,3.9296,3.8749,3.8573,3.8555,3.8573,3.8488,3.8506,3.8456,3.8299,3.8208,3.8175,3.7992,3.7471,3.6114,3.5795,3.5782,3.9078,3.9073,3.9084,3.9093,0.0,3.912,3.9144,3.9115,3.8308,3.7936,3.7959,3.8033,3.8105,3.8226,3.8758,3.9018,3.9123,3.9601,3.9792,3.9726,3.973,3.9715,3.9694,4.011,4.0307,4.0367,4.0729,4.092,4.0953,4.0981,4.0747,4.0293,4.0339,4.0108,3.9639,3.9637,3.9017,3.7778,3.9041,3.9933,4.0332,3.9538,3.8683,3.7921,3.7441,0.0,0.0,0.0,0.0,0.0,0.0,0.0,0.0,3.5728,0.0,3.639,3.5599,3.5406,3.6041,3.5575,3.5361,3.5639,3.5205,3.4376,3.3126,3.379,3.4524,3.5162,3.5412,3.5606,3.5759,3.5921,3.5987,3.5851,3.5854,3.6146,3.6679,3.6799,3.6995,3.7519,3.798,3.8288,3.8393,3.8829,3.915,3.9351,3.9807,4.0175,4.0283,3.999,3.9721,3.9772,4.0111,4.0423,4.0478,4.0756,4.0993,4.0546,4.0447,4.027,3.9854,3.9775,3.9778,3.9784,3.9785,3.9771,3.9686,3.9421,3.9132,3.9047,3.8739,3.8238,3.7262,3.6777,3.6454,4.032,4.031,4.0314,4.0313,4.0317,4.0381,4.0375,4.0283,3.894,0.0,0.0,3.8411,3.8547,3.8743,3.9487,3.989,4.0059,4.0733,4.1052,4.0981,4.0991,4.099,4.099,4.0926,4.0928,4.098,4.0928,4.09,4.0922,4.0979,4.0958,4.0932,4.097,4.0995,4.0923,4.0919,4.0589,3.997,3.9787,4.0057,4.0745,4.0488,3.9674,3.8301,3.8132,3.7368,3.5975,3.5889,3.5889,3.5889,3.5889,3.6046,3.6338,3.6358,3.6474,3.6681,3.6594,3.6817,3.7389,3.7214,3.7324,3.8017,3.7956,3.715,3.5472,3.6633,3.732,3.7105,3.7304,3.7341,3.7133,3.7341,3.7528,3.7538,3.7581,3.7652,3.7794,3.7856,3.7909,3.8109,3.8765,3.9222,3.9345,3.9981,4.0615,4.0817,4.0779,4.0941,4.1071,4.0987,4.0926,4.0947,4.0952,4.1072,4.1094,4.1073,4.1108,4.1058,4.1053,4.1108,4.1108,4.1108,4.111,4.0962,4.1093,4.1049,4.1024,4.0478,4.006,4.0018,3.9492,3.8948,3.8888,3.8228,3.7585,4.032,4.032,4.031,4.0315,4.032,4.0313,4.0316,4.0282,4.0125,4.0051,4.0064,4.0175,4.0254,4.0293,4.0573,4.0721,4.0749,4.0932,4.102,4.0984,4.0978,4.096,4.0928,4.0893,4.089,4.0917,4.089,4.0941,4.0971,4.0985,4.0985,4.098,4.0982,4.0979,4.0994,4.0995,4.0921,4.081,4.0074,3.9792,3.9936,3.8515,3.7636,3.7376,3.6703,3.6184,3.5898,3.5947,3.5889,3.5889,3.5889,3.6571,3.8032,3.8147,3.8742,4.003,4.0162,4.0106,3.998,3.9935,3.9887,3.9838,3.977,3.8987,3.7333,3.7347,3.7465,3.744,3.758,3.7571,3.7523,3.7624,3.7719,3.7737,3.7693,3.7979,3.8693,3.8797,3.9069,3.9723,4.0104,4.0242,4.0265,4.0502,4.0721,4.0859,4.0921,4.0963,4.107,4.1109,4.1109,4.1104,4.1113,4.1116,4.1113,4.1111,4.1107,4.1113,4.1108,4.1108,4.1108,4.1108,4.1114,4.1107,4.1113,4.1105,4.1089,4.1029,4.0844,4.08,4.0602,4.0563,4.0524,3.9875,3.9133,4.032,4.032,4.032,4.032,4.0306,4.0314,4.0324,4.0304,4.0323,4.0345,4.0355,4.0523,4.0624,4.0665,4.0835,4.0924,4.0948,4.0986,4.0982,4.0941,4.0958,4.0928,4.0888,4.0888,4.0888,4.0888,4.0888,4.093,4.099,4.099,4.099,4.0986,4.0989,4.0983,4.0991,4.0995,4.1024,4.1053,4.0613,4.0418,4.0429,3.9685,3.9266,3.9312,3.8901,3.8727,3.8718,3.8721,3.8714,3.8714,3.8712,3.9083,3.9842,3.9845,4.0123,4.0791,4.0699,4.0554,4.04,4.0334,4.0239,4.0162,4.0122,3.9792,3.8997,3.8916,3.8897,3.8897,3.8946,3.8961,3.8961,3.899,3.9018,3.9056,3.9099,3.927,3.9613,3.9713,3.9893,4.0334,4.0464,4.0541,4.0719,4.0762,4.0856,4.0982,4.1019,4.1036,4.1085,4.1109,4.1116,4.1106,4.1116,4.1109,4.1108,4.1102,4.1099,4.1109,4.1108,4.1108,4.1108,4.1108,4.1114,4.1101,4.1112,4.1112,4.1099,4.1113,4.1104,4.1112,4.1109,4.1109,4.1031,4.0739,4.0076,4.0454,4.032,4.032,4.032,4.032,4.032,4.032,4.032,4.0325,4.0305,4.0335,4.0519,4.0622,4.0693,4.0835,4.0939,4.0978,4.098,4.0963,4.089,4.0888,4.0888,4.0888,4.0888,4.0888,4.0888,4.0888,4.0932,4.0992,4.099,4.1021,4.1,4.1035,4.1024,4.101,4.1032,4.1055,4.1106,4.1054,4.1016,4.1031,4.1018,4.104,4.11,4.1091,4.1109,4.1109,4.1109,4.1109,4.1109,4.1109,4.1109,4.1106,4.0954,4.0835,4.0762,4.0536,4.036,4.0298,4.0196,4.0147,4.0142,4.0132,4.0132,4.0142,4.0137,4.0127,4.0132,4.0085,4.009,4.008,4.0129,4.0215,4.0234,4.0263,4.0225,4.0306,4.0324,4.037,4.0473,4.0553,4.0678,4.0824,4.0909,4.0986,4.1071,4.1109,4.1109,4.1109,4.1109,4.1106,4.111,4.1105,4.1112,4.1102,4.1112,4.111,4.1108,4.1108,4.1108,4.1108,4.1108,4.1109,4.1113,4.1105,4.1113,4.1109,4.1111,4.11,4.1102,4.1109,4.1109,4.1109,4.107,4.0739,4.0979,4.0363,4.0358,4.032,4.032,4.032,4.032,4.032,4.032,4.0325,4.0328,4.0517,4.061,4.0649,4.0869,4.0948,4.0917,4.0895,4.0893,4.0888,4.0888,4.0888,4.0888,4.0888,4.0888,4.0888,4.089,4.0937,4.098,4.1013,4.102,4.1094,4.1094,4.1092,4.1092,4.1087,4.1075,4.1108,4.1113,4.1093,4.109,4.1092,4.1099,4.1117,4.1112,4.1109,4.1109,4.1109,4.1109,4.1109,4.1109,4.1109,4.1081,4.0922,4.0781,4.0709,4.0503,4.0366,4.0291,4.0277,4.0263,4.0287,4.0229,4.0206,4.0258,4.0215,4.0186,4.0196,4.0244,4.0258,4.0291,4.0291,4.0291,4.0291,4.0301,4.032,4.0334,4.039,4.05,4.0489,4.0703,4.0871,4.0917,4.0996,4.1076,4.1106,4.1109,4.1109,4.1109,4.1109,4.1105,4.1112,4.1116,4.1111,4.1111,4.11,4.1112,4.111,4.1108,4.1108,4.1108,4.1108,4.1108,4.1111,4.1103,4.1112,4.1109,4.1112,4.1105,4.1105,4.1109,4.1109,4.1109,4.1109,4.0895,4.2087,4.1719,4.1227,4.0731,4.0344,4.032,4.032,4.032,4.032,4.032,4.0328,4.05,4.058,4.0609,4.0841,4.0926,4.0888,4.0888,4.0888,4.0888,4.0888,4.0888,4.0888,4.0888,4.0888,4.091,4.0935,4.099,4.1002,4.1037,4.107,4.1113,4.1109,4.1116,4.1114,4.1105,4.1114,4.1116,4.1106,4.11,4.11,4.1112,4.1109,4.1109,4.1109,4.1109,4.1109,4.1109,4.1109,4.1109,4.1109,4.1109,4.1107,4.0878,4.072,4.0687,4.043,4.0285,4.0287,4.0225,4.0205,4.0244,4.021,4.021,4.0244,4.0253,4.0253,4.0258,4.0277,4.032,4.032,4.032,4.032,4.032,4.032,4.0333,4.0413,4.0472,4.0557,4.0706,4.0833,4.0932,4.0998,4.1071,4.1107,4.1109,4.1109,4.1109,4.1109,4.1109,4.1117,4.1099,4.1112,4.1103,4.1113,4.1109,4.1102,4.1113,4.1108,4.1108,4.1108,4.1108,4.1108,4.1108,4.1117,4.111,4.111,4.1103,4.1108,4.1104,4.1109,4.1109,4.1109,4.1109,4.1109,4.292,4.2672,4.2096,4.138,4.063,4.063,4.0497,4.032,4.032,4.0305,4.0335,4.0519,4.0612,4.0678,4.0828,4.0888,4.0888,4.0888,4.0888,4.0888,4.0888,4.0888,4.0888,4.0888,4.0888,4.0895,4.0973,4.1015,4.1037,4.107,4.1112,4.1109,4.1116,4.11,4.1108,4.1115,4.1102,4.1109,4.1115,4.1109,4.1109,4.1109,4.1109,4.1109,4.1109,4.1109,4.1109,4.1109,4.1109,4.1109,4.1109,4.1081,4.1038,4.082,4.0649,4.0556,4.0355,4.0249,4.0282,4.0215,4.0171,4.0229,4.0206,4.0206,4.0234,4.0253,4.0272,4.0301,4.032,4.032,4.032,4.032,4.0324,4.0355,4.035,4.0409,4.0515,4.0589,4.0684,4.0861,4.093,4.0986,4.1076,4.1109,4.1109,4.1109,4.1109,4.1109,4.1109,4.1109,4.1109,4.111,4.11,4.1104,4.1113,4.1112,4.1108,4.1117,4.1108,4.1108,4.1108,4.1108,4.1108,4.1108,4.1108,4.1103,4.1112,4.1106,4.1115,4.1104,4.1109,4.1109,4.1109,4.1109,4.1109,4.33,4.2683,4.2711,4.224,4.1461,4.1461,4.0998,4.0401,4.0363,4.0364,4.0412,4.0553,4.0665,4.0791,4.0868,4.0888,4.0888,4.0888,4.0888,4.0888,4.0888,4.0888,4.0888,4.0888,4.0888,4.0893,4.098,4.1034,4.1069,4.111,4.1112,4.1098,4.1116,4.1108,4.1114,4.1104,4.1107,4.1114,4.111,4.1109,4.1109,4.1109,4.1109,4.1109,4.1109,4.1109,4.1109,4.1109,4.1109,4.1109,4.1106,4.1038,4.0919,4.072,4.048,4.0271,4.0258,4.0277,4.0282,4.0287,4.0268,4.0287,4.022,4.0215,4.0263,4.0249,4.0258,4.0306,4.0329,4.0329,4.0328,4.0352,4.0372,4.048,4.0485,4.056,4.0675,4.0774,4.0864,4.0924,4.1019,4.1073,4.1107,4.1109,4.1109,4.1109,4.1109,4.1109,4.1109,4.1109,4.1109,4.1109,4.11,4.1107,4.1102,4.1113,4.111,4.1116,4.1108,4.1108,4.1108,4.1108,4.1108,4.1108,4.1108,4.1103,4.1113,4.11,4.1102,4.1106,4.1115,4.1109,4.1109,4.1109,4.1109,4.4059,4.3395,4.3507,4.3095,4.2374,4.2335,4.1858,4.1094,4.1074,4.0809,4.0471,4.0541,4.0668,4.0803,4.0871,4.0888,4.0888,4.0888,4.0888,4.0888,4.0888,4.0888,4.0888,4.0888,4.0888,4.0919,4.0963,4.1039,4.1093,4.1107,4.1111,4.1116,4.1113,4.1104,4.1106,4.1099,4.1107,4.111,4.1109,4.1109,4.1109,4.1109,4.1109,4.1109,4.1109,4.1109,4.1109,4.1109,4.1109,4.1109,4.1027,4.0943,4.0878,4.0655,4.0461,4.0281,4.0249,4.0253,4.0272,4.0225,4.0186,4.0234,4.021,4.0225,4.0239,4.0258,4.03,4.0396,4.0434,4.0456,4.0512,4.0484,4.0492,4.0591,4.0645,4.0675,4.0785,4.0869,4.0928,4.1021,4.1076,4.1107,4.1109,4.1109,4.1109,4.1109,4.1109,4.1109,4.1109,4.1109,4.1109,4.1109,4.111,4.1112,4.1101,4.1106,4.1113,4.1103,4.1108,4.1108,4.1108,4.1107,4.1106,4.1105,4.1106,4.1104,4.1112,4.1101,4.1115,4.1117,4.1109,4.1109,4.1109,4.1109,4.1109,4.4609,4.4271,4.4309,4.3904,4.3219,4.323,4.2776,4.1981,4.174,4.1355,4.0954,4.0747,4.0716,4.084,4.0886,4.0888,4.0888,4.0888,4.0888,4.0888,4.0888,4.0888,4.0888,4.0888,4.0888,4.0911,4.0971,4.1028,4.1094,4.1103,4.1108,4.1099,4.1111,4.11,4.1103,4.1113,4.11,4.111,4.1109,4.1109,4.1109,4.1109,4.1109,4.1109,4.1109,4.1109,4.1109,4.1109,4.1076,4.1032,4.0941,4.0856,4.0754,4.0541,4.0392,4.0301,4.0258,4.0253,4.0291,4.0201,4.0181,4.0215,4.022,4.022,4.0225,4.0309,4.039,4.0469,4.0534,4.0612,4.0706,4.0681,4.0665,4.0742,4.0776,4.0804,4.0939,4.0952,4.1,4.1075,4.1106,4.1109,4.1109,4.1109,4.1109,4.1109,4.1109,4.1109,4.1109,4.1109,4.1109,4.1109,4.1109,4.1112,4.1107,4.1114,4.1111,4.111,4.1116,4.1114,4.1106,4.1104,4.1103,4.1102,4.1115,4.1109,4.111,4.1108,4.1112,4.1114,4.1109,4.1109,4.1109,4.1109,4.1109,4.4846,4.4992,4.5089,4.4636,4.405,4.4145,4.3747,4.2953,4.2337,4.2067,4.1902,4.1256,4.1048,4.0968,4.106,4.0966,4.0888,4.0888,4.0888,4.0888,4.0888,4.0888,4.0888,4.0888,4.0912,4.0906,4.0979,4.1027,4.1113,4.1099,4.1099,4.1103,4.1106,4.1113,4.1111,4.1106,4.111,4.1109,4.1109,4.1109,4.1109,4.1109,4.1109,4.1109,4.1148,4.1203,4.1161,4.1122,4.1032,4.0926,4.0876,4.0776,4.0557,4.0379,4.031,4.0306,4.0301,4.0282,4.0301,4.0296,4.0287,4.0296,4.0282,4.0296,4.032,4.0388,4.0484,4.0534,4.0615,4.0736,4.0861,4.0898,4.0896,4.0907,4.0888,4.0945,4.1043,4.1086,4.1107,4.1109,4.1109,4.1109,4.1109,4.1109,4.1109,4.1112,4.1112,4.1112,4.1114,4.1114,4.111,4.1112,4.1115,4.1113,4.1117,4.1118,4.1104,4.1113,4.1109,4.1102,4.1108,4.11,4.1116,4.1117,4.1102,4.1112,4.1111,4.1113,4.1109,4.1109,4.1109,4.1109,4.1109,4.1109,4.1109,4.4757,4.4858,4.502,4.4992,4.4791,4.4998,4.4611,4.3861,4.3663,4.3357,4.2908,4.263,4.225,4.1869,4.1803,4.1471,4.0927,4.0888,4.0907,4.0946,4.0907,4.0888,4.0888,4.0888,4.0926,4.0959,4.0988,4.1045,4.1093,4.1099,4.1116,4.1114,4.1103,4.1109,4.1102,4.1102,4.1109,4.1109,4.1109,4.1109,4.1109,4.1109,4.1109,4.1167,4.1614,4.1884,4.1762,4.1259,4.0956,4.0939,4.0718,4.0526,4.0402,4.0319,4.0325,4.032,4.032,4.032,4.032,4.0325,4.0344,4.032,4.032,4.032,4.032,4.0351,4.0467,4.0607,4.0678,4.0796,4.0982,4.1036,4.1032,4.1055,4.1036,4.104,4.1083,4.1109,4.1109,4.1109,4.1109,4.1109,4.1109,4.1109,4.1115,4.1105,4.1107,4.1107,4.1107,4.1107,4.1107,4.1107,4.111,4.1112,4.1113,4.1106,4.1107,4.1107,4.1113,4.1108,4.1116,4.1105,4.11,4.111,4.1108,4.1113,4.1105,4.11,4.1112,4.1109,4.1109,4.1109,4.1109,4.1109,4.1109,4.4659,4.4731,4.4925,4.507,4.5197,4.5457,4.5302,4.4824,4.4608,4.427,4.3859,4.3496,4.3133,4.2745,4.2677,4.2384,4.1898,4.1876,4.1857,4.1701,4.1082,4.0907,4.0888,4.0888,4.0935,4.0984,4.0995,4.1026,4.1113,4.1101,4.1099,4.1117,4.1107,4.1115,4.1103,4.1107,4.1117,4.111,4.1109,4.1109,4.1167,4.1382,4.1555,4.1654,4.2335,4.2663,4.2537,4.203,4.1734,4.1641,4.1455,4.1318,4.1237,4.1266,4.1223,4.1242,4.1246,4.1261,4.1203,4.0993,4.0745,4.0726,4.0478,4.032,4.032,4.0333,4.0465,4.0665,4.0764,4.0881,4.1043,4.1109,4.1109,4.1109,4.1106,4.1109,4.1109,4.1109,4.1109,4.1109,4.1109,4.1109,4.1109,4.1117,4.1102,4.1113,4.1099,4.1103,4.1103,4.1102,4.1103,4.1103,4.1103,4.1106,4.1111,4.1098,4.1104,4.1108,4.1106,4.1113,4.1105,4.1103,4.11,4.111,4.1113,4.1106,4.1106,4.1115,4.1109,4.1109,4.1109,4.1109,4.1109,4.1109,4.1107,4.4572,4.4705,4.4846,4.5017,4.5287,4.5545,4.5704,4.5715,4.519,4.4896,4.4671,4.4158,4.3716,4.3605,4.3569,4.3452,4.3449,4.3272,4.3214,4.2867,4.1973,4.1218,4.0927,4.0888,4.0931,4.0979,4.098,4.1048,4.1111,4.1099,4.1108,4.1107,4.1117,4.1107,4.1115,4.1103,4.1109,4.1115,4.119,4.1268,4.1284,4.1984,4.2374,4.2411,4.318,4.3566,4.3426,4.3334,4.3176,4.2987,4.2684,4.2551,4.2698,4.2794,4.2622,4.2565,4.2737,4.2641,4.2545,4.1972,4.159,4.1533,4.0917,4.0363,4.0496,4.0475,4.0504,4.0694,4.0782,4.0926,4.1064,4.1109,4.1109,4.1109,4.1109,4.1109,4.1109,4.1109,4.1109,4.1109,4.1109,4.111,4.1112,4.1106,4.1114,4.1103,4.1109,4.1114,4.1114,4.1114,4.1114,4.1114,4.1115,4.11,4.1106,4.1109,4.1113,4.1103,4.1099,4.111,4.1112,4.111,4.111,4.1113,4.1105,4.1108,4.1106,4.1117,4.1114,4.1109,4.1109,4.1109,4.1109,4.1109,4.1107,4.4528,4.4577,4.4705,4.4869,4.5107,4.5413,4.5646,4.5808,4.5742,4.563,4.5591,4.5455,4.4948,4.4501,4.4462,4.4129,4.3721,4.3566,4.3486,4.3449,4.3119,4.2034,4.1121,4.0907,4.0984,4.1066,4.1173,4.1046,4.1113,4.1178,4.1129,4.1108,4.11,4.1112,4.1107,4.1135,4.1103,4.1208,4.1772,4.2018,4.2124,4.2823,4.3231,4.3323,4.4014,4.4316,4.4273,4.4557,4.4087,4.2958,4.2828,4.2794,4.2889,4.2889,4.2947,4.2947,4.2889,4.2832,4.2794,4.2603,4.245,4.2393,4.1672,4.1208,4.117,4.0658,4.0545,4.0629,4.0736,4.0851,4.1038,4.1109,4.1109,4.1109,4.1109,4.1109,4.1109,4.1109,4.1109,4.1109,4.1109,4.1114,4.1105,4.1113,4.1104,4.1098,4.1105,4.1108,4.1108,4.1108,4.1108,4.1108,4.1109,4.1114,4.1099,4.1101,4.1103,4.1104,4.1114,4.1101,4.1112,4.1113,4.1113,4.1113,4.1099,4.1116,4.1103,4.1102,4.1107,4.1109,4.1109,4.1109,4.1109,4.1109,4.1109,4.4558,4.4628,4.468,4.4838,4.5096,4.5376,4.5646,4.5867,4.5964,4.5982,4.5982,4.5982,4.5747,4.5317,4.53,4.5045,4.4598,4.454,4.4579,4.4501,4.4188,4.3277,4.2287,4.1995,4.2025,4.2083,4.2073,4.1947,4.1735,4.1643,4.1461,4.1166,4.1104,4.1118,4.1151,4.1497,4.1644,4.1809,4.2471,4.2934,4.2965,4.3703,4.4072,4.4263,4.4819,4.5146,4.5013,4.517,4.4786,4.406,4.3883,4.3864,4.3845,4.385,4.3845,4.3845,4.3864,4.3869,4.3768,4.3539,4.3305,4.3152,4.2526,4.1915,4.1533,4.1041,4.0874,4.0707,4.071,4.0839,4.1034,4.1109,4.1109,4.1109,4.1109,4.1109,4.1109,4.1109,4.1109,4.1109,4.1109,4.1115,4.1113,4.11,4.1114,4.1108,4.1116,4.1099,4.11,4.11,4.1099,4.1098,4.1098,4.1102,4.1104,4.1105,4.1105,4.1108,4.1109,4.1116,4.1104,4.1112,4.1108,4.1101,4.1104,4.1107,4.1112,4.1117,4.1102,4.1109,4.1109,4.1109,4.111,4.1109,4.1109,4.4642,4.4825,4.4764,4.4946,4.5246,4.5426,4.5681,4.5943,4.5994,4.5994,4.5997,4.5997,4.5941,4.5982,4.5846,4.5924,4.5902,4.5727,4.5824,4.5591,4.5183,4.4423,4.3819,4.3275,4.3241,4.3318,4.3567,4.3123,4.2667,4.2533,4.2162,4.1792,4.1577,4.1436,4.1763,4.2209,4.2476,4.2682,4.3382,4.3809,4.3963,4.4564,4.4973,4.5064,4.5437,4.5648,4.5442,4.5385,4.5222,4.5293,4.5288,4.513,4.5163,4.5225,4.5206,4.513,4.5034,4.5073,4.5125,4.4451,4.4126,4.4011,4.3381,4.2641,4.2068,4.1676,4.1257,4.0997,4.0771,4.0836,4.1036,4.1109,4.1109,4.1109,4.111,4.1112,4.111,4.111,4.1109,4.111,4.1112,4.1102,4.1116,4.1109,4.11,4.1116,4.1103,4.1104,4.1105,4.1105,4.1105,4.1106,4.1107,4.1108,4.1108,4.1108,4.1108,4.1108,4.1108,4.1111,4.1111,4.1116,4.1102,4.1107,4.1106,4.1117,4.1099,4.1103,4.1115,4.1118,4.1103,4.1099,4.1112,4.111,4.1109,4.4879,4.5126,4.5099,4.5229,4.5436,4.5539,4.57,4.5922,4.5983,4.5986,4.5992,4.5989,4.5999,4.5982,4.5982,4.5982,4.5982,4.5982,4.5982,4.5963,4.5863,4.5669,4.5125,4.4234,4.3636,4.3707,4.3646,4.3553,4.3425,4.3392,4.3334,4.3099,4.2885,4.3118,4.3097,4.3212,4.3423,4.3571,4.4271,4.4676,4.4809,4.5392,4.5829,4.5813,4.5828,4.568,4.5502,4.5395,4.5369,4.5378,4.5352,4.5293,4.5302,4.5283,4.5283,4.5283,4.5283,4.5283,4.5244,4.5092,4.4991,4.4862,4.4218,4.3668,4.3438,4.2187,4.1701,4.1465,4.11,4.0845,4.1066,4.1109,4.1112,4.1115,4.1103,4.111,4.1107,4.1099,4.1099,4.1107,4.111,4.1099,4.1102,4.1105,4.1113,4.1104,4.1107,4.1108,4.1108,4.1108,4.1108,4.1108,4.1108,4.1108,4.1108,4.1108,4.1108,4.1108,4.1108,4.1108,4.1108,4.1106,4.1118,4.1109,4.1102,4.1108,4.1117,4.1113,4.111,4.1114,4.1114,4.1107,4.11,4.1115,4.1071,4.514,4.5338,4.5248,4.5328,4.5504,4.5569,4.5719,4.587,4.5931,4.5983,4.5997,4.5994,4.5989,4.5982,4.5982,4.5982,4.5982,4.5982,4.5982,4.5982,4.5982,4.5982,4.592,4.5261,4.4759,4.4791,4.4856,4.4686,4.4402,4.425,4.4075,4.3724,4.3744,4.3587,4.3822,4.4114,4.4305,4.4478,4.5159,4.5606,4.5681,4.5972,4.6164,4.6028,4.5796,4.5562,4.5429,4.5405,4.5404,4.5395,4.5375,4.5334,4.5312,4.5283,4.5283,4.5283,4.5283,4.5283,4.5302,4.5347,4.5324,4.5362,4.488,4.4469,4.3942,4.2809,4.2098,4.1763,4.1254,4.0818,4.106,4.1102,4.1105,4.1112,4.1099,4.1104,4.1103,4.1116,4.1113,4.1103,4.1104,4.1114,4.1106,4.1113,4.1099,4.1106,4.1107,4.1108,4.1108,4.1108,4.1108,4.1108,4.1108,4.1108,4.1108,4.1108,4.1108,4.1108,4.1108,4.1108,4.1108,4.1107,4.1104,4.1116,4.1107,4.1099,4.1111,4.1108,4.1103,4.1099,4.1116,4.1112,4.1103,4.1089,4.1032,4.5376,4.5543,4.5357,4.5385,4.5528,4.5602,4.5734,4.5883,4.5886,4.5953,4.5983,4.5989,4.5992,4.5989,4.5999,4.5999,4.5982,4.5982,4.5982,4.5982,4.5982,4.5982,4.5944,4.5898,4.5894,4.618,4.6017,4.5664,4.5318,4.5168,4.4914,4.4271,4.4173,4.4388,4.4407,4.4758,4.5186,4.5303,4.5811,4.6182,4.6182,4.6257,4.6168,4.5921,4.5747,4.5554,4.5471,4.5429,4.5419,4.5415,4.541,4.5375,4.5339,4.5309,4.5309,4.5309,4.5319,4.5329,4.5334,4.5374,4.5394,4.5418,4.5371,4.506,4.4336,4.3585,4.2859,4.2074,4.1479,4.0878,4.1084,4.1117,4.1102,4.1109,4.1113,4.1115,4.1117,4.1117,4.11,4.1117,4.1098,4.1105,4.1112,4.1098,4.1104,4.1107,4.1108,4.1108,4.1108,4.1108,4.1108,4.1108,4.1108,4.1108,4.1108,4.1108,4.1108,4.1108,4.1108,4.1108,4.1108,4.1108,4.1106,4.1101,4.1113,4.1107,4.1104,4.1102,4.1115,4.1106,4.1098,4.1094,4.1081,4.1081,4.0978,4.5558,4.5745,4.5719,4.5726,4.5745,4.5752,4.5786,4.5814,4.5874,4.5909,4.5925,4.5971,4.5994,4.5989,4.5991,4.5999,4.5999,4.5982,4.5982,4.5982,4.5982,4.5982,4.602,4.6078,4.6142,4.6184,4.6205,4.6111,4.6056,4.6066,4.5773,4.5792,4.5715,4.5696,4.5696,4.6008,4.5949,4.591,4.6184,4.6281,4.6301,4.6247,4.6167,4.5914,4.5768,4.5657,4.5562,4.5508,4.5485,4.5485,4.5429,4.54,4.5405,4.54,4.5395,4.5385,4.5366,4.538,4.5385,4.54,4.541,4.5415,4.5429,4.5405,4.4992,4.436,4.3504,4.2673,4.1749,4.1045,4.1086,4.1111,4.1111,4.1117,4.1105,4.1109,4.1111,4.1115,4.1117,4.1111,4.1111,4.1112,4.1099,4.1103,4.1105,4.1108,4.1108,4.1108,4.1108,4.1108,4.1108,4.1108,4.1108,4.1108,4.1108,4.1108,4.1108,4.1108,4.1108,4.1108,4.1108,4.1108,4.1107,4.1104,4.1101,4.1116,4.1114,4.1113,4.1111,4.1106,4.1093,4.1073,4.1016,4.0966,4.082,4.5696,4.5803,4.5803,4.5803,4.5803,4.5803,4.5803,4.5807,4.5824,4.5883,4.5922,4.5954,4.5987,4.5991,4.5989,4.5983,4.5997,4.5982,4.5982,4.5982,4.5982,4.6018,4.6063,4.612,4.6156,4.6205,4.6229,4.6258,4.6302,4.6281,4.6301,4.6281,4.6301,4.6301,4.6301,4.6242,4.6301,4.6301,4.6301,4.6301,4.6275,4.6203,4.6024,4.5921,4.5778,4.5653,4.5601,4.5577,4.5559,4.5555,4.5537,4.5504,4.5499,4.5495,4.5476,4.5419,4.541,4.541,4.5415,4.5429,4.5448,4.5467,4.5481,4.5476,4.5275,4.467,4.3785,4.2717,4.1871,4.1117,4.1104,4.1104,4.1107,4.1113,4.1099,4.11,4.1103,4.1107,4.1105,4.1102,4.1102,4.1103,4.1105,4.1108,4.1108,4.1108,4.1108,4.1108,4.1108,4.1108,4.1108,4.1108,4.1108,4.1108,4.1108,4.1108,4.1108,4.1108,4.1108,4.1108,4.1108,4.1108,4.1108,4.1108,4.1105,4.1103,4.1104,4.1103,4.1103,4.1097,4.1041,4.0976,4.0906,4.0825,4.0697,4.5803,4.5803,4.5803,4.5803,4.5803,4.5803,4.5803,4.5803,4.5803,4.5843,4.5886,4.59,4.5932,4.5971,4.5991,4.5992,4.5999,4.5982,4.5982,4.6007,4.6015,4.6063,4.6105,4.6172,4.6203,4.6191,4.626,4.6302,4.6301,4.6301,4.6301,4.6301,4.6301,4.6301,4.6301,4.6301,4.6301,4.6301,4.6301,4.6301,4.6242,4.6051,4.5902,4.5881,4.5719,4.5599,4.5594,4.559,4.5586,4.559,4.5586,4.559,4.559,4.5594,4.5555,4.5471,4.5453,4.5434,4.5467,4.549,4.5517,4.5517,4.5587,4.5559,4.5246,4.4568,4.3581,4.2444,4.1516,4.1125,4.1115,4.1116,4.1101,4.1105,4.1108,4.1108,4.1108,4.1108,4.1108,4.1108,4.1108,4.1108,4.1108,4.1108,4.1108,4.1108,4.1108,4.1108,4.1108,4.1108,4.1108,4.1108,4.1108,4.1108,4.1108,4.1108,4.1108,4.1108,4.1108,4.1108,4.1108,4.1108,4.1108,4.1108,4.1108,4.1107,4.1108,4.1108,4.1107,4.107,4.0974,4.089,4.0834,4.0721,4.0591,4.5803,4.5803,4.5803,4.5803,4.5803,4.5803,4.5803,4.5803,4.5803,4.5807,4.5817,4.5883,4.5903,4.5925,4.5977,4.5992,4.5991,4.5997,4.6007,4.6027,4.6065,4.607,4.6107,4.616,4.619,4.621,4.6274,4.6303,4.6301,4.6301,4.6301,4.6301,4.6301,4.6301,4.6301,4.6301,4.6301,4.6301,4.6301,4.6301,4.6248,4.6025,4.592,4.5861,4.5718,4.5594,4.5594,4.5594,4.5594,4.5594,4.5594,4.5594,4.5594,4.5594,4.559,4.5577,4.5573,4.5558,4.5568,4.5568,4.5577,4.5577,4.559,4.5568,4.5118,4.4286,4.3403,4.3305,4.1958,4.1158,4.1104,4.1106,4.1108,4.1108,4.1108,4.1108,4.1108,4.1108,4.1108,4.1108,4.1108,4.1108,4.1108,4.1108,4.1108,4.1108,4.1108,4.1108,4.1108,4.1108,4.1108,4.1108,4.1108,4.1108,4.1108,4.1108,4.1108,4.1108,4.1108,4.1108,4.1108,4.1108,4.1108,4.1108,4.1107,4.1082,4.1077,4.1078,4.1104,4.1036,4.0901,4.0809,4.0739,4.061,4.0485,4.5803,4.5803,4.5803,4.5803,4.5803,4.5803,4.5803,4.5803,4.5803,4.5803,4.5807,4.5821,4.586,4.5887,4.5931,4.5966,4.5992,4.6,4.6008,4.6039,4.6091,4.6123,4.6151,4.6189,4.621,4.6241,4.6271,4.6302,4.6301,4.6301,4.6301,4.6301,4.6301,4.6301,4.6301,4.6301,4.6301,4.6301,4.6301,4.6301,4.624,4.6057,4.5902,4.5894,4.5692,4.561,4.5594,4.5594,4.5594,4.5594,4.5594,4.5594,4.5594,4.5594,4.559,4.559,4.559,4.559,4.559,4.5594,4.5594,4.5594,4.5556,4.537,4.4805,4.3998,4.3091,4.2624,4.1713,4.1181,4.1108,4.1108,4.1108,4.1108,4.1108,4.1108,4.1108,4.1108,4.1108,4.1108,4.1108,4.1108,4.1108,4.1108,4.1108,4.1108,4.1108,4.1108,4.1108,4.1108,4.1108,4.1108,4.1108,4.1108,4.1108,4.1108,4.1108,4.1108,4.1108,4.1108,4.1108,4.1108,4.1104,4.1074,4.1064,4.1039,4.1036,4.103,4.1026,4.094,4.0835,4.0727,4.0619,4.0483,4.0375,4.5803,4.5803,4.5803,4.5803,4.5803,4.5803,4.5803,4.5803,4.5803,4.5803,4.5803,4.5807,4.5827,4.5877,4.5906,4.5917,4.5969,4.6022,4.6054,4.608,4.6121,4.6168,4.6189,4.621,4.6261,4.6301,4.6284,4.6301,4.6301,4.6301,4.6301,4.6301,4.6301,4.6301,4.6301,4.6301,4.6301,4.6301,4.6301,4.6301,4.6247,4.6043,4.5928,4.5832,4.571,4.5594,4.5594,4.5594,4.5594,4.5594,4.5607,4.5612,4.5599,4.5605,4.5629,4.5629,4.5629,4.5629,4.5635,4.5622,4.5594,4.5594,4.5526,4.5265,4.448,4.3769,4.3073,4.23,4.1564,4.1199,4.1108,4.1108,4.1108,4.1108,4.1108,4.1108,4.1108,4.1108,4.1108,4.1108,4.1108,4.1108,4.1108,4.1108,4.1108,4.1108,4.1108,4.1108,4.1105,4.1083,4.1083,4.1081,4.107,4.1076,4.1108,4.1108,4.1108,4.1108,4.1108,4.1106,4.1084,4.1075,4.1063,4.105,4.1009,4.0966,4.0928,4.0946,4.0942,4.0855,4.0769,4.0625,4.05,4.0378,4.0325,4.5803,4.5803,4.5803,4.5803,4.5803,4.5803,4.5803,4.5803,4.5803,4.5803,4.5803,4.5807,4.5827,4.5877,4.5919,4.5921,4.5907,4.6032,4.609,4.6113,4.6149,4.6189,4.621,4.6261,4.6288,4.6302,4.6301,4.6301,4.6301,4.6301,4.6301,4.6301,4.6301,4.6301,4.6301,4.6301,4.6301,4.6301,4.6301,4.6301,4.622,4.6084,4.5939,4.5856,4.5722,4.5594,4.5594,4.5603,4.5612,4.5612,4.5637,4.5661,4.5633,4.5651,4.566,4.5667,4.5664,4.5679,4.5658,4.5644,4.5594,4.5594,4.5541,4.5236,4.4279,4.3742,4.3044,4.219,4.141,4.1162,4.1108,4.1108,4.1108,4.1108,4.1108,4.1108,4.1108,4.1108,4.1108,4.1108,4.1108,4.1108,4.1108,4.1108,4.1108,4.1108,4.1075,4.1073,4.1051,4.1047,4.1051,4.1045,4.1042,4.1052,4.1104,4.1108,4.1086,4.1083,4.1082,4.1079,4.1056,4.1041,4.1039,4.0958,4.0924,4.087,4.081,4.0791,4.0779,4.0759,4.0693,4.0587,4.0507,4.0425,4.036,4.5803,4.5803,4.5803,4.5803,4.5803,4.5803,4.5803,4.5803,4.5803,4.5803,4.5803,4.5807,4.5814,4.5867,4.5946,4.5967,4.5988,4.6066,4.6126,4.6171,4.6203,4.6211,4.6247,4.6277,4.6306,4.6302,4.6302,4.6301,4.6301,4.6302,4.6301,4.6301,4.6302,4.6301,4.6301,4.6301,4.6301,4.6301,4.6301,4.6301,4.625,4.6138,4.5987,4.5886,4.5796,4.57,4.5667,4.5647,4.5651,4.566,4.5691,4.5683,4.5675,4.5696,4.57,4.5684,4.5684,4.57,4.5699,4.5678,4.5644,4.5635,4.563,4.5215,4.4044,4.3531,4.2708,4.1898,4.1278,4.1127,4.1108,4.1108,4.1108,4.1108,4.1108,4.1108,4.1108,4.1108,4.1108,4.1108,4.1108,4.1108,4.1108,4.1108,4.1108,4.1108,4.1071,4.1033,4.1004,4.0971,4.0967,4.0992,4.0966,4.1003,4.1044,4.1074,4.1079,4.1073,4.1048,4.1015,4.0979,4.1018,4.0989,4.0912,4.0835,4.0762,4.0706,4.0652,4.0646,4.0683,4.0636,4.0554,4.0495,4.044,4.0413,4.5803,4.5803,4.5803,4.5803,4.5803,4.5803,4.5803,4.5803,4.5803,4.5803,4.5803,4.5803,4.5803,4.5844,4.5944,4.5982,4.6019,4.6089,4.6152,4.6198,4.6228,4.6249,4.6282,4.6294,4.6291,4.6288,4.6305,4.6305,4.629,4.6288,4.629,4.6291,4.6288,4.6288,4.6301,4.6301,4.6301,4.6301,4.6303,4.6304,4.628,4.6144,4.6043,4.591,4.5825,4.5734,4.5688,4.568,4.5673,4.57,4.5712,4.5715,4.5719,4.5723,4.5712,4.5712,4.5715,4.5735,4.5739,4.5703,4.5686,4.5664,4.5766,4.4901,4.3849,4.337,4.2786,4.1377,4.1095,4.1109,4.1109,4.1108,4.1108,4.1108,4.1108,4.1108,4.1108,4.1108,4.1108,4.1108,4.1108,4.1108,4.1108,4.1107,4.1076,4.1071,4.103,4.0979,4.0907,4.0885,4.0855,4.0869,4.0896,4.0933,4.0993,4.0964,4.0953,4.0945,4.0935,4.0905,4.0892,4.091,4.0904,4.082,4.0729,4.0668,4.0619,4.0565,4.0595,4.0619,4.0576,4.0519,4.0503,4.0479,4.0466,4.5803,4.5803,4.5803,4.5803,4.5803,4.5803,4.5803,4.5803,4.5803,4.5803,4.5807,4.5814,4.5824,4.5845,4.5972,4.6036,4.6037,4.6139,4.6198,4.6224,4.6269,4.6285,4.6301,4.6299,4.6297,4.6299,4.6296,4.6295,4.63,4.6299,4.63,4.63,4.6298,4.6295,4.6302,4.6301,4.6301,4.6302,4.629,4.6292,4.6262,4.6146,4.6049,4.5954,4.5854,4.5783,4.5723,4.5719,4.5712,4.5735,4.5773,4.5754,4.5715,4.576,4.5791,4.5792,4.5798,4.5801,4.5795,4.5735,4.5731,4.5738,4.5814,4.5153,4.3918,4.3353,4.2948,4.1588,4.1188,4.113,4.111,4.1109,4.111,4.1108,4.1108,4.1108,4.1108,4.1108,4.1108,4.111,4.111,4.1108,4.1108,4.1104,4.1065,4.1046,4.1003,4.0948,4.0867,4.0764,4.0737,4.0798,4.0844,4.0859,4.089,4.0848,4.0831,4.082,4.0817,4.0798,4.0767,4.0778,4.0751,4.0703,4.0646,4.0589,4.0546,4.0504,4.0538,4.0568,4.0542,4.0508,4.0496,4.0499,4.0491,4.5803,4.5803,4.5803,4.5803,4.5803,4.5803,4.5803,4.5803,4.5803,4.5807,4.5827,4.5876,4.5922,4.5977,4.6047,4.6126,4.6146,4.6209,4.6268,4.6269,4.6289,4.6288,4.6305,4.6304,4.6303,4.6301,4.63,4.63,4.6301,4.6303,4.6302,4.6302,4.6303,4.63,4.6297,4.6296,4.6296,4.6296,4.6298,4.6299,4.6295,4.6195,4.6095,4.6005,4.5914,4.585,4.5769,4.578,4.5772,4.5776,4.5817,4.5791,4.576,4.5803,4.5816,4.5805,4.581,4.5851,4.5912,4.5911,4.5848,4.5852,4.5842,4.5467,4.4491,4.3859,4.3045,4.2095,4.1374,4.1217,4.1117,4.1116,4.1115,4.111,4.1108,4.1108,4.1108,4.1108,4.1109,4.1112,4.1113,4.1111,4.111,4.1081,4.106,4.0977,4.0944,4.0944,4.0892,4.0704,4.06,4.0735,4.0793,4.0786,4.0778,4.0743,4.0721,4.0726,4.0743,4.0743,4.0715,4.0662,4.0623,4.0605,4.056,4.0492,4.0492,4.0492,4.0492,4.0496,4.0492,4.0492,4.0504,4.0496,4.0503,4.5803,4.5803,4.5803,4.5803,4.5803,4.5803,4.5803,4.5814,4.5835,4.5858,4.5889,4.599,4.6034,4.606,4.6141,4.6203,4.6207,4.6267,4.6289,4.6289,4.6289,4.6289,4.6288,4.6288,4.6306,4.6305,4.6305,4.6305,4.6306,4.6306,4.6306,4.6306,4.6289,4.6306,4.6305,4.6304,4.6301,4.6301,4.6302,4.6303,4.6279,4.6221,4.6145,4.6077,4.601,4.5952,4.5867,4.5827,4.5803,4.5803,4.5803,4.5803,4.5803,4.5803,4.5803,4.5807,4.5871,4.5898,4.5972,4.6044,4.5983,4.5964,4.611,4.5725,4.4934,4.4119,4.3309,4.2435,4.1635,4.1262,4.1103,4.1102,4.11,4.1116,4.1116,4.1116,4.1116,4.1116,4.1117,4.1099,4.11,4.1116,4.1109,4.1073,4.1054,4.0964,4.0861,4.0884,4.0896,4.0695,4.053,4.0626,4.0683,4.0658,4.0652,4.0636,4.0627,4.0632,4.0639,4.0658,4.0626,4.0589,4.0553,4.0531,4.0508,4.0492,4.0492,4.0492,4.0492,4.0492,4.0492,4.0492,4.0492,4.0508,4.0496,4.5803,4.5803,4.5803,4.5803,4.5803,4.5821,4.5824,4.5827,4.593,4.5997,4.6012,4.6068,4.6102,4.6097,4.6169,4.6208,4.6233,4.6288,4.6289,4.6289,4.6289,4.6289,4.6289,4.6288,4.6288,4.6289,4.6288,4.6288,4.6289,4.6289,4.6289,4.6289,4.6289,4.6289,4.6289,4.6306,4.6304,4.6305,4.6306,4.6287,4.6285,4.6233,4.6197,4.6139,4.606,4.5988,4.5935,4.588,4.5824,4.5803,4.5803,4.5803,4.5803,4.5803,4.5803,4.5851,4.5925,4.5964,4.6039,4.6103,4.6152,4.6139,4.6179,4.5692,4.5092,4.4327,4.3453,4.2614,4.1813,4.1402,4.1107,4.1107,4.1107,4.1106,4.1105,4.1106,4.1106,4.1106,4.1106,4.1107,4.1107,4.1104,4.1094,4.1059,4.1025,4.0983,4.0881,4.0796,4.0783,4.0662,4.0515,4.0519,4.0552,4.0538,4.053,4.0565,4.0558,4.0556,4.0553,4.0556,4.0512,4.0527,4.0512,4.0512,4.05,4.0492,4.0492,4.0492,4.0492,4.0492,4.0492,4.0492,4.0492,4.0492,4.0489,4.5803,4.5803,4.5803,4.5803,4.5821,4.5911,4.595,4.5955,4.5994,4.6018,4.6072,4.6142,4.6184,4.617,4.624,4.6269,4.6289,4.6289,4.6289,4.6289,4.6289,4.6289,4.6289,4.6289,4.6289,4.6289,4.6289,4.6289,4.6289,4.6289,4.6289,4.6289,4.6289,4.6289,4.6289,4.6289,4.6289,4.6289,4.6289,4.6289,4.6289,4.6239,4.6211,4.6167,4.6086,4.6029,4.5985,4.5889,4.5828,4.5817,4.581,4.5807,4.5803,4.581,4.5827,4.5941,4.6002,4.6034,4.6123,4.6156,4.62,4.625,4.625,4.6211,4.5564,4.4687,4.3691,4.293,4.2031,4.1502,4.1189,4.113,4.1129,4.1129,4.1129,4.1129,4.1129,4.1129,4.1129,4.113,4.111,4.1107,4.1099,4.1025,4.0989,4.0964,4.09,4.0786,4.0695,4.0588,4.0523,4.05,4.0492,4.0492,4.0492,4.0519,4.0519,4.05,4.0492,4.0492,4.0496,4.05,4.0496,4.0492,4.0492,4.0492,4.0492,4.0492,4.0492,4.0492,4.0492,4.0492,4.0492,4.0492,4.0492,4.5803,4.5814,4.5867,4.5898,4.5933,4.6018,4.6042,4.609,4.6076,4.6105,4.6143,4.6228,4.6259,4.6241,4.6269,4.6289,4.6289,4.6289,4.6289,4.6289,4.6289,4.6289,4.6289,4.6289,4.6289,4.6289,4.6289,4.6289,4.6289,4.6289,4.6289,4.6289,4.6289,4.6289,4.6289,4.6289,4.6289,4.6289,4.6289,4.6289,4.6269,4.625,4.623,4.621,4.6122,4.6103,4.6078,4.5951,4.5908,4.5883,4.587,4.5854,4.5834,4.5807,4.5871,4.5975,4.6034,4.6066,4.6137,4.6228,4.6244,4.6269,4.6289,4.6269,4.5879,4.5098,4.4277,4.3496,4.2441,4.1582,4.1347,4.1132,4.1132,4.1131,4.1131,4.1131,4.1131,4.1131,4.1131,4.1132,4.1131,4.1109,4.1075,4.0995,4.0915,4.0877,4.0801,4.0699,4.0613,4.0559,4.0516,4.0496,4.0492,4.0492,4.0492,4.0492,4.0492,4.0492,4.0492,4.0492,4.0492,4.0492,4.0492,4.0492,4.0492,4.0492,4.0492,4.0492,4.0492,4.0492,4.0492,4.0492,4.0492,4.0492,4.0492,4.5814,4.5841,4.5967,4.605,4.6103,4.6109,4.6163,4.6205,4.6204,4.6206,4.6212,4.6267,4.6289,4.6289,4.6289,4.6289,4.6289,4.6289,4.6289,4.6289,4.6289,4.6289,4.6289,4.6289,4.6289,4.6289,4.6289,4.6289,4.6289,4.6289,4.6289,4.6289,4.6289,4.6289,4.6289,4.6289,4.6289,4.6289,4.6289,4.6289,4.6289,4.6289,4.6289,4.6289,4.6237,4.6195,4.6166,4.6132,4.6088,4.6027,4.5982,4.5942,4.5898,4.5851,4.5923,4.5991,4.6082,4.6125,4.6167,4.6259,4.6269,4.6289,4.6289,4.6289,4.5937,4.5332,4.4551,4.3945,4.2949,4.209,4.1699,4.1328,4.1172,4.1172,4.1172,4.1172,4.1172,4.1172,4.1172,4.1172,4.1152,4.113,4.1085,4.1016,4.0964,4.0833,4.0738,4.0626,4.0575,4.0546,4.0512,4.0492,4.0492,4.0492,4.0492,4.0492,4.0492,4.0492,4.0492,4.0492,4.0492,4.0492,4.0492,4.0492,4.0492,4.0492,4.0492,4.0492,4.0492,4.0492,4.0492,4.0492,4.0492,4.0492,4.0492,4.5851,4.5969,4.6035,4.6115,4.6185,4.6169,4.621,4.6268,4.6287,4.6269,4.6269,4.6289,4.6289,4.6289,4.6289,4.6289,4.6289,4.6289,4.6289,4.6289,4.6289,4.6289,4.6289,4.6289,4.6289,4.6289,4.6289,4.6289,4.6289,4.6289,4.6289,4.6289,4.6289,4.6289,4.6289,4.6289,4.6289,4.6289,4.6289,4.6289,4.6289,4.6289,4.6289,4.6289,4.6241,4.621,4.6176,4.6143,4.6105,4.6092,4.6072,4.6058,4.6044,4.5988,4.6026,4.6129,4.6155,4.6173,4.6213,4.6269,4.6289,4.6289,4.6289,4.6289,4.6016,4.5391,4.4805,4.4258,4.3613,4.2793,4.207,4.1641,4.1269,4.1269,4.1191,4.1191,4.1191,4.1191,4.1191,4.1191,4.1172,4.1131,4.1107,4.1028,4.097,4.0885,4.0762,4.0665,4.0605,4.0559,4.0516,4.0492,4.0492,4.0492,4.0492,4.0492,4.0492,4.0492,4.0492,4.0492,4.0492,4.0492,4.0492,4.0492,4.0492,4.0492,4.0492,4.0492,4.0492,4.0492,4.0492,4.0492,4.0492,4.0492,4.0492,4.5978,4.6059,4.6118,4.6192,4.6239,4.6241,4.6266,4.6289,4.6289,4.6289,4.6289,4.6289,4.6289,4.6289,4.6289,4.6289,4.6289,4.6289,4.6289,4.6289,4.6289,4.6289,4.6289,4.6289,4.6289,4.6289,4.6289,4.6289,4.6289,4.6289,4.6289,4.6289,4.6289,4.6289,4.6289,4.6289,4.6289,4.6289,4.6289,4.6289,4.6289,4.6289,4.6289,4.6289,4.6269,4.623,4.6238,4.6204,4.6169,4.6141,4.6117,4.6128,4.6114,4.6076,4.6102,4.6158,4.6202,4.6211,4.6244,4.6269,4.6289,4.6289,4.6289,4.6289,4.6289,4.5723,4.5351,4.4844,4.4512,4.3769,4.2949,4.2422,4.2031,4.1894,4.1465,4.1191,4.1191,4.1191,4.1191,4.1191,4.1191,4.1171,4.1084,4.0939,4.0885,4.0829,4.0743,4.0629,4.0581,4.057,4.0531,4.0492,4.0492,4.0492,4.0492,4.0492,4.0492,4.0492,4.0492,4.0492,4.0492,4.0492,4.0492,4.0492,4.0492,4.0492,4.0492,4.0492,4.0492,4.0492,4.0492,4.0492,4.0492,4.0492,4.0492,4.6102,4.6123,4.6194,4.6241,4.6289,4.6289,4.6289,4.6289,4.6289,4.6289,4.6289,4.6289,4.6289,4.6289,4.6289,4.6289,4.6289,4.6289,4.6289,4.6289,4.6289,4.6289,4.6289,4.6289,4.6289,4.6289,4.6289,4.6289,4.6289,4.6289,4.6289,4.6289,4.6289,4.6289,4.6289,4.6289,4.6289,4.6289,4.6289,4.6289,4.6289,4.6289,4.6289,4.6289,4.6289,4.6289,4.6289,4.6289,4.625,4.6211,4.6159,4.6185,4.6167,4.6151,4.6163,4.6206,4.6216,4.6237,4.624,4.6269,4.6289,4.6289,4.6289,4.6289,4.6289,4.6113,4.5742,4.5488,4.5156,4.4648,4.3828,4.3183,4.2793,4.25,4.1973,4.1465,4.1445,4.1426,4.1387,4.1367,4.123,4.1211,4.1097,4.0961,4.0844,4.0774,4.0695,4.0575,4.0512,4.0531,4.0512,4.0492,4.0492,4.0492,4.0492,4.0492,4.0492,4.0492,4.0492,4.0492,4.0492,4.0492,4.0492,4.0492,4.0492,4.0492,4.0492,4.0492,4.0492,4.0492,4.0492,4.0492,4.0492,4.0492,4.0492,4.6134,4.6195,4.6244,4.6289,4.6289,4.6289,4.6289,4.6289,4.6289,4.6289,4.6289,4.6289,4.6289,4.6289,4.6289,4.6289,4.6289,4.6289,4.6289,4.6289,4.6289,4.6289,4.6289,4.6289,4.6289,4.6289,4.6289,4.6289,4.6289,4.6289,4.6289,4.6289,4.6289,4.6289,4.6289,4.6289,4.6289,4.6289,4.6289,4.6289,4.6289,4.6289,4.6289,4.6289,4.6289,4.6289,4.6289,4.6289,4.6289,4.6266,4.6215,4.6235,4.6235,4.6232,4.6234,4.625,4.625,4.6269,4.6269,4.6289,4.6289,4.6289,4.6289,4.6289,4.6289,4.6289,4.6035,4.5937,4.5605,4.5195,4.4492,4.3887,4.3457,4.334,4.2988,4.2578,4.2363,4.2187,4.2051,4.1738,4.1387,4.1346,4.1262,4.1081,4.0884,4.0813,4.07,4.0605,4.0504,4.0496,4.0492,4.0492,4.0492,4.0492,4.0492,4.0492,4.0492,4.0492,4.0492,4.0492,4.0492,4.0492,4.0492,4.0492,4.0492,4.0492,4.0492,4.0492,4.0492,4.0492,4.0492,4.0492,4.0492,4.0492,4.0492]}]]